[[{"header":{"parameterUnit":"m.s-1","parameterCategory":1,"la1":31.0,"la2":29.5877,"lo1":-88.7671,"lo2":-86.6584,"dy":0.0162,"dx":0.0185,"nx":115,"ny":88,"refTime":"2023-10-24T18:00:00:Z","depth":0,"parameterNumber":2,"parameterNumberName":"U-component_of_WINDS"},"data":[0.0,0.0,0.0,0.0,0.0,0.0,0.0,0.0,0.0,0.0,0.0,0.0,0.0,0.0,0.0,0.0,0.0,0.0,0.0,0.0,0.0,0.0,0.0,0.0,0.0,0.0,0.0,0.0,0.0,0.0,0.0,0.0,0.0,0.0,0.0,0.0,0.0,0.0,0.0,0.0,0.0,0.0,0.0,0.0,0.0,0.0,0.0,0.0,0.0,0.0,0.0,0.0,0.0,0.0,0.0,0.0,0.0,0.0,0.0,0.0,0.0,0.0,0.0,0.0,0.0,0.0,0.0,0.0,0.0,0.0,0.0,0.0,0.0,0.0,0.0,0.0,0.0,0.0,0.0,0.0,0.0,0.0,0.0,0.0,0.0,0.0,0.0,0.0,0.0,0.0,0.0,0.0,0.0,0.0,0.0,0.0,0.0,0.0,0.0,0.0,0.0,0.0,0.0,0.0,0.0,0.0,0.0,0.0,0.0,0.0,0.0,0.0,0.0,0.0,0.0,0.0,0.0,0.0,0.0,0.0,0.0,0.0,0.0,0.0,0.0,0.0,0.0,0.0,0.0,0.0,0.0,0.0,0.0,0.0,0.0,0.0,0.0,0.0,0.0,0.0,0.0,0.0,0.0,0.0,0.0,0.0,0.0,0.0,0.0,0.0,0.0,0.0,0.0,0.0,0.0,0.0,0.0,0.0,0.0,0.0,0.0,0.0,0.0,0.0,0.0,0.0,0.0,0.0,0.0,0.0,0.0,0.0,0.0,0.0,0.0,0.0,0.0,0.0,0.0,0.0,0.0,0.0,0.0,0.0,0.0,0.0,0.0,0.0,0.0,0.0,0.0,0.0,0.0,0.0,0.0,0.0,0.0,0.0,0.0,0.0,0.0,0.0,0.0,0.0,0.0,0.0,0.0,0.0,0.0,0.0,0.0,0.0,0.0,0.0,0.0,0.0,0.0,0.0,0.0,0.0,0.0,0.0,0.0,0.0,0.0,0.0,0.0,0.0,0.0,0.0,0.0,0.0,0.0,0.0,0.0,0.0,0.0,0.0,0.0,0.0,0.0,0.0,0.0,0.0,0.0,0.0,0.0,0.0,0.0,0.0,0.0,0.0,0.0,0.0,0.0,0.0,0.0,0.0,0.0,0.0,0.0,0.0,0.0,0.0,0.0,0.0,0.0,0.0,0.0,0.0,0.0,0.0,0.0,0.0,0.0,0.0,0.0,0.0,0.0,0.0,0.0,0.0,0.0,0.0,0.0,0.0,0.0,0.0,0.0,0.0,0.0,0.0,0.0,0.0,0.0,0.0,0.0,0.0,0.0,0.0,0.0,0.0,0.0,0.0,0.0,0.0,0.0,0.0,0.0,0.0,0.0,0.0,0.0,0.0,0.0,0.0,0.0,0.0,0.0,0.0,0.0,0.0,0.0,0.0,0.0,0.0,0.0,0.0,0.0,0.0,0.0,0.0,0.0,0.0,0.0,0.0,0.0,0.0,0.0,0.0,0.0,0.0,0.0,0.0,0.0,0.0,0.0,0.0,0.0,0.0,0.0,0.0,0.0,0.0,0.0,0.0,0.0,0.0,0.0,0.0,0.0,0.0,0.0,0.0,0.0,0.0,0.0,0.0,0.0,0.0,0.0,0.0,0.0,0.0,0.0,0.0,0.0,0.0,0.0,0.0,0.0,0.0,0.0,0.0,0.0,0.0,0.0,0.0,0.0,0.0,0.0,0.0,0.0,0.0,0.0,0.0,0.0,0.0,0.0,0.0,0.0,0.0,0.0,0.0,0.0,0.0,0.0,0.0,0.0,0.0,0.0,0.0,0.0,0.0,0.0,0.0,0.0,0.0,0.0,0.0,0.0,0.0,0.0,0.0,0.0,0.0,0.0,0.0,0.0,0.0,0.0,0.0,0.0,0.0,0.0,0.0,0.0,0.0,0.0,0.0,0.0,0.0,0.0,0.0,0.0,0.0,0.0,0.0,0.0,0.0,0.0,0.0,0.0,0.0,0.0,0.0,0.0,0.0,0.0,0.0,0.0,0.0,0.0,0.0,0.0,0.0,0.0,0.0,0.0,0.0,0.0,0.0,0.0,0.0,0.0,0.0,0.0,0.0,0.0,0.0,0.0,0.0,0.0,0.0,0.0,0.0,0.0,0.0,0.0,0.0,0.0,0.0,0.0,0.0,0.0,0.0,0.0,0.0,0.0,0.0,0.0,0.0,0.0,0.0,0.0,0.0,0.0,0.0,0.0,0.0,0.0,0.0,0.0,0.0,0.0,0.0,0.0,0.0,0.0,0.0,0.0,0.0,0.0,0.0,0.0,0.0,0.0,0.0,0.0,0.0,0.0,0.0,0.0,0.0,0.0,0.0,0.0,0.0,0.0,0.0,0.0,0.0,0.0,0.0,0.0,0.0,0.0,0.0,0.0,0.0,0.0,0.0,0.0,0.0,0.0,0.0,0.0,0.0,0.0,0.0,0.0,0.0,0.0,0.0,0.0,0.0,0.0,0.0,0.0,0.0,0.0,0.0,0.0,0.0,0.0,0.0,0.0,0.0,0.0,0.0,0.0,0.0,0.0,0.0,0.0,0.0,0.0,0.0,0.0,0.0,0.0,0.0,0.0,0.0,0.0,0.0,0.0,0.0,0.0,0.0,0.0,0.0,0.0,0.0,0.0,0.0,0.0,0.0,0.0,0.0,0.0,0.0,0.0,0.0,0.0,0.0,0.0,0.0,0.0,0.0,0.0,0.0,0.0,0.0,0.0,0.0,0.0,0.0,0.0,0.0,0.0,0.0,0.0,0.0,0.0,0.0,0.0,0.0,0.0,0.0,0.0,0.0,0.0,0.0,0.0,0.0,0.0,0.0,0.0,0.0,0.0,0.0,0.0,0.0,0.0,0.0,0.0,0.0,0.0,0.0,0.0,0.0,0.0,0.0,0.0,0.0,0.0,0.0,0.0,0.0,0.0,0.0,0.0,0.0,0.0,0.0,0.0,0.0,0.0,0.0,0.0,0.0,0.0,0.0,0.0,0.0,0.0,0.0,0.0,0.0,0.0,0.0,0.0,0.0,0.0,0.0,0.0,0.0,0.0,0.0,0.0,0.0,0.0,0.0,0.0,0.0,0.0,0.0,0.0,0.0,0.0,0.0,0.0,0.0,0.0,0.0,0.0,0.0,0.0,0.0,0.0,0.0,0.0,0.0,0.0,0.0,0.0,0.0,0.0,0.0,0.0,0.0,0.0,0.0,0.0,0.0,0.0,0.0,0.0,0.0,0.0,0.0,0.0,0.0,0.0,0.0,0.0,0.0,0.0,0.0,0.0,0.0,0.0,0.0,0.0,0.0,0.0,0.0,0.0,0.0,0.0,0.0,0.0,0.0,0.0,0.0,0.0,0.0,0.0,0.0,0.0,0.0,0.0,0.0,0.0,0.0,0.0,0.0,0.0,0.0,0.0,0.0,0.0,0.0,0.0,0.0,0.0,0.0,0.0,0.0,0.0,0.0,0.0,0.0,0.0,0.0,0.0,0.0,0.0,0.0,0.0,0.0,0.0,0.0,0.0,0.0,0.0,0.0,0.0,0.0,0.0,0.0,0.0,0.0,0.0,0.0,0.0,0.0,0.0,0.0,0.0,0.0,0.0,0.0,0.0,0.0,0.0,0.0,0.0,0.0,0.0,0.0,0.0,0.0,0.0,0.0,0.0,0.0,0.0,0.0,0.0,0.0,0.0,0.0,0.0,0.0,0.0,0.0,0.0,0.0,0.0,0.0,0.0,0.0,0.0,0.0,0.0,0.0,0.0,0.0,0.0,0.0,0.0,0.0,0.0,0.0,0.0,0.0,0.0,0.0,0.0,0.0,0.0,0.0,0.0,0.0,0.0,0.0,0.0,0.0,0.0,0.0,0.0,0.0,0.0,0.0,0.0,0.0,0.0,0.0,0.0,0.0,0.0,0.0,0.0,0.0,0.0,0.0,0.0,0.0,0.0,0.0,0.0,0.0,0.0,0.0,0.0,0.0,0.0,0.0,0.0,0.0,0.0,0.0,0.0,0.0,0.0,0.0,0.0,0.0,0.0,0.0,0.0,0.0,0.0,0.0,0.0,0.0,0.0,0.0,0.0,0.0,0.0,0.0,0.0,0.0,0.0,0.0,0.0,0.0,0.0,0.0,0.0,0.0,0.0,0.0,0.0,0.0,0.0,0.0,0.0,0.0,0.0,0.0,0.0,0.0,0.0,0.0,0.0,0.0,0.0,0.0,0.0,0.0,0.0,0.0,-0.8218,0.0,0.0,0.0,0.0,0.0,0.0,0.0,0.0,0.0,0.0,0.0,0.0,0.0,0.0,0.0,0.0,0.0,0.0,0.0,0.0,0.0,0.0,0.0,0.0,0.0,0.0,0.0,0.0,0.0,0.0,0.0,0.0,0.0,0.0,0.0,0.0,0.0,0.0,0.0,0.0,0.0,0.0,0.0,0.0,0.0,0.0,0.0,0.0,0.0,0.0,0.0,0.0,0.0,0.0,0.0,0.0,0.0,0.0,0.0,0.0,0.0,0.0,0.0,0.0,0.0,0.0,0.0,0.0,0.0,0.0,0.0,0.0,0.0,0.0,0.0,0.0,0.0,0.0,0.0,0.0,0.0,0.0,0.0,0.0,0.0,0.0,0.0,0.0,0.0,0.0,0.0,0.0,0.0,0.0,0.0,0.0,0.0,0.0,0.0,0.0,0.0,0.0,0.0,0.0,0.0,0.0,0.0,0.0,0.0,0.0,-0.9776,-0.9173,-0.8849,-0.8475,-0.8125,0.0,0.0,0.0,0.0,0.0,0.0,0.0,0.0,0.0,0.0,0.0,0.0,0.0,0.0,0.0,0.0,0.0,0.0,0.0,0.0,0.0,0.0,0.0,0.0,0.0,0.0,0.0,0.0,0.0,0.0,0.0,0.0,0.0,0.0,0.0,0.0,0.0,0.0,0.0,0.0,0.0,0.0,0.0,0.0,0.0,0.0,0.0,0.0,0.0,0.0,0.0,0.0,0.0,0.0,0.0,0.0,0.0,0.0,0.0,0.0,0.0,0.0,0.0,0.0,0.0,0.0,0.0,0.0,0.0,0.0,0.0,0.0,0.0,0.0,0.0,0.0,0.0,0.0,0.0,0.0,0.0,0.0,0.0,0.0,0.0,0.0,0.0,0.0,0.0,0.0,0.0,0.0,0.0,0.0,0.0,0.0,0.0,0.0,0.0,0.0,0.0,0.0,0.0,0.0,0.0,0.0,0.0,0.0,0.0,0.0,0.0,0.0,-0.9172,-0.8992,-0.8465,0.0,0.0,0.0,0.0,0.0,0.0,0.0,0.0,0.0,0.0,0.0,0.0,0.0,0.0,0.0,0.0,0.0,0.0,0.0,0.0,0.0,0.0,0.0,0.0,0.0,0.0,0.0,0.0,0.0,0.0,0.0,0.0,0.0,0.0,0.0,0.0,0.0,0.0,0.0,0.0,0.0,0.0,0.0,0.0,0.0,0.0,0.0,0.0,0.0,0.0,0.0,0.0,0.0,0.0,0.0,0.0,0.0,0.0,0.0,0.0,0.0,0.0,0.0,0.0,0.0,0.0,0.0,0.0,0.0,0.0,0.0,0.0,0.0,0.0,0.0,0.0,0.0,0.0,0.0,0.0,0.0,0.0,0.0,0.0,0.0,0.0,0.0,0.0,0.0,0.0,0.0,0.0,0.0,0.0,0.0,0.0,0.0,0.0,0.0,0.0,0.0,0.0,0.0,0.0,0.0,0.0,0.0,0.0,0.0,0.0,-0.9115,-1.0116,-0.9973,0.0,-0.9722,0.0,0.0,0.0,0.0,0.0,0.0,0.0,0.0,0.0,0.0,0.0,0.0,0.0,0.0,0.0,0.0,0.0,0.0,0.0,0.0,0.0,0.0,0.0,0.0,0.0,0.0,0.0,0.0,0.0,0.0,0.0,0.0,0.0,0.0,0.0,0.0,0.0,0.0,0.0,0.0,0.0,0.0,0.0,0.0,0.0,0.0,0.0,0.0,0.0,0.0,0.0,0.0,0.0,0.0,0.0,0.0,0.0,0.0,0.0,0.0,0.0,0.0,0.0,0.0,0.0,0.0,0.0,0.0,0.0,0.0,0.0,0.0,0.0,0.0,0.0,0.0,0.0,0.0,0.0,0.0,0.0,0.0,0.0,0.0,0.0,0.0,0.0,0.0,0.0,0.0,0.0,0.0,0.0,0.0,0.0,0.0,0.0,0.0,0.0,0.0,0.0,0.0,0.0,0.0,0.0,0.0,0.0,0.0,0.0,0.0,-0.8857,-0.9222,-0.9307,-0.9526,0.0,0.0,0.0,0.0,0.0,0.0,0.0,0.0,0.0,0.0,0.0,0.0,0.0,0.0,0.0,0.0,0.0,0.0,0.0,0.0,0.0,0.0,0.0,0.0,0.0,0.0,0.0,0.0,0.0,0.0,0.0,0.0,0.0,0.0,0.0,0.0,0.0,0.0,0.0,0.0,0.0,0.0,0.0,0.0,0.0,0.0,0.0,0.0,0.0,0.0,0.0,0.0,0.0,0.0,0.0,0.0,0.0,0.0,0.0,0.0,0.0,0.0,0.0,0.0,0.0,0.0,0.0,0.0,0.0,0.0,0.0,0.0,0.0,0.0,0.0,0.0,0.0,0.0,0.0,0.0,0.0,0.0,0.0,0.0,0.0,0.0,0.0,0.0,0.0,0.0,0.0,0.0,0.0,0.0,0.0,0.0,0.0,0.0,0.0,0.0,0.0,0.0,0.0,0.0,0.0,0.0,0.0,0.0,0.0,0.0,-0.882,-0.8904,-0.9155,-0.9417,-0.9544,-0.9537,0.0,0.0,0.0,0.0,0.0,0.0,0.0,0.0,0.0,0.0,0.0,0.0,0.0,0.0,0.0,0.0,0.0,0.0,0.0,0.0,0.0,0.0,0.0,0.0,0.0,0.0,0.0,0.0,0.0,0.0,0.0,0.0,0.0,0.0,0.0,0.0,0.0,0.0,0.0,0.0,0.0,0.0,0.0,0.0,0.0,0.0,0.0,0.0,0.0,0.0,0.0,0.0,0.0,0.0,0.0,0.0,0.0,0.0,0.0,0.0,0.0,0.0,0.0,0.0,0.0,0.0,0.0,0.0,0.0,0.0,0.0,0.0,0.0,0.0,0.0,0.0,0.0,0.0,0.0,0.0,0.0,0.0,0.0,0.0,0.0,0.0,0.0,0.0,0.0,0.0,0.0,0.0,0.0,0.0,0.0,0.0,0.0,0.0,0.0,0.0,0.0,0.0,0.0,0.0,0.0,0.0,0.0,0.0,-1.0418,-0.9389,-0.9433,-1.0717,-1.0985,-1.0337,0.0,0.0,0.0,0.0,0.0,0.0,0.0,0.0,0.0,0.0,0.0,0.0,0.0,0.0,0.0,0.0,0.0,0.0,0.0,0.0,0.0,0.0,0.0,0.0,0.0,0.0,0.0,0.0,0.0,0.0,0.0,0.0,0.0,0.0,0.0,0.0,0.0,0.0,0.0,0.0,0.0,0.0,0.0,0.0,0.0,0.0,0.0,0.0,0.0,0.0,0.0,0.0,0.0,0.0,0.0,0.0,0.0,0.0,0.0,0.0,0.0,0.0,0.0,0.0,0.0,0.0,0.0,0.0,0.0,0.0,0.0,0.0,0.0,0.0,0.0,0.0,0.0,0.0,0.0,0.0,0.0,0.0,0.0,0.0,0.0,0.0,0.0,0.0,0.0,0.0,0.0,0.0,0.0,0.0,0.0,0.0,0.0,0.0,0.0,0.0,0.0,0.0,0.0,0.0,0.0,0.0,0.0,0.0,0.0,-0.8801,-0.8812,-0.981,-1.1749,-1.0228,-0.9389,0.0,0.0,0.0,0.0,0.0,0.0,0.0,0.0,0.0,0.0,0.0,0.0,0.0,0.0,0.0,0.0,0.0,0.0,0.0,0.0,0.0,0.0,0.0,0.0,0.0,0.0,0.0,0.0,0.0,0.0,0.0,0.0,0.0,0.0,0.0,0.0,0.0,0.0,0.0,0.0,0.0,0.0,0.0,0.0,0.0,0.0,0.0,0.0,0.0,0.0,0.0,0.0,0.0,0.0,0.0,0.0,0.0,0.0,0.0,0.0,0.0,0.0,0.0,0.0,0.0,0.0,0.0,0.0,0.0,0.0,0.0,0.0,0.0,0.0,0.0,0.0,0.0,0.0,0.0,0.0,0.0,0.0,0.0,0.0,0.0,0.0,0.0,0.0,0.0,0.0,0.0,0.0,0.0,0.0,0.0,0.0,0.0,0.0,0.0,0.0,0.0,0.0,0.0,0.0,0.0,0.0,0.0,0.0,0.0,-0.8803,0.0,-1.0575,-1.1564,-0.9832,-0.8822,0.0,0.0,0.0,0.0,0.0,0.0,0.0,0.0,0.0,0.0,0.0,0.0,0.0,0.0,0.0,0.0,0.0,0.0,0.0,0.0,0.0,0.0,0.0,0.0,0.0,0.0,0.0,0.0,0.0,0.0,0.0,0.0,0.0,0.0,0.0,0.0,0.0,0.0,0.0,0.0,0.0,0.0,0.0,0.0,0.0,0.0,0.0,0.0,0.0,0.0,0.0,0.0,0.0,0.0,0.0,0.0,0.0,0.0,0.0,0.0,0.0,0.0,0.0,0.0,0.0,0.0,0.0,0.0,0.0,0.0,0.0,0.0,0.0,0.0,0.0,0.0,0.0,0.0,0.0,0.0,0.0,0.0,0.0,0.0,0.0,0.0,0.0,0.0,0.0,0.0,0.0,0.0,0.0,0.0,0.0,0.0,0.0,0.0,0.0,0.0,0.0,0.0,0.0,0.0,0.0,0.0,0.0,0.0,-0.9114,-1.0798,-1.1847,-1.1648,-1.0211,-1.0035,-0.865,0.0,0.0,0.0,0.0,0.0,0.0,0.0,0.0,0.0,0.0,0.0,0.0,0.0,0.0,0.0,0.0,0.0,0.0,0.0,0.0,0.0,0.0,0.0,0.0,0.0,0.0,0.0,0.0,0.0,0.0,0.0,0.0,0.0,0.0,0.0,0.0,0.0,0.0,0.0,0.0,0.0,0.0,0.0,0.0,0.0,0.0,0.0,0.0,0.0,0.0,0.0,0.0,0.0,0.0,0.0,0.0,0.0,0.0,0.0,0.0,0.0,0.0,0.0,0.0,0.0,0.0,0.0,0.0,0.0,0.0,0.0,0.0,0.0,0.0,0.0,0.0,0.0,0.0,0.0,0.0,0.0,0.0,0.0,0.0,0.0,0.0,0.0,0.0,0.0,0.0,0.0,0.0,0.0,0.0,0.0,0.0,0.0,0.0,0.0,0.0,0.0,0.0,0.0,0.0,0.0,0.0,0.0,0.0,0.0,-1.0442,-1.0967,-1.1428,-1.1679,-0.9463,-0.8278,0.0,0.0,0.0,0.0,0.0,0.0,0.0,0.0,0.0,0.0,0.0,0.0,0.0,0.0,0.0,0.0,0.0,0.0,0.0,0.0,0.0,0.0,0.0,0.0,0.0,0.0,0.0,0.0,0.0,0.0,0.0,0.0,0.0,0.0,0.0,0.0,0.0,0.0,0.0,0.0,0.0,0.0,0.0,0.0,0.0,0.0,0.0,0.0,0.0,0.0,0.0,0.0,0.0,0.0,0.0,0.0,0.0,0.0,0.0,0.0,0.0,0.0,0.0,0.0,0.0,0.0,0.0,0.0,0.0,0.0,0.0,0.0,0.0,0.0,0.0,0.0,0.0,0.0,0.0,0.0,0.0,0.0,0.0,0.0,0.0,0.0,0.0,0.0,0.0,0.0,0.0,0.0,0.0,0.0,0.0,0.0,0.0,0.0,0.0,0.0,0.0,0.0,0.0,0.0,0.0,0.0,0.0,0.0,0.0,-1.2094,-1.2202,-1.2313,-1.2416,-0.988,-0.852,-0.8477,0.0,0.0,0.0,0.0,0.0,0.0,0.0,0.0,0.0,0.0,0.0,0.0,0.0,0.0,0.0,0.0,0.0,0.0,0.0,0.0,0.0,0.0,0.0,0.0,0.0,0.0,0.0,0.0,0.0,0.0,0.0,0.0,0.0,0.0,0.0,0.0,0.0,0.0,0.0,0.0,0.0,0.0,0.0,0.0,0.0,0.0,0.0,0.0,0.0,0.0,0.0,0.0,0.0,0.0,0.0,0.0,0.0,0.0,0.0,0.0,0.0,0.0,0.0,0.0,0.0,0.0,0.0,0.0,0.0,0.0,0.0,0.0,0.0,0.0,0.0,0.0,0.0,0.0,0.0,0.0,0.0,0.0,0.0,0.0,0.0,0.0,0.0,0.0,0.0,0.0,0.0,0.0,0.0,0.0,0.0,0.0,0.0,0.0,0.0,0.0,0.0,0.0,0.0,0.0,0.0,0.0,0.0,0.0,-1.5248,-1.5121,-1.421,-1.2587,-1.1199,-0.9371,0.0,0.0,0.0,0.0,0.0,0.0,0.0,0.0,0.0,0.0,0.0,0.0,0.0,0.0,0.0,0.0,0.0,0.0,0.0,0.0,0.0,0.0,0.0,0.0,0.0,0.0,0.0,0.0,0.0,0.0,0.0,0.0,0.0,0.0,0.0,0.0,0.0,0.0,0.0,0.0,0.0,0.0,0.0,0.0,0.0,0.0,0.0,0.0,0.0,0.0,0.0,0.0,0.0,0.0,0.0,0.0,0.0,0.0,0.0,0.0,0.0,0.0,0.0,0.0,0.0,0.0,0.0,0.0,0.0,0.0,0.0,0.0,0.0,0.0,0.0,0.0,0.0,0.0,0.0,0.0,0.0,0.0,0.0,0.0,0.0,0.0,0.0,0.0,0.0,0.0,0.0,0.0,0.0,0.0,0.0,0.0,0.0,0.0,0.0,0.0,0.0,0.0,0.0,0.0,0.0,0.0,0.0,0.0,0.0,-1.6067,-1.6392,-1.6042,-1.5019,-1.2837,-1.0847,0.0,0.0,0.0,0.0,0.0,0.0,0.0,0.0,0.0,0.0,0.0,0.0,0.0,0.0,0.0,0.0,0.0,0.0,0.0,0.0,0.0,0.0,0.0,0.0,0.0,0.0,0.0,0.0,0.0,0.0,0.0,0.0,0.0,0.0,0.0,0.0,0.0,0.0,0.0,0.0,0.0,0.0,0.0,0.0,0.0,0.0,0.0,0.0,0.0,0.0,0.0,0.0,0.0,0.0,0.0,0.0,0.0,0.0,0.0,0.0,0.0,0.0,0.0,0.0,0.0,0.0,0.0,0.0,0.0,0.0,0.0,0.0,0.0,0.0,0.0,0.0,0.0,0.0,0.0,0.0,0.0,0.0,0.0,0.0,0.0,0.0,0.0,0.0,0.0,0.0,0.0,0.0,0.0,0.0,0.0,0.0,0.0,0.0,0.0,0.0,0.0,0.0,0.0,0.0,0.0,0.0,0.0,0.0,-1.5099,-1.7078,-1.7522,-1.737,-1.6641,-1.4278,-1.1938,0.0,0.0,0.0,0.0,0.0,0.0,0.0,0.0,0.0,0.0,0.0,0.0,0.0,0.0,0.0,0.0,0.0,0.0,0.0,0.0,0.0,0.0,0.0,0.0,0.0,0.0,0.0,0.0,0.0,0.0,0.0,0.0,0.0,0.0,0.0,0.0,0.0,0.0,0.0,0.0,0.0,0.0,0.0,0.0,0.0,0.0,0.0,0.0,0.0,0.0,0.0,0.0,0.0,0.0,0.0,0.0,0.0,0.0,0.0,0.0,0.0,0.0,0.0,0.0,0.0,0.0,0.0,0.0,0.0,0.0,0.0,0.0,0.0,0.0,0.0,0.0,0.0,0.0,0.0,0.0,0.0,0.0,0.0,0.0,0.0,0.0,0.0,0.0,0.0,0.0,0.0,0.0,0.0,0.0,0.0,0.0,0.0,0.0,0.0,0.0,0.0,0.0,0.0,0.0,0.0,0.0,0.0,0.0,-1.6143,-1.7773,-1.8249,-1.8111,-1.7359,-1.5383,-1.2759,0.0,0.0,0.0,0.0,0.0,0.0,0.0,0.0,0.0,0.0,0.0,0.0,0.0,0.0,0.0,0.0,0.0,0.0,0.0,0.0,0.0,0.0,0.0,0.0,0.0,0.0,0.0,0.0,0.0,0.0,0.0,0.0,0.0,0.0,0.0,0.0,0.0,0.0,0.0,0.0,0.0,0.0,0.0,0.0,0.0,0.0,0.0,0.0,0.0,0.0,0.0,0.0,0.0,0.0,0.0,0.0,0.0,0.0,0.0,0.0,0.0,0.0,0.0,0.0,0.0,0.0,0.0,0.0,0.0,0.0,0.0,0.0,0.0,0.0,0.0,0.0,0.0,0.0,0.0,0.0,0.0,0.0,0.0,0.0,0.0,0.0,0.0,0.0,0.0,0.0,0.0,0.0,0.0,0.0,0.0,0.0,0.0,0.0,0.0,0.0,0.0,0.0,0.0,0.0,0.0,0.0,0.0,0.0,-1.5443,-1.6472,-1.7249,-1.7256,-1.6494,-1.5059,-1.3167,0.0,0.0,0.0,0.0,0.0,0.0,0.0,0.0,0.0,0.0,0.0,0.0,0.0,0.0,0.0,0.0,0.0,0.0,0.0,0.0,0.0,0.0,0.0,0.0,0.0,0.0,0.0,0.0,0.0,0.0,0.0,0.0,0.0,0.0,0.0,0.0,0.0,0.0,0.0,0.0,0.0,0.0,0.0,0.0,0.0,0.0,0.0,0.0,-0.1706,0.0,0.0,0.0,0.0,0.0,0.0,0.0,0.0,0.0,0.0,0.0,0.0,0.0,0.0,0.0,0.0,0.0,0.0,0.0,0.0,0.0,0.0,0.0,0.0,0.0,0.0,0.0,0.0,0.0,0.0,0.0,0.0,0.0,0.0,0.0,0.0,0.0,0.0,0.0,0.0,0.0,0.0,0.0,0.0,0.0,0.0,0.0,0.0,0.0,0.0,0.0,0.0,0.0,0.0,0.0,0.0,0.0,0.0,0.0,-1.567,-1.6665,-1.6966,-1.687,-1.6401,-1.4956,-1.3273,0.0,0.0,0.0,0.0,0.0,0.0,0.0,0.0,0.0,0.0,0.0,0.0,0.0,0.0,0.0,0.0,0.0,0.0,0.0,0.0,0.0,0.0,0.0,0.0,0.0,0.0,0.0,0.0,0.0,0.0,0.0,0.0,0.0,0.0,0.0,0.0,0.0,0.0,0.0,0.0,0.0,0.0,0.0,0.0,0.0,0.0,0.0,0.0,0.0,0.0,0.0,0.0,0.0,0.0,0.0,0.0,0.0,0.0,0.0,0.0,0.0,0.0,0.0,0.0,0.0,0.0,0.0,0.0,0.0,0.0,0.0,0.0,0.0,0.0,0.0,0.0,0.0,0.0,0.0,0.0,0.0,0.0,0.0,0.0,0.0,0.0,0.0,0.0,0.0,0.0,0.0,0.0,0.0,0.0,0.0,0.0,0.0,0.0,0.0,0.0,0.0,0.0,0.0,0.0,0.0,0.0,0.0,-1.4347,-1.5903,-1.7013,-1.6718,-1.6509,-1.6478,-1.4927,-1.3334,-1.1797,0.0,0.0,0.0,0.0,0.0,0.0,0.0,0.0,0.0,0.0,0.0,0.0,0.0,0.0,0.0,0.0,0.0,0.0,0.0,0.0,0.0,0.0,0.0,0.0,0.0,0.0,0.0,0.0,0.0,0.0,0.0,0.0,0.0,0.0,0.0,0.0,0.0,0.0,-0.545,-0.5163,0.0,0.0,0.0,0.0,0.0,0.0,0.0,0.0,-0.1901,0.0,0.0,0.0,0.0,0.0,0.0,0.0,0.0,0.0,0.0,0.0,0.0,0.0,0.0,0.0,0.0,0.0,0.0,0.0,0.0,0.0,0.0,0.0,0.0,0.0,0.0,0.0,0.0,0.0,0.0,0.0,0.0,0.0,0.0,0.0,0.0,0.0,0.0,0.0,0.0,0.0,0.0,0.0,0.0,0.0,0.0,0.0,0.0,0.0,0.0,0.0,0.0,0.0,0.0,0.0,0.0,-1.3262,-1.3946,-1.4744,-1.5683,-1.5664,-1.561,-1.5596,-1.485,-1.3774,-1.2346,0.0,0.0,0.0,0.0,0.0,0.0,0.0,0.0,0.0,0.0,0.0,0.0,0.0,0.0,0.0,0.0,0.0,0.0,0.0,0.0,0.0,0.0,0.0,0.0,0.0,0.0,0.0,0.0,0.0,0.0,0.0,0.0,0.0,0.0,0.0,0.0,0.0,0.0,0.0,-0.6066,-0.5339,0.0,0.0,0.0,0.0,0.0,0.0,0.0,0.0,-0.2736,0.0,0.0,0.0,0.0,0.0,0.0,0.0,0.0,0.0,0.0,0.0,0.0,0.0,0.0,0.0,0.0,0.0,0.0,0.0,0.0,0.0,0.0,0.0,0.0,0.0,0.0,0.0,0.0,0.0,0.0,0.0,0.0,0.0,0.0,0.0,0.0,0.0,0.0,0.0,0.0,0.0,0.0,0.0,0.0,0.0,0.0,0.0,0.0,0.0,0.0,0.0,0.0,0.0,0.0,0.0,-1.2628,-1.3606,-1.4474,-1.5359,-1.5298,-1.5257,-1.5228,-1.4176,-1.3096,0.0,0.0,0.0,0.0,0.0,0.0,0.0,0.0,0.0,0.0,0.0,0.0,0.0,0.0,0.0,0.0,0.0,0.0,0.0,0.0,0.0,0.0,0.0,0.0,0.0,0.0,0.0,0.0,0.0,0.0,0.0,0.0,0.0,0.0,0.0,0.0,0.0,0.0,0.0,0.0,-0.7418,-0.6683,-0.6663,0.0,0.0,0.0,0.0,0.0,0.0,-0.3264,-0.3269,0.0,0.0,0.0,0.0,0.0,0.0,0.0,0.0,0.0,0.0,0.0,0.0,0.0,0.0,0.0,0.0,0.0,0.0,0.0,0.0,0.0,0.0,0.0,0.0,0.0,0.0,0.0,0.0,0.0,0.0,0.0,0.0,0.0,0.0,0.0,0.0,0.0,0.0,0.0,0.0,0.0,0.0,0.0,0.0,0.0,0.0,0.0,0.0,0.0,0.0,0.0,0.0,0.0,0.0,0.0,-1.2056,-1.3349,-1.4482,-1.538,-1.5239,-1.5127,-1.5084,-1.3753,-1.2522,0.0,0.0,0.0,0.0,0.0,0.0,0.0,0.0,0.0,0.0,0.0,0.0,0.0,0.0,0.0,0.0,0.0,0.0,0.0,0.0,0.0,0.0,0.0,0.0,0.0,0.0,0.0,0.0,0.0,0.0,0.0,0.0,0.0,0.0,0.0,0.0,0.0,0.0,0.0,0.0,0.0,-0.8207,-0.8333,-0.7265,0.0,0.0,0.0,0.0,-0.4197,-0.3988,0.0,0.0,0.0,0.0,0.0,0.0,0.0,0.0,0.0,0.0,0.0,0.0,0.0,0.0,0.0,0.0,0.0,0.0,0.0,0.0,0.0,0.0,0.0,0.0,0.0,0.0,0.0,0.0,0.0,0.0,0.0,0.0,0.0,0.0,0.0,0.0,0.0,0.0,0.0,0.0,0.0,0.0,0.0,0.0,0.0,0.0,0.0,0.0,0.0,0.0,0.0,0.0,0.0,0.0,0.0,0.0,-1.2294,-1.3261,-1.4356,-1.5491,-1.533,-1.519,-1.5176,-1.4221,-1.3009,0.0,0.0,0.0,0.0,0.0,0.0,0.0,0.0,0.0,0.0,0.0,0.0,0.0,0.0,0.0,0.0,0.0,0.0,0.0,0.0,0.0,0.0,0.0,0.0,0.0,0.0,0.0,0.0,0.0,0.0,0.0,0.0,0.0,0.0,0.0,0.0,0.0,0.0,0.0,0.0,0.0,-0.9573,-0.8476,-0.7907,-0.7542,0.0,0.0,-0.6093,-0.6358,-0.5812,0.0,0.0,0.0,0.0,0.0,0.0,0.0,0.0,0.0,0.0,0.0,0.0,0.0,0.0,0.0,0.0,0.0,0.0,0.0,0.0,0.0,0.0,0.0,0.0,0.0,0.0,0.0,0.0,0.0,0.0,0.0,0.0,0.0,0.0,0.0,0.0,0.0,0.0,0.0,0.0,0.0,0.0,0.0,0.0,0.0,0.0,0.0,0.0,0.0,0.0,0.0,0.0,0.0,0.0,0.0,-1.058,-1.2368,-1.3529,-1.458,-1.5564,-1.5384,-1.518,-1.5022,-1.3832,-1.2367,0.0,0.0,0.0,0.0,0.0,0.0,0.0,0.0,0.0,0.0,0.0,0.0,0.0,0.0,0.0,0.0,0.0,0.0,0.0,0.0,0.0,0.0,0.0,0.0,0.0,0.0,0.0,0.0,0.0,0.0,0.0,0.0,0.0,0.0,0.0,0.0,0.0,0.0,0.0,0.0,0.0,0.0,-1.0228,-1.0032,0.0,0.0,0.0,-0.7468,-0.738,0.0,0.0,0.0,0.0,0.0,0.0,0.0,0.0,0.0,0.0,0.0,0.0,0.0,0.0,0.0,0.0,0.0,0.0,0.0,0.0,0.0,0.0,0.0,0.0,0.0,0.0,0.0,0.0,0.0,0.0,0.0,0.0,0.0,0.0,0.0,0.0,0.0,0.0,0.0,0.0,0.0,0.0,0.0,0.0,0.0,0.0,0.0,0.0,0.0,0.0,0.0,0.0,0.0,0.0,0.0,0.0,0.0,-1.2364,-1.3872,-1.4963,-1.5612,-1.5449,-1.5246,-1.5023,-1.3667,0.0,0.0,0.0,0.0,0.0,0.0,0.0,0.0,0.0,0.0,0.0,0.0,0.0,0.0,0.0,0.0,0.0,0.0,0.0,0.0,0.0,0.0,0.0,0.0,0.0,0.0,0.0,-0.4146,0.0,0.0,0.0,0.0,0.0,0.0,0.0,0.0,0.0,0.0,0.0,0.0,0.0,0.0,-1.1078,-1.167,-1.171,-1.15,0.0,0.0,-0.8631,-0.8374,-0.6976,-0.5501,0.0,0.0,0.0,0.0,0.0,0.0,0.0,0.0,0.0,0.0,0.0,0.0,0.0,0.0,0.0,0.0,0.0,0.0,0.0,0.0,0.0,0.0,0.0,0.0,0.0,0.0,0.0,0.0,0.0,0.0,0.0,0.0,0.0,0.0,0.0,0.0,0.0,0.0,0.0,0.0,0.0,0.0,0.0,0.0,0.0,0.0,0.0,0.0,0.0,0.0,0.0,0.0,0.0,0.0,0.0,-1.2342,-1.429,-1.5467,-1.5775,-1.5534,-1.5387,-1.5347,-1.4188,-1.2847,0.0,0.0,0.0,0.0,0.0,0.0,0.0,0.0,0.0,0.0,0.0,0.0,0.0,0.0,0.0,0.0,0.0,0.0,0.0,0.0,0.0,0.0,0.0,0.0,0.0,0.0,0.0,0.0,0.0,0.0,0.0,0.0,0.0,0.0,0.0,0.0,0.0,0.0,0.0,0.0,0.0,-1.2241,-1.1944,-1.2094,-1.232,0.0,0.0,-0.9446,-0.9708,-0.8252,-0.649,-0.4759,0.0,0.0,0.0,0.0,0.0,0.0,0.0,0.0,0.0,0.0,0.0,0.0,0.0,0.0,0.0,0.0,0.0,0.0,0.0,0.0,0.0,0.0,0.0,0.0,0.0,0.0,0.0,0.0,0.0,0.0,0.0,0.0,0.0,0.0,0.0,0.0,0.0,0.0,0.0,0.0,0.0,0.0,0.0,0.0,0.0,0.0,0.0,0.0,0.0,0.0,0.0,0.0,0.0,-1.1534,-1.2623,-1.4464,-1.5538,-1.5795,-1.5701,-1.5578,-1.5427,-1.4581,-1.326,0.0,0.0,0.0,0.0,0.0,0.0,0.0,0.0,0.0,0.0,0.0,0.0,0.0,0.0,0.0,0.0,0.0,0.0,0.0,0.0,0.0,0.0,0.0,0.0,0.0,0.0,0.0,0.0,-0.661,-0.6676,-0.6498,0.0,0.0,0.0,0.0,0.0,0.0,0.0,0.0,0.0,0.0,-1.22,-1.2357,-1.3041,0.0,0.0,-1.2292,-1.1491,-1.1597,-0.9429,-0.7389,-0.6277,-0.5333,0.0,0.0,0.0,0.0,0.0,0.0,0.0,0.0,0.0,0.0,0.0,0.0,0.0,0.0,0.0,0.0,0.0,0.0,0.0,0.0,0.0,0.0,0.0,0.0,0.0,0.0,0.0,0.0,0.0,0.0,0.0,0.0,0.0,0.0,0.0,0.0,0.0,0.0,0.0,0.0,0.0,0.0,0.0,0.0,0.0,0.0,0.0,0.0,0.0,0.0,0.0,0.0,-1.1832,-1.2918,-1.4732,-1.5792,-1.6061,-1.6005,-1.5872,-1.5658,-1.5003,-1.3788,0.0,0.0,0.0,0.0,0.0,0.0,0.0,0.0,0.0,0.0,0.0,0.0,0.0,0.0,0.0,0.0,0.0,0.0,0.0,0.0,0.0,0.0,0.0,0.0,0.0,0.0,0.0,0.0,-0.7508,-0.728,-0.6996,0.0,0.0,0.0,0.0,0.0,0.0,0.0,0.0,0.0,0.0,-1.2473,-1.304,-1.3804,-1.4266,-1.4165,-1.334,-1.2761,-1.281,-1.0599,-0.8611,-0.7882,0.0,0.0,0.0,0.0,0.0,0.0,0.0,0.0,0.0,0.0,0.0,0.0,0.0,0.0,0.0,0.0,0.0,0.0,0.0,0.0,0.0,0.0,0.0,0.0,0.0,0.0,0.0,0.0,0.0,0.0,-0.8852,0.0,0.0,0.0,0.0,0.0,0.0,0.0,0.0,0.0,0.0,0.0,0.0,0.0,0.0,0.0,0.0,0.0,0.0,0.0,0.0,0.0,0.0,-1.2323,-1.3207,-1.524,-1.6417,-1.666,-1.6431,-1.6284,-1.6257,-1.5441,-1.4544,-1.3526,0.0,0.0,0.0,0.0,0.0,0.0,0.0,0.0,0.0,0.0,0.0,0.0,0.0,0.0,0.0,0.0,0.0,0.0,0.0,0.0,0.0,0.0,0.0,0.0,0.0,0.0,-0.8245,-0.7723,-0.7265,0.0,0.0,0.0,0.0,0.0,0.0,0.0,0.0,0.0,0.0,-1.2723,-1.3348,-1.4052,-1.4239,-1.4401,-1.4632,-1.3643,-1.2879,-1.3118,-1.171,-1.0327,0.0,0.0,0.0,0.0,0.0,0.0,0.0,0.0,0.0,0.0,0.0,0.0,0.0,0.0,0.0,0.0,0.0,0.0,0.0,0.0,0.0,0.0,0.0,0.0,0.0,0.0,0.0,-1.3417,-1.2663,0.0,0.0,0.0,0.0,0.0,0.0,0.0,0.0,0.0,0.0,0.0,-1.4443,-1.4836,0.0,0.0,0.0,0.0,0.0,0.0,0.0,0.0,0.0,0.0,0.0,0.0,-1.2912,-1.4384,-1.5842,-1.67,-1.7006,-1.6739,-1.6567,-1.6553,-1.5899,-1.4687,-1.2924,0.0,0.0,0.0,0.0,0.0,0.0,0.0,0.0,0.0,0.0,0.0,0.0,0.0,0.0,0.0,0.0,0.0,0.0,0.0,0.0,0.0,0.0,0.0,0.0,0.0,-0.9289,0.0,0.0,0.0,0.0,0.0,0.0,0.0,0.0,0.0,0.0,0.0,-1.1616,-1.2276,-1.3051,-1.3696,-1.4127,-1.4511,-1.4773,0.0,0.0,0.0,0.0,0.0,0.0,0.0,0.0,0.0,0.0,0.0,0.0,0.0,0.0,-0.7905,-0.5115,-0.4436,-0.4353,-0.4495,0.0,0.0,0.0,0.0,0.0,0.0,0.0,0.0,0.0,0.0,0.0,0.0,0.0,0.0,-1.5996,0.0,-1.4906,0.0,0.0,0.0,0.0,0.0,0.0,0.0,0.0,-1.5462,-1.6135,-1.6493,-1.69,-1.675,0.0,-1.5353,-1.3801,0.0,0.0,0.0,0.0,0.0,0.0,0.0,0.0,-1.3801,-1.5267,-1.6526,-1.7315,-1.7635,-1.7328,-1.7142,-1.7142,-1.6475,-1.5282,-1.356,-1.2635,-1.1511,0.0,0.0,0.0,0.0,0.0,0.0,0.0,0.0,0.0,0.0,0.0,0.0,0.0,0.0,0.0,0.0,0.0,0.0,0.0,0.0,0.0,0.0,0.0,-1.039,0.0,0.0,0.0,0.0,0.0,0.0,0.0,0.0,0.0,-1.2521,-1.2938,-1.3428,-1.359,-1.3998,-1.4347,-1.4508,0.0,0.0,0.0,0.0,0.0,0.0,0.0,-1.3356,-1.385,-1.2991,-1.2334,-1.2623,-1.277,-1.2781,-1.2604,0.0,0.0,-0.7423,-0.6349,-0.6008,-0.6082,-0.6059,-0.6042,-0.6065,-0.6565,-0.6874,0.0,0.0,0.0,0.0,0.0,0.0,0.0,0.0,-1.7977,-1.7923,0.0,-1.7244,0.0,0.0,0.0,0.0,0.0,-1.592,0.0,0.0,-1.8549,-1.9237,-1.8753,-1.8698,-1.8475,-1.8004,-1.8173,-1.7438,-1.5759,-1.2521,0.0,0.0,0.0,0.0,0.0,0.0,-1.5008,-1.5941,-1.7342,-1.8196,-1.8517,-1.8209,-1.8022,-1.7982,-1.7182,-1.6315,-1.5484,-1.4861,-1.3839,-1.2273,-1.0864,0.0,0.0,0.0,0.0,0.0,0.0,0.0,0.0,0.0,0.0,0.0,0.0,0.0,0.0,0.0,0.0,0.0,0.0,0.0,0.0,-1.1902,0.0,0.0,0.0,0.0,0.0,0.0,0.0,0.0,0.0,0.0,-1.5545,-1.6056,-1.6394,-1.5959,0.0,0.0,0.0,0.0,-1.5703,-1.5725,-1.5726,-1.5671,-1.5488,-1.5143,-1.4795,-1.4392,0.0,0.0,-1.3719,-1.3809,-1.3723,-1.2689,-1.2798,-1.2484,-1.1179,-0.9742,-0.8809,-0.8716,-0.8586,-0.86,-0.8676,-0.8602,-0.8763,-2.1426,0.0,0.0,0.0,0.0,-1.9776,-2.0456,-2.1568,-2.1154,-2.0654,-2.0093,-1.9557,0.0,0.0,0.0,0.0,0.0,0.0,-1.8155,-1.8652,-1.9431,-1.9817,-1.982,-1.9854,-1.9672,-1.9314,-1.9,-1.8752,-1.8438,-1.6732,-1.4798,-1.2698,0.0,0.0,0.0,0.0,-1.6702,-1.7956,-1.8664,-1.916,-1.9441,-1.9145,-1.8784,-1.837,-1.7876,-1.7341,-1.6698,-1.6286,-1.5584,-1.4493,-1.3062,0.0,0.0,0.0,0.0,0.0,0.0,0.0,0.0,0.0,0.0,0.0,0.0,0.0,0.0,0.0,0.0,0.0,0.0,0.0,-1.2406,-1.3302,-1.3739,0.0,0.0,0.0,0.0,0.0,0.0,0.0,0.0,0.0,-1.9767,-1.8574,-1.7488,0.0,0.0,-1.6578,-1.5872,-1.5861,-1.6052,-1.6358,-1.6409,0.0,0.0,-1.6092,-1.5998,-1.6286,-1.6619,-1.6716,-1.6443,-1.6362,-1.6276,-1.6056,-1.5386,-1.469,-1.4421,-1.2682,-1.1162,-1.0568,-1.0208,-0.9771,-0.9224,-0.9232,-0.9372,-2.4342,-2.2693,-2.1498,-2.1293,-2.1716,-2.1667,-2.226,-2.3188,-2.2874,-2.2573,-2.2283,-2.1692,-2.0434,-1.8722,-1.836,0.0,0.0,0.0,-1.9842,-2.0301,-2.0579,-2.0702,-2.0785,-2.0797,-2.0591,-2.0217,-2.0023,-1.992,-1.9893,-1.9336,-1.7925,-1.5761,0.0,0.0,-1.5928,-1.6995,-1.8076,-1.9065,-1.9506,-1.98,-1.9943,-1.98,-1.9492,-1.9025,-1.881,-1.8464,-1.7903,-1.7595,-1.7114,-1.6435,-1.5018,-1.3673,0.0,0.0,0.0,0.0,0.0,0.0,0.0,0.0,0.0,0.0,0.0,-0.8751,-0.8192,0.0,0.0,0.0,-1.2025,-1.3454,-1.4365,-1.5402,0.0,0.0,0.0,0.0,0.0,0.0,0.0,-1.9057,-2.0756,-2.2008,-2.2358,-2.1228,-1.999,-1.9063,-1.8964,-1.8707,-1.7945,0.0,-1.7946,-1.7674,-1.7612,-1.7418,-1.6903,-1.6686,-1.6713,-1.7061,-1.7232,-1.7403,-1.7562,-1.747,-1.7433,-1.7467,-1.6931,-1.6413,-1.6458,-1.5124,-1.3634,-1.2351,-1.1515,-1.0818,-0.9997,-0.9629,-0.9429,-2.6656,-2.6439,-2.4033,-2.3022,-2.2997,-2.3227,-2.3481,-2.3631,-2.3619,-2.386,-2.4222,-2.3554,-2.2768,-2.1921,-2.0714,0.0,-2.0567,-2.1353,-2.168,-2.1655,-2.1885,-2.1849,-2.1583,-2.1559,-2.1268,-2.0761,-2.1073,-2.0987,-2.0605,-2.0656,-2.0466,-1.9937,-1.8706,-1.8123,-1.8209,-1.877,-1.921,-1.9575,-2.0054,-2.0277,-2.0277,-2.025,-2.0134,-1.988,-1.9826,-1.9519,-1.8943,-1.8677,-1.837,-1.7969,-1.6663,-1.5685,-1.5062,0.0,0.0,0.0,0.0,0.0,0.0,0.0,0.0,0.0,0.0,0.0,0.0,0.0,0.0,0.0,-1.4783,0.0,-1.6786,-1.7764,0.0,0.0,0.0,-1.7916,-1.8686,-2.0035,-2.1175,-2.1847,0.0,0.0,-2.3749,-2.3764,-2.3356,-2.2197,-2.1632,-2.1207,-2.0876,-2.0978,-2.077,-1.9427,-1.9215,-1.8804,-1.7826,-1.7434,-1.7228,-1.7098,-1.7044,-1.7206,-1.7466,-1.7531,-1.756,-1.7584,-1.7601,-1.7556,-1.7411,-1.7001,-1.627,-1.4317,-1.295,-1.1861,-1.1203,-1.0232,-0.9526,-2.7232,-2.7114,-2.6339,-2.5747,-2.5385,-2.5433,-2.5494,-2.5499,-2.5306,-2.5186,-2.5065,-2.4475,-2.3735,-2.2792,-2.2645,-2.2524,-2.2453,-2.3007,-2.3137,-2.2932,-2.2864,-2.2562,-2.2115,-2.1909,-2.1643,-2.1329,-2.1388,-2.1648,-2.2029,-2.1896,-2.1914,-2.2085,-2.1559,-2.0766,-1.9743,-2.0264,-2.0735,-2.106,-2.0949,-2.0909,-2.0895,-2.0681,-2.0535,-2.0468,-2.004,-1.9626,-1.9294,-1.8971,-1.8556,-1.8009,-1.7449,-1.67,-1.5635,-1.4573,0.0,0.0,0.0,0.0,0.0,0.0,0.0,0.0,0.0,-1.3166,-1.1356,0.0,-1.4384,0.0,-1.6069,-1.734,-1.7872,-1.8565,0.0,0.0,-2.032,-2.0925,-2.252,-2.2828,-2.3164,-2.384,-2.4583,-2.5066,-2.5066,-2.5286,-2.5349,-2.4973,-2.3579,-2.2385,-2.1789,-2.1778,-2.1667,-2.1318,-2.1204,-2.1002,-2.0358,-1.9485,-1.8503,-1.7478,-1.7465,-1.7584,-1.765,-1.765,-1.7662,-1.7674,-1.7663,-1.7741,-1.795,-1.7806,-1.7411,-1.6626,-1.5278,-1.3895,-1.2976,-1.1721,-1.0763,-2.8065,-2.7944,-2.7753,-2.7307,-2.6692,-2.6463,-2.6367,-2.6343,-2.6078,-2.5873,-2.5747,-2.5216,-2.4528,-2.378,-2.3872,-2.3848,-2.3808,-2.3937,-2.3836,-2.3583,-2.3357,-2.2985,-2.2478,-2.232,-2.2054,-2.1692,-2.1837,-2.2126,-2.2576,-2.2473,-2.2728,-2.326,-2.2966,-2.2318,-2.1443,-2.147,-2.159,-2.1783,-2.1577,-2.1496,-2.1496,-2.1248,-2.1034,-2.0869,-2.0428,-1.9963,-1.9415,-1.9687,-1.9459,-1.8711,-1.8866,-1.8618,-1.7838,-1.6621,-1.5509,0.0,0.0,0.0,0.0,0.0,0.0,0.0,0.0,0.0,0.0,0.0,-1.6177,-1.6712,-1.8077,-1.9259,-2.0127,-2.0891,-2.1767,-2.2839,-2.3024,-2.3603,-2.4818,-2.492,-2.5081,-2.5613,-2.5842,-2.5924,-2.5959,-2.5988,-2.6076,-2.6208,-2.5267,-2.4385,-2.3907,-2.3878,-2.3792,-2.3134,-2.3037,-2.2675,-2.1906,-2.1012,-2.025,-1.9674,-1.9198,-1.8944,-1.908,-1.8661,-1.8291,-1.8218,-1.811,-1.8037,-1.811,-1.7959,-1.7774,-1.75,-1.6826,-1.5633,-1.4153,-1.237,-1.1041,-2.885,-2.862,-2.856,-2.8149,-2.7534,-2.6933,-2.6692,-2.668,-2.6427,-2.6295,-2.6198,-2.568,-2.5162,-2.4704,-2.4692,-2.4668,-2.462,-2.4403,-2.415,-2.3897,-2.3595,-2.3198,-2.2792,-2.2719,-2.2453,-2.2055,-2.2264,-2.2482,-2.2713,-2.2756,-2.3147,-2.3808,-2.3567,-2.3287,-2.3,-2.2505,-2.2124,-2.197,-2.1957,-2.1984,-2.201,-2.1729,-2.1462,-2.1176,-2.0806,-2.0291,-1.9728,-2.0558,-2.0694,-1.9981,-2.0641,-2.0933,-2.0598,-1.8968,-1.8234,0.0,-1.6433,0.0,0.0,0.0,0.0,0.0,0.0,0.0,0.0,-1.7675,-1.8264,-1.9239,-2.0388,-2.1569,-2.267,-2.3563,-2.4354,-2.4984,-2.5391,-2.5711,-2.5987,-2.6343,-2.6721,-2.7013,-2.683,-2.6691,-2.6691,-2.6442,-2.6383,-2.664,-2.6633,-2.643,-2.6283,-2.6284,-2.5948,-2.481,-2.462,-2.4047,-2.2819,-2.2228,-2.2025,-2.2017,-2.1013,-2.0544,-2.0603,-1.9762,-1.8968,-1.8799,-1.8627,-1.8466,-1.8261,-1.8013,-1.7819,-1.7809,-1.7655,-1.6969,-1.527,-1.323,-1.1375,-2.8789,-2.8825,-2.8234,-2.8078,-2.8331,-2.7548,-2.7268,-2.7222,-2.7174,-2.6954,-2.6475,-2.5945,-2.5535,-2.5246,-2.5246,-2.5126,-2.4921,-2.4873,-2.4704,-2.4415,-2.3957,-2.3571,-2.3246,-2.2862,-2.2673,-2.2526,-2.2395,-2.2645,-2.3262,-2.3272,-2.3559,-2.4128,-2.4062,-2.3888,-2.3643,0.0,0.0,0.0,-2.1662,-2.1783,-2.1964,-2.1729,-2.1588,-2.1475,-2.0494,0.0,-2.0985,-2.1162,-2.1463,-2.1924,-2.2692,0.0,0.0,0.0,0.0,0.0,0.0,0.0,0.0,0.0,0.0,0.0,-2.203,-2.0442,-1.8535,-2.0187,-2.1416,-2.1443,-2.2485,-2.3303,-2.355,-2.4162,-2.4622,-2.4792,-2.5553,-2.6101,-2.6171,-2.676,-2.7176,-2.7219,-2.7438,-2.7634,-2.759,-2.7575,-2.7546,-2.7561,-2.7634,-2.7619,-2.7517,-2.7159,-2.6706,-2.6185,-2.5818,-2.5165,-2.385,-2.3771,-2.334,-2.2267,-2.1187,-2.0592,-2.038,-1.9575,-1.89,-1.8846,-1.8871,-1.8957,-1.8903,-1.857,-1.8248,-1.8258,-1.7958,-1.7568,-1.712,-1.5793,-1.4289,-2.9006,0.0,-2.8439,-2.8222,0.0,-2.7787,-2.7534,-2.7413,-2.7235,-2.6957,-2.6572,-2.6162,-2.5825,-2.5584,-2.5451,-2.5318,-2.5186,-2.5065,-2.4933,-2.4764,-2.4246,-2.386,-2.3595,-2.3198,-2.301,-2.2877,-2.2744,-2.2989,-2.358,-2.3617,-2.3874,-2.4372,-2.4386,-2.4195,-2.3803,-2.3509,-2.3054,-2.2432,-2.2432,-2.2787,-2.3395,-2.2489,-2.2203,-2.2584,0.0,0.0,0.0,0.0,0.0,0.0,0.0,0.0,0.0,0.0,0.0,-2.4647,-2.3524,-2.3252,-2.4078,-2.4204,-2.4822,-2.6104,-2.5504,-2.3836,-2.0904,-2.2405,-2.3514,-2.3527,-2.4231,-2.4764,-2.5097,-2.5432,-2.5664,-2.5878,-2.6478,-2.6871,-2.6909,-2.7101,-2.7272,-2.7423,-2.7516,-2.7595,-2.7609,-2.7798,-2.7874,-2.7911,-2.7911,-2.7911,-2.7882,-2.7648,-2.7305,-2.6822,-2.6471,-2.5973,-2.5198,-2.4924,-2.4827,-2.3941,-2.2972,-2.2077,-2.1564,-2.066,-1.9882,-1.9456,-1.9327,-1.929,-1.9247,-1.8892,-1.8638,-1.8678,-1.8366,-1.8097,-1.8116,-1.6864,-1.5189,-2.9212,-2.8982,-2.8681,-2.8318,-2.7944,-2.7848,-2.7667,-2.7355,0.0,0.0,0.0,-2.6367,-2.6102,-2.5837,-2.5632,-2.5487,-2.5379,-2.5222,-2.509,-2.4981,-2.4499,-2.4125,-2.386,-2.3559,-2.3333,-2.3155,-2.3106,-2.3346,-2.3858,-2.3896,-2.4197,-2.4698,-2.4746,-2.4529,-2.4031,-2.3447,-2.3273,-2.346,-2.3612,-2.4178,-2.5115,-2.3986,-2.3724,-2.4426,-2.2825,-2.2243,-2.2808,-2.3639,-2.4416,-2.512,-2.6244,-2.6995,-2.7187,-2.6725,-2.734,-2.9143,-2.794,-2.7599,-2.8776,-2.8943,-2.8931,-2.8817,-2.8279,-2.6627,-2.355,-2.4289,-2.505,-2.5329,-2.5625,-2.6035,-2.659,-2.6602,-2.6719,-2.7086,-2.7331,-2.7442,-2.7537,-2.7435,-2.7432,-2.7611,-2.7534,-2.7473,-2.7631,-2.7802,-2.7996,-2.8087,-2.8131,-2.8087,-2.8057,-2.797,-2.7692,-2.7261,-2.6925,-2.6588,-2.6289,-2.5991,-2.59,-2.5836,-2.4771,-2.3762,-2.2934,-2.1946,-2.0925,-1.9858,-1.9676,-1.9585,-1.9531,-1.9219,-1.8993,-1.914,-1.8839,-1.8581,-1.8638,-1.7479,-1.5769,-2.9043,-2.897,-2.8475,-2.8355,-2.8475,-2.8005,-2.7667,-2.7425,-2.7377,-2.7174,-2.6921,-2.6656,-2.6379,-2.6158,-2.6122,-2.5825,-2.5415,-2.5596,-2.5439,-2.4993,-2.468,-2.4391,-2.4113,-2.3643,-2.339,-2.3342,-2.3191,-2.3482,-2.415,-2.4214,-2.4623,-2.527,-2.5384,-2.5211,-2.4927,-2.4556,-2.4289,-2.4111,-2.4876,-2.5455,-2.5868,-2.6706,-2.7201,-2.7261,-2.5944,-2.5779,-2.6756,-2.6725,-2.7237,-2.8326,-2.9483,-2.9984,-2.9727,-3.0164,-3.0706,-3.0984,-3.0088,-2.9848,-3.0668,-3.1752,-3.2711,-3.3361,-3.2053,-2.9351,-2.5252,-2.5611,-2.6159,-2.6226,-2.6667,-2.7081,-2.7149,-2.6921,-2.6894,-2.7203,-2.7082,-2.7015,-2.7338,-2.7594,-2.7783,-2.7838,-2.7937,-2.8083,-2.8289,-2.8314,-2.8336,-2.8623,-2.8666,-2.8739,-2.8681,-2.8247,-2.7926,-2.7765,-2.7554,-2.7349,-2.7144,-2.702,-2.6691,-2.6457,-2.5491,-2.4269,-2.297,-2.2068,-2.1084,-1.9787,-1.9774,-1.9849,-1.9838,-1.9623,-1.9456,-1.9478,-1.9226,-1.9043,-1.9107,-1.8632,-1.744,-2.8753,-2.8753,-2.8367,-2.8282,-2.8367,-2.798,-2.7667,-2.7425,-2.7425,-2.7222,-2.6969,-2.6704,-2.6524,-2.6391,-2.6246,-2.5969,-2.5608,-2.5728,-2.5584,-2.521,-2.4945,-2.4752,-2.4607,-2.4234,-2.3981,-2.3836,-2.3744,-2.3854,-2.4104,-2.4118,-2.4508,-2.5148,-2.5403,-2.5438,-2.5317,-2.5146,-2.505,-2.4903,-2.4878,-2.5208,-2.5924,-2.5758,-2.6433,-2.8034,-2.5819,-2.5616,-2.7835,-2.6664,-2.6584,-2.7968,-2.9431,-3.0233,-3.0301,-3.1577,-3.257,-3.2957,-3.2811,-3.2965,-3.3483,-3.4501,-3.502,-3.4766,-3.4004,-3.2323,-2.935,-2.788,-2.7028,-2.6934,-2.7162,-2.7309,-2.7309,-2.7148,-2.7121,-2.7296,-2.7268,-2.7348,-2.7496,-2.7512,-2.7621,-2.777,-2.7893,-2.8024,-2.8057,-2.8315,-2.85,-2.8607,-2.8744,-2.9003,-2.9325,-2.8871,-2.8291,-2.7984,-2.778,-2.7671,-2.7525,-2.7364,-2.7203,-2.7056,-2.6481,-2.529,-2.3713,-2.2831,-2.197,-2.0494,-2.0205,-2.0259,-2.0259,-2.0048,-1.9962,-2.0027,-1.9758,-1.9607,-1.9597,-1.8955,-1.7233,-2.8572,-2.8548,-2.8391,-2.8294,-2.827,-2.8017,-2.7787,-2.7594,-2.7534,-2.7343,-2.7138,-2.6825,-2.6644,-2.6572,-2.6427,-2.615,-2.5825,-2.5909,-2.5788,-2.5475,-2.521,-2.509,-2.5053,-2.4752,-2.4475,-2.4294,-2.4222,-2.4182,-2.4187,-2.4128,-2.445,-2.5062,-2.5459,-2.5611,-2.5611,-2.5611,-2.5611,-2.5571,-2.501,-2.5235,-2.6249,-2.5569,-2.6377,-2.8279,-2.6161,-2.5906,-2.8208,-2.6709,-2.6478,-2.8063,-2.9119,-3.0139,-3.1218,-3.2451,-3.3688,-3.4681,-3.5174,-3.5614,-3.609,-3.6603,-3.6638,-3.5865,-3.5344,-3.4581,-3.3224,-3.0654,-2.8689,-2.8112,-2.7716,-2.7523,-2.7523,-2.7443,-2.7403,-2.7416,-2.767,-2.7776,-2.7776,-2.7642,-2.7724,-2.7951,-2.7932,-2.7812,-2.781,-2.8113,-2.8301,-2.8229,-2.8567,-2.9089,-2.9395,-2.9158,-2.8783,-2.8306,-2.8072,-2.7955,-2.773,-2.7627,-2.7583,-2.7583,-2.7045,-2.5824,-2.436,-2.3669,-2.2728,-2.1013,-2.0561,-2.0561,-2.0572,-2.0414,-2.0361,-2.0464,-2.0248,-2.0108,-2.0161,-1.9319,-1.7397,-2.8572,-2.8572,-2.8584,-2.8584,-2.85,-2.8282,-2.8137,-2.8077,-2.7884,-2.7775,-2.7642,-2.7174,-2.6825,-2.6644,-2.6813,-2.6487,-2.5873,-2.6295,-2.6234,-2.5752,-2.5475,-2.5367,-2.5331,-2.4849,-2.4571,-2.4535,-2.4342,-2.4466,-2.4709,-2.4579,-2.488,-2.5648,-2.5896,-2.5971,-2.5971,-2.5971,-2.5971,-2.5971,-2.6092,-2.668,-2.7623,-2.8871,-2.9649,-2.9892,-2.9216,-2.906,-2.9304,-2.884,-2.9237,-3.0755,-2.9968,-3.0866,-3.3428,-3.3494,-3.4037,-3.5777,-3.6346,-3.6951,-3.7668,-3.7482,-3.7588,-3.8068,-3.6456,-3.5532,-3.5542,-3.3953,-3.2063,-3.046,-2.8925,-2.8199,-2.8085,-2.7844,-2.7642,-2.7669,-2.7965,-2.8138,-2.8165,-2.8379,-2.8591,-2.8841,-2.8165,-2.7808,-2.8085,-2.7892,-2.7693,-2.7852,-2.8335,-2.8741,-2.8766,-2.8989,-2.9139,-2.8803,-2.854,-2.8364,-2.8262,-2.8043,-2.7941,-2.7821,-2.6895,-2.5742,-2.4585,-2.329,-2.2024,-2.1172,-2.0658,-2.068,-2.0658,-2.0572,-2.0565,-2.068,-2.0615,-2.055,-2.0572,-2.0305,-1.8894,-2.8572,-2.8572,-2.8572,-2.8572,-2.8608,-2.85,-2.8355,-2.8186,-2.792,-2.7727,-2.7582,-2.751,-2.7307,-2.7054,-2.7006,-2.6716,-2.6295,-2.6499,-2.6391,-2.6029,-2.594,-2.5861,-2.588,-2.5687,-2.5379,-2.5077,-2.4957,-2.4823,-2.4792,-2.489,-2.5288,-2.5897,-2.6184,-2.6493,-2.6734,-2.6774,-2.6774,-2.6774,-2.6894,-2.7134,-2.7457,-2.7604,-2.8233,-2.913,-2.8154,-2.8195,-2.9275,-2.8229,-2.7826,-2.8635,-2.9075,-2.9992,-3.1307,-3.2173,-3.2978,-3.384,-3.5206,-3.667,-3.8268,-3.8197,-3.8252,-3.8582,-3.7802,-3.7369,-3.7414,-3.5971,-3.4636,-3.3829,-3.1246,-2.9063,-2.8133,-2.7762,-2.7762,-2.7991,-2.823,-2.8417,-2.8417,-2.8524,-2.8671,-2.8724,-2.831,-2.8047,-2.8106,-2.7799,-2.7752,-2.8043,-2.838,-2.8445,-2.8698,-2.8919,-2.8889,-2.8892,-2.8919,-2.8915,-2.8739,-2.8608,-2.8505,-2.826,-2.741,-2.6194,-2.4918,-2.3687,-2.2434,-2.1203,-2.1032,-2.0993,-2.1007,-2.1025,-2.1025,-2.1025,-2.1025,-2.1025,-2.1025,-2.0867,-1.9323,-2.8572,-2.8572,-2.8572,-2.8572,-2.8572,-2.8572,-2.8512,-2.8318,-2.8113,-2.7884,-2.7667,-2.7763,-2.7703,-2.7522,-2.7283,-2.6981,-2.6632,-2.6668,-2.6512,-2.6198,-2.6174,-2.6174,-2.6174,-2.609,-2.5953,-2.5632,-2.5451,-2.5102,-2.4727,-2.505,-2.5462,-2.5846,-2.6339,-2.6777,-2.7118,-2.7294,-2.7429,-2.7429,-2.7496,-2.751,-2.7349,-2.68,-2.7127,-2.8185,-2.7124,-2.7197,-2.8878,-2.7483,-2.696,-2.7592,-2.8354,-2.9192,-3.0091,-3.1149,-3.2124,-3.3153,-3.4196,-3.596,-3.8383,-3.8145,-3.8105,-3.8521,-3.86,-3.8655,-3.8511,-3.7503,-3.6708,-3.6171,-3.3258,-3.0507,-2.9008,-2.831,-2.811,-2.8219,-2.8484,-2.8698,-2.8617,-2.8604,-2.8644,-2.8671,-2.8433,-2.8181,-2.8033,-2.7702,-2.7648,-2.8014,-2.8162,-2.8256,-2.87,-2.8855,-2.9005,-2.8945,-2.9218,-2.9222,-2.8973,-2.8959,-2.8988,-2.8495,-2.7577,-2.603,-2.5052,-2.3856,-2.2614,-2.1256,-2.1284,-2.1305,-2.1251,-2.1284,-2.1394,-2.1478,-2.1456,-2.1402,-2.134,-2.1168,-1.9856,-2.8572,-2.8572,-2.8572,-2.8572,-2.8572,-2.8572,-2.862,-2.8572,-2.856,-2.8403,-2.8113,-2.7932,-2.7811,-2.7787,-2.7775,-2.7365,-2.6716,-2.6861,-2.6749,-2.6258,-2.621,-2.6186,-2.6194,-2.5965,-2.5977,-2.6066,-2.5704,-2.521,-2.4721,-2.5099,-2.5298,-2.5417,-2.6223,-2.6637,-2.6772,-2.7312,-2.7641,-2.7667,-2.7923,-2.8005,-2.7722,-2.7642,-2.7551,-2.7513,-2.7283,-2.7323,-2.7486,-2.7336,-2.792,-2.9471,-2.8219,-2.8813,-3.145,-3.0936,-3.1889,-3.4892,-3.4229,-3.4968,-3.7667,-3.7072,-3.6872,-3.8261,-3.8576,-3.8747,-3.9003,-3.8402,-3.7623,-3.6665,-3.4302,-3.2298,-3.1082,-2.9502,-2.87,-2.8366,-2.8698,-2.8801,-2.8671,-2.8671,-2.8695,-2.8828,-2.8564,-2.8165,-2.7789,-2.7496,-2.7404,-2.758,-2.7948,-2.829,-2.8194,-2.8905,-2.9231,-2.9122,-2.9159,-2.9306,-2.9003,-2.9017,-2.913,-2.8675,-2.7305,-2.5382,-2.4347,-2.3348,-2.2194,-2.1367,-2.1359,-2.134,-2.1381,-2.1459,-2.1653,-2.1717,-2.1663,-2.162,-2.1609,-2.1416,-2.0334,-2.8572,-2.8572,-2.8572,-2.8572,-2.8572,-2.8572,-2.8572,-2.8608,-2.8427,-2.8306,-2.8234,-2.8282,-2.8137,-2.7824,-2.8174,-2.7849,-2.715,-2.7232,-2.7087,-2.6716,-2.6692,-2.6737,-2.6725,-2.6596,-2.6487,-2.6415,-2.6246,-2.5969,-2.5687,-2.5823,-2.6038,-2.6339,-2.6652,-2.6863,-2.7021,-2.7229,-2.7458,-2.7554,-2.7688,-2.7894,-2.8214,-2.8283,-2.8217,-2.811,-2.7749,-2.767,-2.7871,-2.7871,-2.8149,-2.8717,-2.8149,-2.8399,-2.9421,-2.9229,-3.0034,-3.2232,-3.2098,-3.285,-3.5145,-3.5831,-3.6316,-3.72,-3.8365,-3.885,-3.8657,-3.7931,-3.7108,-3.6222,-3.3701,-3.1867,-3.1227,-2.9785,-2.8831,-2.8991,-2.9018,-2.9028,-2.9112,-2.9018,-2.8948,-2.9192,-2.8951,-2.8484,-2.7869,-2.7602,-2.7549,-2.759,-2.7808,-2.789,-2.7933,-2.8386,-2.8729,-2.8392,-2.875,-2.9102,-2.8567,-2.8856,-2.8924,-2.8514,-2.7516,-2.6136,-2.4998,-2.3612,-2.2418,-2.1503,-2.1373,-2.1502,-2.1545,-2.1717,-2.1911,-2.1943,-2.1889,-2.1868,-2.1857,-2.1706,-2.0879,-2.8572,-2.8572,-2.8572,-2.8572,-2.8572,-2.8572,-2.8572,-2.8596,-2.8427,-2.8294,-2.8258,-2.8403,-2.827,-2.8029,-2.8318,-2.821,-2.7679,-2.751,-2.7186,-2.6873,-2.6861,-2.6861,-2.6861,-2.6861,-2.6813,-2.6716,-2.6632,-2.6451,-2.621,-2.6174,-2.6394,-2.6614,-2.6802,-2.6916,-2.7007,-2.7205,-2.7349,-2.7323,-2.7571,-2.7997,-2.836,-2.8612,-2.8751,-2.8671,-2.8243,-2.8072,-2.8192,-2.8192,-2.8192,-2.8192,-2.8286,-2.8379,-2.8417,-2.8473,-2.9225,-3.0759,-3.0521,-3.1292,-3.3416,-3.4331,-3.4867,-3.5657,-3.7369,-3.8428,-3.824,-3.7247,-3.6751,-3.5997,-3.3427,-3.1285,-3.112,-2.9924,-2.9062,-2.9259,-2.9028,-2.9072,-2.9392,-2.9081,-2.9005,-2.9085,-2.8978,-2.8537,-2.8016,-2.7869,-2.7884,-2.7884,-2.7843,-2.7884,-2.7926,-2.8163,-2.8372,-2.8044,-2.8643,-2.8936,-2.8702,-2.8787,-2.884,-2.845,-2.7392,-2.6255,-2.5192,-2.3816,-2.2711,-2.1823,-2.1513,-2.1663,-2.1825,-2.1997,-2.2083,-2.219,-2.2126,-2.2105,-2.2062,-2.2019,-2.1337,-2.8572,-2.8572,-2.8572,-2.8596,-2.8608,-2.8632,-2.8584,-2.8644,-2.856,-2.8451,-2.8282,-2.8246,-2.827,-2.8222,-2.8282,-2.821,-2.8065,-2.7691,-2.721,-2.6789,-2.6704,-2.6692,-2.6704,-2.6728,-2.6813,-2.6933,-2.674,-2.6487,-2.6258,-2.6258,-2.6303,-2.6355,-2.6756,-2.6821,-2.6519,-2.7115,-2.7281,-2.7106,-2.7676,-2.8078,-2.8038,-2.8595,-2.8958,-2.8975,-2.8751,-2.8484,-2.8245,-2.8205,-2.8192,-2.8219,-2.843,-2.8695,-2.8881,-2.8921,-2.9758,-3.0823,-2.9975,-3.0681,-3.296,-3.2553,-3.2734,-3.3877,-3.5875,-3.7161,-3.7212,-3.6656,-3.6246,-3.5767,-3.3305,-3.1148,-3.1167,-3.0168,-2.9312,-2.9055,-2.8895,-2.9005,-2.9272,-2.9005,-2.8631,-2.8711,-2.8711,-2.8497,-2.8286,-2.8138,-2.8125,-2.8125,-2.8125,-2.8125,-2.8154,-2.8406,-2.8699,-2.8631,-2.8372,-2.8044,-2.8411,-2.8718,-2.8653,-2.8325,-2.6959,-2.5757,-2.4879,-2.3685,-2.2717,-2.1848,-2.1739,-2.19,-2.2169,-2.232,-2.2385,-2.2428,-2.2385,-2.2331,-2.2309,-2.2277,-2.2245,-2.8572,-2.8572,-2.8572,-2.8681,-2.885,-2.8705,-2.8717,-2.8813,-2.8705,-2.8524,-2.85,-2.85,-2.85,-2.8487,-2.844,-2.8391,-2.8198,-2.8017,-2.7763,-2.7461,-2.721,-2.7126,-2.7126,-2.7126,-2.7078,-2.7018,-2.709,-2.6994,-2.6822,-2.6728,-2.6773,-2.6818,-2.6908,-2.6819,-2.6608,-2.6815,-2.6844,-2.6922,-2.7184,-2.7661,-2.839,-2.8701,-2.8974,-2.9295,-2.9259,-2.9072,-2.8764,-2.8406,-2.8192,-2.8205,-2.8486,-2.8695,-2.8935,-2.9001,-2.9292,-2.9683,-2.9379,-2.9373,-3.0632,-3.144,-3.1913,-3.283,-3.4449,-3.5352,-3.5245,-3.4397,-3.3657,-3.3145,-3.1008,-2.9692,-2.9537,-2.9382,-2.9312,-2.9562,-2.9392,-2.9325,-2.9646,-2.9593,-2.9325,-2.8935,-2.8868,-2.8684,-2.8339,-2.8192,-2.8205,-2.8192,-2.8192,-2.8192,-2.8221,-2.8305,-2.8239,-2.8078,-2.7501,-2.6895,-2.6959,-2.6527,-2.5942,-2.633,-2.5747,-2.5273,-2.4448,-2.3668,-2.2687,-2.2181,-2.207,-2.2159,-2.2428,-2.2568,-2.26,-2.2632,-2.2568,-2.2546,-2.2557,-2.2525,-2.2471,-2.8572,-2.8632,-2.8681,-2.8862,-2.9006,-2.8873,-2.8958,-2.9115,-2.8874,-2.8777,-2.8753,-2.8669,-2.8572,-2.8572,-2.8572,-2.8524,-2.8355,-2.8258,-2.8174,-2.8053,-2.7715,-2.757,-2.7524,-2.757,-2.7451,-2.7377,-2.7486,-2.7486,-2.7329,-2.7271,-2.728,-2.715,-2.7126,-2.6979,-2.6656,-2.668,-2.675,-2.67,-2.7031,-2.7624,-2.841,-2.8767,-2.9144,-2.9531,-2.9539,-2.9392,-2.9179,-2.8738,-2.8513,-2.8524,-2.8764,-2.9058,-2.9282,-2.9335,-2.9322,-2.9322,-2.9322,-2.9419,-2.9591,-3.0491,-3.1047,-3.1452,-3.2934,-3.396,-3.3619,-3.2818,-3.2236,-3.167,-3.0368,-2.9242,-2.9222,-2.9245,-2.9579,-3.002,-2.97,-2.9646,-2.9847,-2.9913,-2.9713,-2.9339,-2.9205,-2.8898,-2.854,-2.8353,-2.8299,-2.8232,-2.8192,-2.8192,-2.8192,-2.8192,-2.8045,-2.7574,-2.6709,-2.6062,-2.5369,-2.4401,-2.3211,-2.3737,-2.4306,-2.4299,-2.4028,-2.3337,-2.2525,-2.2326,-2.2191,-2.2309,-2.2546,-2.2622,-2.2665,-2.2686,-2.2686,-2.2665,-2.2632,-2.2643,-2.2611,-2.862,-2.8632,-2.8922,-2.9055,-2.9115,-2.9284,-2.9381,-2.9381,-2.9151,-2.9019,-2.8958,-2.8777,-2.8596,-2.8584,-2.8572,-2.856,-2.8524,-2.8379,-2.8379,-2.8343,-2.8078,-2.7884,-2.7836,-2.7836,-2.7787,-2.7751,-2.7799,-2.7799,-2.7715,-2.7679,-2.7667,-2.7413,-2.7283,-2.7138,-2.6813,-2.6885,-2.6798,-2.6609,-2.7178,-2.7713,-2.8086,-2.868,-2.9246,-2.9649,-2.9482,-2.9375,-2.9393,-2.9308,-2.9121,-2.9095,-2.9299,-2.9539,-2.9847,-2.9882,-2.9847,-2.9833,-2.99,-2.9793,-2.9673,-3.0012,-3.0115,-3.0103,-3.1556,-3.2587,-3.244,-3.235,-3.2232,-3.2073,-3.0825,-2.994,-2.99,-2.994,-3.0114,-3.0333,-2.998,-2.978,-2.9873,-2.9913,-2.978,-2.9579,-2.9517,-2.9245,-2.8671,-2.8604,-2.8486,-2.8339,-2.8259,-2.8272,-2.8272,-2.8286,-2.8219,-2.7435,-2.6326,-2.5034,-2.4225,-2.1927,-2.0908,-2.1282,-2.2022,-2.2455,-2.2852,-2.2425,-2.2257,-2.2108,-2.215,-2.2364,-2.2579,-2.2654,-2.2686,-2.2686,-2.2686,-2.2686,-2.2686,-2.2686,-2.2686,-2.9091,-2.8946,-2.92,-2.9417,-2.955,-2.9477,-2.9526,-2.9646,-2.9417,-2.92,-2.9031,-2.8946,-2.8741,-2.8632,-2.8572,-2.8572,-2.8548,-2.85,-2.8536,-2.8536,-2.8452,-2.8282,-2.8137,-2.8101,-2.8005,-2.7896,-2.8029,-2.7958,-2.7799,-2.7691,-2.7534,-2.7367,-2.7247,-2.7162,-2.7196,-2.7042,-2.7087,-2.7075,-2.7093,-2.741,-2.7788,-2.7993,-2.8326,-2.8777,-2.8803,-2.9092,-2.9558,-3.0079,-3.01,-2.97,-2.9539,-2.9726,-3.014,-3.0034,-2.9913,-2.994,-3.0114,-3.0253,-3.0239,-3.0368,-3.0394,-3.0239,-3.0918,-3.1222,-3.1017,-3.1195,-3.1181,-3.1022,-3.059,-3.0474,-3.0341,-3.0434,-3.0675,-3.0862,-3.0448,-3.0087,-2.998,-2.9913,-2.9873,-2.978,-2.9432,-2.9108,-2.8921,-2.8751,-2.8604,-2.8511,-2.8457,-2.8444,-2.8417,-2.8417,-2.8377,-2.7238,-2.6025,-2.4387,-2.2578,-2.0096,-1.8799,-1.8992,-1.9493,-2.0072,-2.0551,-2.0796,-2.1018,-2.1297,-2.1634,-2.1836,-2.2341,-2.2675,-2.2686,-2.2686,-2.2686,-2.2686,-2.2686,-2.2686,-2.2686,-2.932,-2.92,-2.9465,-2.9808,-3.0153,-3.0054,-3.0178,-3.0251,-3.0043,-2.9627,-2.9249,-2.9006,-2.8825,-2.8632,-2.8572,-2.8572,-2.8572,-2.8572,-2.8572,-2.8572,-2.856,-2.8512,-2.8403,-2.8379,-2.8343,-2.8331,-2.8355,-2.8367,-2.8294,-2.8006,-2.7824,-2.7642,-2.7546,-2.7451,-2.7377,-2.7247,-2.721,-2.7341,-2.7172,-2.7208,-2.7649,-2.7727,-2.801,-2.8384,-2.8532,-2.8828,-2.9541,-3.0044,-3.0206,-3.0082,-2.9953,-3.0007,-3.0319,-3.0074,-2.9913,-2.9927,-3.0239,-3.04,-3.0467,-3.0635,-3.0702,-3.0608,-3.0728,-3.0702,-3.0727,-3.0795,-3.0875,-3.0841,-3.0996,-3.1029,-3.0822,-3.0889,-3.0982,-3.0969,-3.0835,-3.0595,-3.0314,-3.0029,-2.994,-2.9833,-2.9633,-2.9295,-2.9245,-2.8965,-2.8831,-2.8764,-2.8644,-2.8617,-2.8577,-2.8591,-2.8382,-2.743,-2.616,-2.4594,-2.2891,-2.0535,-1.834,-1.8209,-1.8157,-1.8488,-1.9074,-1.964,-2.0066,-2.0588,-2.0988,-2.1399,-2.1843,-2.2362,-2.2686,-2.2686,-2.2686,-2.2643,-2.2557,-2.2287,-2.2373,-2.9564,-2.9614,-2.9831,-3.024,-3.0752,-3.095,-3.0962,-3.0962,-3.0701,-3.0155,-2.954,-2.9175,-2.8946,-2.862,-2.8656,-2.8572,-2.8572,-2.8572,-2.8572,-2.8596,-2.862,-2.8669,-2.8669,-2.8656,-2.8777,-2.8898,-2.8777,-2.8777,-2.8717,-2.8656,-2.8318,-2.7993,-2.8053,-2.7932,-2.7655,-2.7498,-2.7461,-2.7437,-2.7198,-2.7211,-2.7505,-2.7608,-2.7838,-2.8181,-2.8547,-2.8884,-2.9403,-2.9795,-3.0037,-3.0461,-3.044,-3.04,-3.0413,-3.014,-3.0047,-3.0114,-3.0368,-3.0574,-3.0587,-3.0849,-3.0929,-3.0902,-3.0955,-3.0915,-3.1022,-3.1236,-3.145,-3.1423,-3.161,-3.1583,-3.1383,-3.133,-3.1236,-3.1116,-3.1129,-3.1062,-3.0808,-3.0341,-2.9949,-2.9953,-2.994,-2.9766,-2.9513,-2.9245,-2.8975,-2.8721,-2.8684,-2.8631,-2.8604,-2.8591,-2.8444,-2.8047,-2.6621,-2.4992,-2.3193,-2.1312,-1.9214,-1.7832,-1.762,-1.7802,-1.8523,-1.903,-1.937,-1.9771,-1.9989,-2.0472,-2.1088,-2.1634,-2.2156,-2.2113,-2.171,-2.1983,-2.2201,-2.1768,-2.1595,-3.0814,-3.0938,-3.0813,-3.1076,-3.1491,-3.1592,-3.1416,-3.1012,-3.095,-3.05,-2.9794,-2.9429,-2.9163,-2.8861,-2.8717,-2.8572,-2.8668,-2.8668,-2.8572,-2.8596,-2.8801,-2.8922,-2.8934,-2.8946,-2.9091,-2.9212,-2.9055,-2.8982,-2.8922,-2.8801,-2.8416,-2.821,-2.8246,-2.8149,-2.8041,-2.7848,-2.7727,-2.7679,-2.7473,-2.7244,-2.7272,-2.7439,-2.7558,-2.7778,-2.8446,-2.9001,-2.9466,-3.016,-3.076,-3.0869,-3.0707,-3.06,-3.0675,-3.0621,-3.0568,-3.0648,-3.0849,-3.1022,-3.1129,-3.1436,-3.161,-3.1289,-3.169,-3.2019,-3.1604,-3.1979,-3.2246,-3.2313,-3.2367,-3.2246,-3.1957,-3.1917,-3.173,-3.1503,-3.133,-3.1223,-3.1089,-3.0795,-3.0488,-3.0287,-3.0074,-2.982,-2.9539,-2.9259,-2.8975,-2.8735,-2.8671,-2.8617,-2.8604,-2.8604,-2.846,-2.8232,-2.6858,-2.5181,-2.3566,-2.1575,-1.9239,-1.7804,-1.7493,-1.7311,-1.8031,-1.82,-1.8462,-1.8637,-1.8864,-1.9478,-2.0225,-2.0487,-2.0918,-2.0783,-2.0793,-2.0961,-2.1052,-2.0825,-2.0902,-3.1479,-3.1566,-3.1454,-3.1668,-3.2109,-3.2159,-3.2021,-3.1718,-3.1466,-3.0913,-3.0191,-2.9674,-2.926,-2.9043,-2.8994,-2.9004,-2.9052,-2.9244,-2.9414,-2.9477,-2.9505,-2.953,-2.9664,-2.9491,-2.9465,-2.9538,-2.932,-2.926,-2.9272,-2.9103,-2.8874,-2.862,-2.8693,-2.8632,-2.8427,-2.8246,-2.8078,-2.7968,-2.7739,-2.7522,-2.7461,-2.7522,-2.756,-2.7667,-2.8274,-2.8785,-2.9193,-2.9887,-3.0449,-3.0801,-3.0936,-3.1082,-3.1136,-3.0955,-3.0929,-3.1183,-3.1169,-3.1363,-3.165,-3.1891,-3.2011,-3.1851,-3.2367,-3.234,-3.2233,-3.2447,-3.2554,-3.2621,-3.2688,-3.2714,-3.2519,-3.2185,-3.2038,-3.1877,-3.161,-3.1396,-3.1223,-3.0969,-3.0755,-3.0627,-3.0448,-3.0221,-2.9913,-2.9472,-2.9245,-2.9098,-2.8698,-2.8617,-2.8604,-2.8577,-2.846,-2.7997,-2.6789,-2.5406,-2.3853,-2.1735,-1.9057,-1.7994,-1.7588,-1.7437,-1.7626,-1.7563,-1.7375,-1.7735,-1.8173,-1.862,-1.9268,-1.9487,-1.9865,-2.0108,-2.0196,-2.0046,-1.9983,-2.0139,-2.0206,-3.2021,-3.2135,-3.2073,-3.2325,-3.279,-3.279,-3.2714,-3.2461,-3.2021,-3.129,-3.059,-2.9798,-2.9333,-2.925,-2.9319,-2.9436,-2.9615,-2.9806,-3.005,-3.0215,-2.9931,-3.0033,-3.0181,-2.9992,-2.9827,-2.9827,-2.9586,-2.9586,-2.9646,-2.9574,-2.9272,-2.9139,-2.926,-2.9103,-2.8813,-2.862,-2.8475,-2.8258,-2.8017,-2.7811,-2.7787,-2.7824,-2.7884,-2.8029,-2.8293,-2.8688,-2.9113,-2.9564,-2.993,-3.0488,-3.1183,-3.1567,-3.1635,-3.1436,-3.1236,-3.1831,-3.1637,-3.1757,-3.2051,-3.2238,-3.2407,-3.2607,-3.2728,-3.2701,-3.2674,-3.2728,-3.2808,-3.2848,-3.2955,-3.3,-3.2946,-3.2612,-3.2265,-3.2078,-3.1864,-3.1623,-3.1343,-3.1062,-3.0969,-3.0782,-3.0728,-3.0608,-3.0194,-2.9766,-2.9593,-2.9366,-2.8951,-2.8671,-2.8671,-2.8657,-2.8577,-2.8604,-2.7718,-2.5786,-2.413,-2.3031,-2.0244,-1.8039,-1.7676,-1.7616,-1.7469,-1.7441,-1.7388,-1.7329,-1.7708,-1.8145,-1.8453,-1.8726,-1.9114,-1.9524,-1.9436,-1.899,-1.9129,-1.9459,-1.9469,-3.3129,-3.3524,-3.3288,-3.3403,-3.3625,-3.3649,-3.3237,-3.2587,-3.2058,-3.1491,-3.0875,-2.9871,-2.9726,-2.9812,-2.9538,-2.9627,-3.0032,-3.0335,-3.0386,-3.0456,-3.0298,-3.0416,-3.0429,-3.03,-3.0155,-3.0069,-2.9876,-2.9779,-2.9803,-2.9743,-2.961,-2.9417,-2.9429,-2.9344,-2.9175,-2.8898,-2.8657,-2.8584,-2.8331,-2.8113,-2.8005,-2.8101,-2.8246,-2.8427,-2.8669,-2.8958,-2.9207,-2.9421,-2.9748,-3.0407,-3.0616,-3.1225,-3.1822,-3.2054,-3.2195,-3.234,-3.2313,-3.2313,-3.25,-3.2679,-3.2728,-3.2768,-3.2946,-3.308,-3.3026,-3.3143,-3.3133,-3.32,-3.3227,-3.324,-3.3,-3.2826,-3.2572,-3.2278,-3.2064,-3.1917,-3.169,-3.1517,-3.1316,-3.1062,-3.1036,-3.0869,-3.0434,-3.0007,-2.9726,-2.9446,-2.9028,-2.8895,-2.8935,-2.8935,-2.8908,-2.9001,-2.903,-2.6714,-2.4408,-2.3646,-2.1899,-1.8734,-1.7819,-1.7749,-1.7681,-1.757,-1.7547,-1.7428,-1.7424,-1.7651,-1.7906,-1.8118,-1.8146,-1.8476,-1.8192,-1.7917,-1.8186,-1.8505,-1.8257,-3.3293,-3.3617,-3.3656,-3.376,-3.3908,-3.3895,-3.3556,-3.2989,-3.2461,-3.192,-3.1303,-3.0615,-3.0206,-3.0217,-3.025,-3.044,-3.086,-3.129,-3.1369,-3.1402,-3.1287,-3.1149,-3.0976,-3.0761,-3.0431,-3.0228,-3.0069,-3.0008,-3.0008,-3.002,-2.9912,-2.9864,-2.9827,-2.9755,-2.961,-2.9393,-2.9139,-2.9006,-2.8753,-2.856,-2.8439,-2.8572,-2.8656,-2.8705,-2.8982,-2.9201,-2.9249,-2.9663,-2.9956,-3.035,-3.0782,-3.1231,-3.1707,-3.2058,-3.2363,-3.2674,-3.2652,-3.2688,-3.2795,-3.2969,-3.2946,-3.304,-3.328,-3.3334,-3.328,-3.332,-3.3414,-3.3414,-3.3414,-3.336,-3.3227,-3.308,-3.2839,-3.2625,-3.2425,-3.2313,-3.2166,-3.2032,-3.1704,-3.141,-3.141,-3.1183,-3.0621,-3.0221,-2.986,-2.9513,-2.9148,-2.9161,-2.9255,-2.9322,-2.9362,-2.9242,-2.9063,-2.6825,-2.4523,-2.3415,-2.2665,-1.9919,-1.7973,-1.794,-1.7859,-1.7732,-1.7603,-1.7494,-1.7494,-1.7551,-1.7649,-1.7915,-1.7702,-1.7551,-1.7727,-1.7817,-1.7551,-1.7404,-1.7437,-3.3454,-3.3788,-3.4042,-3.4148,-3.4135,-3.4082,-3.3895,-3.3527,-3.2943,-3.2464,-3.2021,-3.1349,-3.0859,-3.0731,-3.097,-3.1389,-3.181,-3.2305,-3.2416,-3.2399,-3.2209,-3.2013,-3.1767,-3.1302,-3.0771,-3.0467,-3.0298,-3.0262,-3.0189,-3.0177,-3.0202,-3.0117,-3.0153,-3.0081,-2.9876,-2.9658,-2.961,-2.9477,-2.9236,-2.9103,-2.9091,-2.9127,-2.9043,-2.8789,-2.9236,-2.9357,-2.9249,-2.9591,-2.9935,-3.0256,-3.0603,-3.1113,-3.1314,-3.1541,-3.198,-3.2518,-3.2602,-3.2731,-3.2838,-3.308,-3.3213,-3.3427,-3.3414,-3.3467,-3.3587,-3.3587,-3.3507,-3.344,-3.3414,-3.3414,-3.3347,-3.32,-3.3053,-3.2969,-3.2795,-3.2634,-3.2474,-3.2265,-3.2064,-3.1891,-3.1851,-3.1436,-3.0835,-3.0541,-3.0207,-2.9887,-2.9566,-2.9673,-2.9766,-2.9887,-2.9832,-2.95,-2.865,-2.6571,-2.4591,-2.287,-2.2055,-2.0588,-1.8874,-1.8184,-1.8054,-1.7924,-1.7802,-1.7729,-1.7762,-1.7811,-1.7811,-1.7754,-1.7705,-1.7713,-1.7781,-1.7749,-1.7554,-1.7522,-1.7616,-3.4482,-3.4977,-3.5004,-3.5044,-3.499,-3.475,-3.4482,-3.4086,-3.3399,-3.3002,-3.2772,-3.189,-3.1443,-3.1542,-3.1816,-3.1982,-3.2171,-3.2487,-3.2674,-3.2617,-3.2449,-3.2259,-3.2062,-3.1365,-3.105,-3.0745,-3.0572,-3.0407,-3.0286,-3.0226,-3.0214,-3.0189,-3.0045,-2.9936,-3.0081,-2.9803,-2.9574,-2.967,-2.9489,-2.9357,-2.9369,-2.9538,-2.9489,-2.9417,-2.955,-2.9622,-2.9405,-2.9614,-2.9711,-2.9893,-2.9979,-3.0376,-3.0925,-3.1088,-3.1265,-3.1652,-3.2164,-3.262,-3.2644,-3.2907,-3.334,-3.349,-3.3487,-3.3684,-3.3868,-3.3895,-3.3721,-3.3427,-3.3427,-3.3414,-3.3427,-3.3374,-3.3227,-3.3156,-3.3022,-3.2848,-3.2688,-3.2532,-3.2345,-3.2238,-3.2144,-3.1597,-3.0996,-3.0782,-3.0555,-3.0247,-3.0034,-3.0154,-3.0287,-3.0434,-3.0461,-3.0155,-2.8901,-2.6829,-2.4707,-2.3014,-2.1469,-2.0634,-1.9535,-1.841,-1.8241,-1.8119,-1.8095,-1.8046,-1.8054,-1.7973,-1.7875,-1.7827,-1.7802,-1.7843,-1.7924,-1.7789,-1.7627,-1.766,-1.7786,-3.4563,-3.4963,-3.5124,-3.5297,-3.5391,-3.5124,-3.4843,-3.4471,-3.3877,-3.336,-3.3089,-3.2592,-3.2271,-3.2292,-3.2497,-3.2505,-3.2541,-3.2862,-3.2969,-3.2915,-3.2805,-3.2715,-3.2318,-3.1756,-3.1365,-3.0947,-3.0603,-3.031,-3.0262,-3.0346,-3.0383,-3.0202,-3.0117,-3.0093,-3.0214,-2.9984,-2.996,-2.9936,-2.9767,-2.9562,-2.9513,-2.9634,-2.9682,-2.9441,-2.9815,-2.9839,-2.9731,-2.9803,-2.99,-3.0033,-3.0033,-3.0131,-3.0431,-3.0556,-3.0596,-3.0749,-3.134,-3.1717,-3.1903,-3.2295,-3.2831,-3.3281,-3.3356,-3.3446,-3.3926,-3.4057,-3.3857,-3.3454,-3.3587,-3.3601,-3.3467,-3.3414,-3.3347,-3.3253,-3.3173,-3.3133,-3.2973,-3.2772,-3.2639,-3.2545,-3.2398,-3.1912,-3.1476,-3.1463,-3.1156,-3.0608,-3.0608,-3.0862,-3.0969,-3.1089,-3.1062,-3.0949,-2.9267,-2.731,-2.5163,-2.3196,-2.1096,-2.0058,-1.9349,-1.8483,-1.8442,-1.8369,-1.8249,-1.8192,-1.8144,-1.8046,-1.7949,-1.7949,-1.7989,-1.7997,-1.8014,-1.7957,-1.79,-1.7789,-1.79,-3.4616,-3.515,-3.5244,-3.5511,-3.5805,-3.5458,-3.5191,-3.4923,-3.4376,-3.3864,-3.3396,-3.3107,-3.2853,-3.2781,-3.2839,-3.2812,-3.2741,-3.3187,-3.324,-3.3227,-3.323,-3.3137,-3.2686,-3.2159,-3.1567,-3.1176,-3.0652,-3.0361,-3.0322,-3.0407,-3.0455,-3.0238,-3.0298,-3.0262,-3.0226,-3.0177,-3.0165,-3.0153,-2.9996,-2.9827,-2.9719,-2.9815,-2.9791,-2.9803,-2.9948,-3.0117,-2.9972,-3.0057,-3.0189,-3.0189,-3.0189,-3.0189,-3.0264,-3.0315,-3.0303,-3.038,-3.0759,-3.0999,-3.129,-3.1668,-3.2213,-3.2762,-3.3148,-3.3355,-3.3442,-3.3831,-3.3947,-3.3444,-3.3481,-3.3519,-3.3537,-3.348,-3.3387,-3.3374,-3.3374,-3.34,-3.3324,-3.3097,-3.2883,-3.2786,-3.2612,-3.238,-3.2091,-3.2198,-3.1837,-3.1102,-3.1129,-3.1524,-3.1557,-3.157,-3.1463,-3.1222,-2.8566,-2.7107,-2.6255,-2.4007,-2.1695,-1.9671,-1.8972,-1.8581,-1.8556,-1.8395,-1.8273,-1.8233,-1.8249,-1.829,-1.829,-1.8233,-1.8176,-1.8144,-1.8135,-1.8208,-1.8184,-1.8103,-1.8022,-3.4977,-3.6019,-3.5698,-3.5925,-3.6393,-3.5832,-3.5591,-3.5485,-3.4976,-3.4482,-3.3993,-3.3427,-3.3,-3.2973,-3.2937,-3.295,-3.2973,-3.3267,-3.336,-3.3324,-3.335,-3.339,-3.2976,-3.241,-3.1819,-3.1554,-3.0957,-3.0448,-3.0334,-3.0479,-3.0419,-3.0262,-3.0358,-3.0358,-3.0286,-3.0214,-3.0214,-3.0214,-3.0141,-3.0141,-3.0081,-3.0129,-3.0117,-3.0129,-3.0165,-3.0202,-3.0139,-3.0202,-3.0214,-3.0214,-3.0214,-3.0214,-3.0214,-3.0214,-3.0214,-3.0325,-3.0276,-3.0552,-3.0878,-3.1325,-3.2023,-3.2634,-3.3108,-3.3262,-3.3072,-3.3108,-3.3226,-3.3407,-3.3314,-3.335,-3.3497,-3.3577,-3.3206,-3.3206,-3.3105,-3.3116,-3.3166,-3.3266,-3.3104,-3.3053,-3.2812,-3.2461,-3.2541,-3.2545,-3.2185,-3.1463,-3.1423,-3.1805,-3.1791,-3.173,-3.1711,-3.0799,-2.7769,-2.6653,-2.7326,-2.4886,-2.0843,-1.9612,-1.9254,-1.8855,-1.8663,-1.8517,-1.8379,-1.8436,-1.8493,-1.8566,-1.8582,-1.8452,-1.8347,-1.8312,-1.8312,-1.8385,-1.8412,-1.8371,-1.8265,-3.5004,-3.6046,-3.5952,-3.6233,-3.6672,-3.6139,-3.5899,-3.5765,-3.515,-3.4496,-3.4028,-3.3494,-3.324,-3.319,-3.2891,-3.2954,-3.318,-3.3195,-3.3283,-3.3433,-3.3574,-3.3574,-3.3206,-3.2662,-3.2121,-3.1744,-3.1135,-3.0601,-3.0262,-3.0455,-3.0407,-3.0334,-3.0346,-3.0298,-3.0238,-3.0214,-3.0214,-3.0214,-3.0214,-3.0214,-3.0214,-3.0214,-3.0214,-3.0214,-3.0214,-3.0214,-3.0214,-3.0214,-3.0214,-3.0214,-3.0214,-3.0214,-3.0226,-3.0226,-3.031,-3.0395,-3.0334,-3.0479,-3.0733,-3.1111,-3.1417,-3.2355,-3.302,-3.328,-3.282,-3.3127,-3.3105,-3.3109,-3.3046,-3.3124,-3.2994,-3.2864,-3.2594,-3.2733,-3.2833,-3.2869,-3.2906,-3.2996,-3.2978,-3.2741,-3.2656,-3.2458,-3.2629,-3.2839,-3.2358,-3.1851,-3.1917,-3.1957,-3.1979,-3.1755,-3.1614,-3.0483,-2.7553,-2.5555,-2.6086,-2.3052,-1.945,-1.9333,-1.9369,-1.9081,-1.8736,-1.8704,-1.8606,-1.8671,-1.8704,-1.8712,-1.868,-1.8598,-1.8525,-1.8476,-1.8499,-1.8516,-1.8533,-1.859,-1.8452,-3.5084,-3.6086,-3.6126,-3.6406,-3.6765,-3.6313,-3.6126,-3.5993,-3.5244,-3.4563,-3.3988,-3.3614,-3.3414,-3.3263,-3.3113,-3.2849,-3.3076,-3.3007,-3.3044,-3.3145,-3.3259,-3.3436,-3.3179,-3.2712,-3.2058,-3.1668,-3.1062,-3.0467,-3.0226,-3.0407,-3.0358,-3.0262,-3.0214,-3.0226,-3.0226,-3.0214,-3.0214,-3.0214,-3.0214,-3.0214,-3.0214,-3.0214,-3.0214,-3.0214,-3.0214,-3.0214,-3.0214,-3.0214,-3.0214,-3.0214,-3.0214,-3.0214,-3.0238,-3.0298,-3.0431,-3.0491,-3.0576,-3.066,-3.0914,-3.1062,-3.1154,-3.1914,-3.2474,-3.2736,-3.2804,-3.292,-3.2689,-3.2738,-3.2791,-3.2793,-3.2605,-3.2558,-3.2469,-3.2596,-3.2583,-3.262,-3.2544,-3.2621,-3.2504,-3.2373,-3.2405,-3.2484,-3.2564,-3.2735,-3.271,-3.2283,-3.23,-3.226,-3.2126,-3.1779,-3.1286,-2.9793,-2.7399,-2.579,-2.437,-2.1541,-1.9117,-1.9011,-1.9033,-1.8953,-1.8761,-1.8744,-1.8834,-1.8931,-1.8931,-1.8866,-1.8834,-1.8826,-1.8769,-1.8704,-1.868,-1.8647,-1.8582,-1.8606,-1.8476,-3.5324,-3.6086,-3.614,-3.642,-3.6792,-3.6313,-3.6126,-3.5979,-3.5351,-3.4776,-3.4215,-3.3681,-3.3414,-3.3364,-3.3213,-3.3063,-3.2875,-3.2777,-3.2764,-3.2865,-3.3094,-3.3129,-3.2965,-3.2626,-3.2136,-3.1592,-3.106,-3.0601,-3.025,-3.0334,-3.0286,-3.0238,-3.0214,-3.0214,-3.0214,-3.0214,-3.0214,-3.0214,-3.0214,-3.0214,-3.0214,-3.0214,-3.0214,-3.0214,-3.0214,-3.0214,-3.0214,-3.0214,-3.0214,-3.0214,-3.0214,-3.0214,-3.0226,-3.0443,-3.0576,-3.0624,-3.0829,-3.1059,-3.1324,-3.1348,-3.1449,-3.155,-3.2083,-3.2078,-3.1943,-3.1955,-3.2168,-3.2384,-3.24,-3.2499,-3.2575,-3.253,-3.2325,-3.2199,-3.2124,-3.2073,-3.1984,-3.2162,-3.2099,-3.187,-3.2183,-3.2494,-3.2461,-3.2541,-3.2765,-3.2741,-3.2666,-3.2541,-3.2291,-3.1338,-3.0555,-2.8933,-2.6749,-2.4768,-2.2954,-2.0663,-1.8931,-1.8785,-1.8744,-1.8769,-1.8801,-1.8809,-1.8988,-1.9134,-1.9175,-1.9021,-1.9053,-1.9086,-1.9004,-1.8915,-1.8866,-1.8818,-1.8728,-1.8639,-1.855,-3.5458,-3.614,-3.6273,-3.658,-3.6779,-3.6326,-3.6126,-3.5899,-3.5097,-3.4496,-3.4229,-3.3681,-3.3414,-3.3314,-3.3113,-3.2963,-3.3089,-3.296,-3.296,-3.3089,-3.3171,-3.3519,-3.3404,-3.2859,-3.2468,-3.2213,-3.1583,-3.0832,-3.0491,-3.0455,-3.0334,-3.0262,-3.0214,-3.0214,-3.0214,-3.0214,-3.0214,-3.0214,-3.0214,-3.0214,-3.0214,-3.0214,-3.0214,-3.0214,-3.0214,-3.0214,-3.0214,-3.0214,-3.0214,-3.0214,-3.0214,-3.0214,-3.0262,-3.0467,-3.0696,-3.0805,-3.0998,-3.1119,-3.1372,-3.1505,-3.1662,-3.1698,-3.1735,-3.1807,-3.1807,-3.1807,-3.1914,-3.202,-3.203,-3.2095,-3.1821,-3.1604,-3.1393,-3.1275,-3.1242,-3.117,-3.117,-3.1549,-3.1665,-3.1365,-3.1403,-3.1615,-3.1698,-3.1972,-3.2259,-3.2303,-3.2192,-3.2492,-3.2416,-3.0532,-2.9233,-2.7778,-2.5889,-2.3698,-2.1555,-1.9602,-1.8672,-1.856,-1.8616,-1.8793,-1.8826,-1.8794,-1.8923,-1.901,-1.915,-1.9232,-1.9027,-1.8929,-1.9118,-1.9118,-1.8866,-1.8875,-1.8866,-1.8793,-1.8736,-3.5698,-3.6233,-3.642,-3.6674,-3.6779,-3.642,-3.6126,-3.5752,-3.4803,-3.4322,-3.4189,-3.3694,-3.3414,-3.3314,-3.3113,-3.2812,-3.3126,-3.2983,-3.2758,-3.2939,-3.3046,-3.3149,-3.3125,-3.295,-3.243,-3.2327,-3.1939,-3.1273,-3.0733,-3.0648,-3.0455,-3.0274,-3.0214,-3.0214,-3.0214,-3.0214,-3.0214,-3.0214,-3.0214,-3.0214,-3.0214,-3.0214,-3.0214,-3.0214,-3.0214,-3.0214,-3.0214,-3.0214,-3.0214,-3.0214,-3.0214,-3.0214,-3.0298,-3.0539,-3.0793,-3.0962,-3.1228,-3.1348,-3.1566,-3.1662,-3.1771,-3.1783,-3.1807,-3.1807,-3.1807,-3.1807,-3.1807,-3.1807,-3.1807,-3.1638,-3.1449,-3.1143,-3.0978,-3.0875,-3.073,-3.0723,-3.0652,-3.1017,-3.0932,-3.0661,-3.0614,-3.0802,-3.0963,-3.1288,-3.1601,-3.1659,-3.164,-3.2005,-3.2243,-3.044,-2.8307,-2.6554,-2.4924,-2.28,-2.0778,-1.8826,-1.8235,-1.8276,-1.8421,-1.8519,-1.8469,-1.8409,-1.8618,-1.8845,-1.8829,-1.8772,-1.8697,-1.8647,-1.8631,-1.8647,-1.8556,-1.8659,-1.8923,-1.8858,-1.8673,-3.5965,-3.646,-3.6513,-3.6674,-3.6779,-3.6553,-3.6139,-3.5511,-3.471,-3.4322,-3.4282,-3.3681,-3.3414,-3.3414,-3.3364,-3.3113,-3.2762,-3.265,-3.2386,-3.2121,-3.2286,-3.2488,-3.2514,-3.2287,-3.2264,-3.2086,-3.1725,-3.1267,-3.0938,-3.0721,-3.0467,-3.0298,-3.025,-3.0226,-3.0214,-3.0214,-3.0214,-3.0214,-3.0214,-3.0214,-3.0214,-3.0214,-3.0214,-3.0214,-3.0214,-3.0214,-3.0214,-3.0214,-3.0214,-3.0214,-3.0214,-3.0214,-3.0371,-3.0721,-3.0902,-3.1167,-3.1553,-3.1674,-3.1759,-3.1795,-3.1807,-3.1807,-3.1807,-3.1807,-3.1807,-3.1807,-3.1807,-3.1807,-3.1795,-3.159,-3.1372,-3.1167,-3.095,-3.0833,-3.0675,-3.0518,-3.0325,-3.0254,-3.0061,-2.9955,-3.007,-3.0181,-3.0317,-3.064,-3.0939,-3.0776,-3.0787,-3.1143,-3.1199,-3.0552,-2.8293,-2.5495,-2.3826,-2.1893,-1.9989,-1.8141,-1.7806,-1.7935,-1.7867,-1.7932,-1.792,-1.8027,-1.8163,-1.8293,-1.835,-1.8374,-1.8279,-1.8122,-1.7928,-1.7958,-1.8153,-1.8353,-1.863,-1.8462,-1.8319,-3.5845,-3.6233,-3.6633,-3.6754,-3.6593,-3.6326,-3.5979,-3.5538,-3.4658,-3.4322,-3.4282,-3.3681,-3.3414,-3.3414,-3.3364,-3.3063,-3.2762,-3.2511,-3.2222,-3.2071,-3.2021,-3.2502,-3.258,-3.2277,-3.2315,-3.2109,-3.1693,-3.1124,-3.0966,-3.0733,-3.06,-3.0503,-3.0286,-3.0238,-3.0214,-3.0214,-3.0214,-3.0214,-3.0214,-3.0214,-3.0214,-3.0214,-3.0214,-3.0214,-3.0214,-3.0214,-3.0214,-3.0214,-3.0214,-3.0214,-3.0214,-3.0214,-3.025,-3.0708,-3.1083,-3.1553,-3.1747,-3.1807,-3.1807,-3.1807,-3.1807,-3.1807,-3.1807,-3.1807,-3.1807,-3.1807,-3.1807,-3.1807,-3.1795,-3.1626,-3.136,-3.1119,-3.0865,-3.0648,-3.0503,-3.0346,-3.0153,-2.9996,-2.9803,-2.9708,-2.9811,-2.9689,-2.9775,-2.9971,-3.0217,-2.9909,-2.9898,-3.0255,-3.0339,-2.9797,-2.8461,-2.5657,-2.314,-2.1378,-1.938,-1.7499,-1.7521,-1.7486,-1.7452,-1.7409,-1.7615,-1.7657,-1.7741,-1.7756,-1.7786,-1.7861,-1.7951,-1.7714,-1.7398,-1.7662,-1.7884,-1.8065,-1.8206,-1.8079,-1.7938,-3.5698,-3.6099,-3.6446,-3.65,-3.6286,-3.5899,-3.5605,-3.5324,-3.4643,-3.4269,-3.4095,-3.3627,-3.3414,-3.3364,-3.3163,-3.2862,-3.2611,-3.231,-3.197,-3.1617,-3.1857,-3.1946,-3.2023,-3.1997,-3.1894,-3.1775,-3.159,-3.1164,-3.0993,-3.0745,-3.0576,-3.0407,-3.0262,-3.0238,-3.0214,-3.0214,-3.0214,-3.0214,-3.0214,-3.0214,-3.0214,-3.0214,-3.0214,-3.0226,-3.0226,-3.0214,-3.0226,-3.0226,-3.0214,-3.0214,-3.0214,-3.0286,-3.0383,-3.0793,-3.1143,-3.1517,-3.1602,-3.1614,-3.1626,-3.1759,-3.1783,-3.1807,-3.1807,-3.1807,-3.1807,-3.1807,-3.1807,-3.1807,-3.1771,-3.1662,-3.1336,-3.1034,-3.0733,-3.0443,-3.031,-3.0177,-3.0033,-2.99,-2.9755,-2.961,-2.9503,-2.9333,-2.9382,-2.9538,-2.9562,-2.9443,-2.9347,-2.942,-2.9603,-2.9456,-2.8183,-2.6087,-2.3385,-2.1049,-1.9002,-1.7241,-1.7006,-1.6949,-1.6828,-1.6935,-1.7134,-1.7255,-1.7268,-1.7247,-1.7191,-1.7271,-1.7314,-1.7164,-1.7013,-1.7242,-1.7393,-1.7369,-1.7563,-1.775,-1.7595,-3.5378,-3.5925,-3.6006,-3.6019,-3.5952,-3.5431,-3.5151,-3.507,-3.4496,-3.4148,-3.3868,-3.3561,-3.3364,-3.3163,-3.2862,-3.2511,-3.2209,-3.1857,-3.1466,-3.1012,-3.1214,-3.1314,-3.1264,-3.1049,-3.1362,-3.1372,-3.1216,-3.0942,-3.0893,-3.0769,-3.0588,-3.0262,-3.0274,-3.0274,-3.0226,-3.0214,-3.0214,-3.0214,-3.0214,-3.0214,-3.0214,-3.0214,-3.0226,-3.0262,-3.025,-3.0238,-3.025,-3.0238,-3.0214,-3.0214,-3.025,-3.0346,-3.0636,-3.0841,-3.1131,-3.1276,-3.1384,-3.1421,-3.1481,-3.1614,-3.1747,-3.1783,-3.1807,-3.1807,-3.1807,-3.1807,-3.1807,-3.1807,-3.1783,-3.165,-3.1372,-3.1095,-3.0805,-3.0527,-3.0346,-3.0202,-3.0069,-2.99,-2.9719,-2.9562,-2.9405,-2.9248,-2.9188,-2.9369,-2.9429,-2.9163,-2.9103,-2.9091,-2.8922,-2.8994,-2.7447,-2.5913,-2.3598,-2.0911,-1.8715,-1.7171,-1.6582,-1.6367,-1.6362,-1.6364,-1.665,-1.6771,-1.6836,-1.6771,-1.6714,-1.6568,-1.6536,-1.6595,-1.6639,-1.6637,-1.671,-1.6627,-1.68,-1.7162,-1.7294,-3.4057,-3.482,-3.5245,-3.5525,-3.5645,-3.5058,-3.4723,-3.4509,-3.4148,-3.3948,-3.3841,-3.3524,-3.3163,-3.2812,-3.2662,-3.2209,-3.1517,-3.1315,-3.086,-3.0708,-3.0771,-3.0872,-3.0973,-3.0923,-3.1023,-3.0921,-3.0804,-3.062,-3.07,-3.0733,-3.0745,-3.0515,-3.0455,-3.0371,-3.0226,-3.0214,-3.0214,-3.0214,-3.0214,-3.0214,-3.0214,-3.025,-3.0274,-3.0346,-3.0371,-3.0334,-3.0334,-3.0298,-3.025,-3.0214,-3.0214,-3.0455,-3.0877,-3.0962,-3.1131,-3.13,-3.1228,-3.1264,-3.1348,-3.1493,-3.1638,-3.1771,-3.1807,-3.1807,-3.1807,-3.1807,-3.1807,-3.1807,-3.1759,-3.1614,-3.1445,-3.1179,-3.0914,-3.066,-3.0395,-3.0262,-3.0117,-2.99,-2.9695,-2.955,-2.9393,-2.9284,-2.92,-2.9188,-2.9188,-2.9236,-2.9296,-2.9188,-2.8753,-2.8428,-2.6286,-2.4726,-2.3323,-2.0951,-1.8681,-1.7113,-1.6488,-1.6286,-1.6296,-1.6255,-1.6157,-1.6405,-1.6583,-1.6421,-1.6285,-1.63,-1.6368,-1.6341,-1.6398,-1.6381,-1.6347,-1.6403,-1.6307,-1.6566,-1.675,-3.3226,-3.402,-3.4741,-3.5177,-3.5271,-3.4618,-3.4284,-3.4242,-3.3868,-3.3668,-3.3668,-3.3444,-3.3113,-3.2561,-3.236,-3.187,-3.1012,-3.0759,-3.0518,-3.0416,-3.0467,-3.0568,-3.0619,-3.067,-3.0619,-3.0518,-3.0366,-3.0322,-3.0467,-3.0503,-3.0503,-3.0455,-3.0431,-3.0383,-3.0214,-3.0214,-3.0214,-3.0214,-3.0214,-3.0214,-3.0214,-3.0238,-3.0262,-3.0346,-3.0346,-3.0334,-3.0322,-3.0298,-3.0334,-3.0467,-3.0624,-3.0841,-3.1131,-3.1179,-3.1179,-3.1203,-3.1191,-3.1191,-3.1276,-3.1421,-3.1602,-3.1747,-3.1807,-3.1807,-3.1807,-3.1807,-3.1807,-3.1807,-3.1807,-3.1686,-3.1602,-3.1384,-3.1119,-3.0853,-3.06,-3.0395,-3.0177,-2.9936,-2.99,-2.9924,-2.9743,-2.9574,-2.9513,-2.9526,-2.9489,-2.9272,-2.9344,-2.926,-2.885,-2.8332,-2.5985,-2.3868,-2.2703,-2.1128,-1.9067,-1.7492,-1.6326,-1.6239,-1.6259,-1.6185,-1.6137,-1.63,-1.6374,-1.6239,-1.6212,-1.6347,-1.6344,-1.6361,-1.6341,-1.6347,-1.632,-1.6266,-1.6171,-1.6133,-1.6318,-3.2699,-3.3485,-3.424,-3.4765,-3.4977,-3.4202,-3.3988,-3.4122,-3.3668,-3.3427,-3.339,-3.3327,-3.2963,-3.2461,-3.192,-3.1416,-3.091,-3.0518,-3.0264,-3.0214,-3.0264,-3.0315,-3.0315,-3.0264,-3.0315,-3.0315,-3.0214,-3.0214,-3.0274,-3.0358,-3.0407,-3.0262,-3.0238,-3.025,-3.0226,-3.0214,-3.0214,-3.0214,-3.0214,-3.0214,-3.0214,-3.0226,-3.0262,-3.0262,-3.0238,-3.0238,-3.025,-3.0274,-3.0383,-3.066,-3.0986,-3.1203,-3.13,-3.1324,-3.124,-3.1215,-3.1191,-3.1179,-3.1228,-3.1469,-3.165,-3.1783,-3.1807,-3.1807,-3.1807,-3.1807,-3.1807,-3.1807,-3.1807,-3.1783,-3.1686,-3.1541,-3.1276,-3.0974,-3.0721,-3.0467,-3.0214,-3.0008,-3.0081,-3.0165,-3.002,-2.9827,-2.9767,-2.9791,-2.9634,-2.9417,-2.9272,-2.9151,-2.8896,-2.8252,-2.6913,-2.4593,-2.2738,-2.1067,-1.8918,-1.7595,-1.6164,-1.6171,-1.6178,-1.6123,-1.618,-1.6313,-1.6361,-1.6205,-1.6225,-1.6374,-1.6402,-1.6368,-1.6354,-1.6327,-1.6307,-1.6266,-1.6151,-1.6133,-1.6133,-3.2222,-3.3225,-3.3603,-3.4161,-3.4683,-3.3881,-3.3681,-3.3881,-3.3587,-3.3414,-3.3263,-3.2862,-3.2461,-3.192,-3.1365,-3.091,-3.0518,-3.0214,-3.0214,-3.0214,-3.0214,-3.0214,-3.0214,-3.0214,-3.0214,-3.0214,-3.0214,-3.0214,-3.0226,-3.0383,-3.0407,-3.0238,-3.0443,-3.0395,-3.0226,-3.0214,-3.0214,-3.0214,-3.0214,-3.0214,-3.0214,-3.0262,-3.0371,-3.0358,-3.0334,-3.0395,-3.0419,-3.031,-3.0407,-3.0672,-3.1095,-3.1348,-3.1433,-3.1433,-3.1372,-3.1288,-3.1264,-3.1252,-3.1348,-3.1481,-3.165,-3.1795,-3.1807,-3.1807,-3.1807,-3.1807,-3.1807,-3.1807,-3.1807,-3.1807,-3.1722,-3.1566,-3.1324,-3.095,-3.0648,-3.0419,-3.0189,-3.0141,-3.0177,-3.0177,-3.0117,-2.9936,-2.9791,-2.9731,-2.961,-2.9429,-2.9344,-2.9248,-2.9248,-2.8473,-2.7672,-2.5197,-2.285,-1.9999,-1.7439,-1.7077,-1.6167,-1.6117,-1.6123,-1.6117,-1.6185,-1.6354,-1.6354,-1.6218,-1.6266,-1.6408,-1.6402,-1.6307,-1.6327,-1.63,-1.6313,-1.6266,-1.6151,-1.6133,-1.6133]},{"header":{"parameterUnit":"m.s-1","parameterCategory":1,"la1":31.0,"la2":29.5877,"lo1":-88.7671,"lo2":-86.6584,"dy":0.0162,"dx":0.0185,"nx":115,"ny":88,"refTime":"2023-10-24T18:00:00:Z","depth":0,"parameterNumber":3,"parameterNumberName":"V-component_of_WINDS"},"data":[0.0,0.0,0.0,0.0,0.0,0.0,0.0,0.0,0.0,0.0,0.0,0.0,0.0,0.0,0.0,0.0,0.0,0.0,0.0,0.0,0.0,0.0,0.0,0.0,0.0,0.0,0.0,0.0,0.0,0.0,0.0,0.0,0.0,0.0,0.0,0.0,0.0,0.0,0.0,0.0,0.0,0.0,0.0,0.0,0.0,0.0,0.0,0.0,0.0,0.0,0.0,0.0,0.0,0.0,0.0,0.0,0.0,0.0,0.0,0.0,0.0,0.0,0.0,0.0,0.0,0.0,0.0,0.0,0.0,0.0,0.0,0.0,0.0,0.0,0.0,0.0,0.0,0.0,0.0,0.0,0.0,0.0,0.0,0.0,0.0,0.0,0.0,0.0,0.0,0.0,0.0,0.0,0.0,0.0,0.0,0.0,0.0,0.0,0.0,0.0,0.0,0.0,0.0,0.0,0.0,0.0,0.0,0.0,0.0,0.0,0.0,0.0,0.0,0.0,0.0,0.0,0.0,0.0,0.0,0.0,0.0,0.0,0.0,0.0,0.0,0.0,0.0,0.0,0.0,0.0,0.0,0.0,0.0,0.0,0.0,0.0,0.0,0.0,0.0,0.0,0.0,0.0,0.0,0.0,0.0,0.0,0.0,0.0,0.0,0.0,0.0,0.0,0.0,0.0,0.0,0.0,0.0,0.0,0.0,0.0,0.0,0.0,0.0,0.0,0.0,0.0,0.0,0.0,0.0,0.0,0.0,0.0,0.0,0.0,0.0,0.0,0.0,0.0,0.0,0.0,0.0,0.0,0.0,0.0,0.0,0.0,0.0,0.0,0.0,0.0,0.0,0.0,0.0,0.0,0.0,0.0,0.0,0.0,0.0,0.0,0.0,0.0,0.0,0.0,0.0,0.0,0.0,0.0,0.0,0.0,0.0,0.0,0.0,0.0,0.0,0.0,0.0,0.0,0.0,0.0,0.0,0.0,0.0,0.0,0.0,0.0,0.0,0.0,0.0,0.0,0.0,0.0,0.0,0.0,0.0,0.0,0.0,0.0,0.0,0.0,0.0,0.0,0.0,0.0,0.0,0.0,0.0,0.0,0.0,0.0,0.0,0.0,0.0,0.0,0.0,0.0,0.0,0.0,0.0,0.0,0.0,0.0,0.0,0.0,0.0,0.0,0.0,0.0,0.0,0.0,0.0,0.0,0.0,0.0,0.0,0.0,0.0,0.0,0.0,0.0,0.0,0.0,0.0,0.0,0.0,0.0,0.0,0.0,0.0,0.0,0.0,0.0,0.0,0.0,0.0,0.0,0.0,0.0,0.0,0.0,0.0,0.0,0.0,0.0,0.0,0.0,0.0,0.0,0.0,0.0,0.0,0.0,0.0,0.0,0.0,0.0,0.0,0.0,0.0,0.0,0.0,0.0,0.0,0.0,0.0,0.0,0.0,0.0,0.0,0.0,0.0,0.0,0.0,0.0,0.0,0.0,0.0,0.0,0.0,0.0,0.0,0.0,0.0,0.0,0.0,0.0,0.0,0.0,0.0,0.0,0.0,0.0,0.0,0.0,0.0,0.0,0.0,0.0,0.0,0.0,0.0,0.0,0.0,0.0,0.0,0.0,0.0,0.0,0.0,0.0,0.0,0.0,0.0,0.0,0.0,0.0,0.0,0.0,0.0,0.0,0.0,0.0,0.0,0.0,0.0,0.0,0.0,0.0,0.0,0.0,0.0,0.0,0.0,0.0,0.0,0.0,0.0,0.0,0.0,0.0,0.0,0.0,0.0,0.0,0.0,0.0,0.0,0.0,0.0,0.0,0.0,0.0,0.0,0.0,0.0,0.0,0.0,0.0,0.0,0.0,0.0,0.0,0.0,0.0,0.0,0.0,0.0,0.0,0.0,0.0,0.0,0.0,0.0,0.0,0.0,0.0,0.0,0.0,0.0,0.0,0.0,0.0,0.0,0.0,0.0,0.0,0.0,0.0,0.0,0.0,0.0,0.0,0.0,0.0,0.0,0.0,0.0,0.0,0.0,0.0,0.0,0.0,0.0,0.0,0.0,0.0,0.0,0.0,0.0,0.0,0.0,0.0,0.0,0.0,0.0,0.0,0.0,0.0,0.0,0.0,0.0,0.0,0.0,0.0,0.0,0.0,0.0,0.0,0.0,0.0,0.0,0.0,0.0,0.0,0.0,0.0,0.0,0.0,0.0,0.0,0.0,0.0,0.0,0.0,0.0,0.0,0.0,0.0,0.0,0.0,0.0,0.0,0.0,0.0,0.0,0.0,0.0,0.0,0.0,0.0,0.0,0.0,0.0,0.0,0.0,0.0,0.0,0.0,0.0,0.0,0.0,0.0,0.0,0.0,0.0,0.0,0.0,0.0,0.0,0.0,0.0,0.0,0.0,0.0,0.0,0.0,0.0,0.0,0.0,0.0,0.0,0.0,0.0,0.0,0.0,0.0,0.0,0.0,0.0,0.0,0.0,0.0,0.0,0.0,0.0,0.0,0.0,0.0,0.0,0.0,0.0,0.0,0.0,0.0,0.0,0.0,0.0,0.0,0.0,0.0,0.0,0.0,0.0,0.0,0.0,0.0,0.0,0.0,0.0,0.0,0.0,0.0,0.0,0.0,0.0,0.0,0.0,0.0,0.0,0.0,0.0,0.0,0.0,0.0,0.0,0.0,0.0,0.0,0.0,0.0,0.0,0.0,0.0,0.0,0.0,0.0,0.0,0.0,0.0,0.0,0.0,0.0,0.0,0.0,0.0,0.0,0.0,0.0,0.0,0.0,0.0,0.0,0.0,0.0,0.0,0.0,0.0,0.0,0.0,0.0,0.0,0.0,0.0,0.0,0.0,0.0,0.0,0.0,0.0,0.0,0.0,0.0,0.0,0.0,0.0,0.0,0.0,0.0,0.0,0.0,0.0,0.0,0.0,0.0,0.0,0.0,0.0,0.0,0.0,0.0,0.0,0.0,0.0,0.0,0.0,0.0,0.0,0.0,0.0,0.0,0.0,0.0,0.0,0.0,0.0,0.0,0.0,0.0,0.0,0.0,0.0,0.0,0.0,0.0,0.0,0.0,0.0,0.0,0.0,0.0,0.0,0.0,0.0,0.0,0.0,0.0,0.0,0.0,0.0,0.0,0.0,0.0,0.0,0.0,0.0,0.0,0.0,0.0,0.0,0.0,0.0,0.0,0.0,0.0,0.0,0.0,0.0,0.0,0.0,0.0,0.0,0.0,0.0,0.0,0.0,0.0,0.0,0.0,0.0,0.0,0.0,0.0,0.0,0.0,0.0,0.0,0.0,0.0,0.0,0.0,0.0,0.0,0.0,0.0,0.0,0.0,0.0,0.0,0.0,0.0,0.0,0.0,0.0,0.0,0.0,0.0,0.0,0.0,0.0,0.0,0.0,0.0,0.0,0.0,0.0,0.0,0.0,0.0,0.0,0.0,0.0,0.0,0.0,0.0,0.0,0.0,0.0,0.0,0.0,0.0,0.0,0.0,0.0,0.0,0.0,0.0,0.0,0.0,0.0,0.0,0.0,0.0,0.0,0.0,0.0,0.0,0.0,0.0,0.0,0.0,0.0,0.0,0.0,0.0,0.0,0.0,0.0,0.0,0.0,0.0,0.0,0.0,0.0,0.0,0.0,0.0,0.0,0.0,0.0,0.0,0.0,0.0,0.0,0.0,0.0,0.0,0.0,0.0,0.0,0.0,0.0,0.0,0.0,0.0,0.0,0.0,0.0,0.0,0.0,0.0,0.0,0.0,0.0,0.0,0.0,0.0,0.0,0.0,0.0,0.0,0.0,0.0,0.0,0.0,0.0,0.0,0.0,0.0,0.0,0.0,0.0,0.0,0.0,0.0,0.0,0.0,0.0,0.0,0.0,0.0,0.0,0.0,0.0,0.0,0.0,0.0,0.0,0.0,0.0,0.0,0.0,0.0,0.0,0.0,0.0,0.0,0.0,0.0,0.0,0.0,0.0,0.0,0.0,0.0,0.0,0.0,0.0,0.0,0.0,0.0,0.0,0.0,0.0,0.0,0.0,0.0,0.0,0.0,0.0,0.0,0.0,0.0,0.0,0.0,0.0,0.0,0.0,0.0,0.0,0.0,0.0,0.0,0.0,0.0,0.0,0.0,0.0,0.0,0.0,0.0,0.0,0.0,0.0,0.0,0.0,0.0,0.0,0.0,0.0,0.0,0.0,0.0,0.0,0.0,0.0,0.0,0.0,0.0,0.0,0.0,0.0,0.0,0.0,0.0,0.0,0.0,1.3151,0.0,0.0,0.0,0.0,0.0,0.0,0.0,0.0,0.0,0.0,0.0,0.0,0.0,0.0,0.0,0.0,0.0,0.0,0.0,0.0,0.0,0.0,0.0,0.0,0.0,0.0,0.0,0.0,0.0,0.0,0.0,0.0,0.0,0.0,0.0,0.0,0.0,0.0,0.0,0.0,0.0,0.0,0.0,0.0,0.0,0.0,0.0,0.0,0.0,0.0,0.0,0.0,0.0,0.0,0.0,0.0,0.0,0.0,0.0,0.0,0.0,0.0,0.0,0.0,0.0,0.0,0.0,0.0,0.0,0.0,0.0,0.0,0.0,0.0,0.0,0.0,0.0,0.0,0.0,0.0,0.0,0.0,0.0,0.0,0.0,0.0,0.0,0.0,0.0,0.0,0.0,0.0,0.0,0.0,0.0,0.0,0.0,0.0,0.0,0.0,0.0,0.0,0.0,0.0,0.0,0.0,0.0,0.0,0.0,0.0,1.5309,1.4627,1.4369,1.3865,1.3163,0.0,0.0,0.0,0.0,0.0,0.0,0.0,0.0,0.0,0.0,0.0,0.0,0.0,0.0,0.0,0.0,0.0,0.0,0.0,0.0,0.0,0.0,0.0,0.0,0.0,0.0,0.0,0.0,0.0,0.0,0.0,0.0,0.0,0.0,0.0,0.0,0.0,0.0,0.0,0.0,0.0,0.0,0.0,0.0,0.0,0.0,0.0,0.0,0.0,0.0,0.0,0.0,0.0,0.0,0.0,0.0,0.0,0.0,0.0,0.0,0.0,0.0,0.0,0.0,0.0,0.0,0.0,0.0,0.0,0.0,0.0,0.0,0.0,0.0,0.0,0.0,0.0,0.0,0.0,0.0,0.0,0.0,0.0,0.0,0.0,0.0,0.0,0.0,0.0,0.0,0.0,0.0,0.0,0.0,0.0,0.0,0.0,0.0,0.0,0.0,0.0,0.0,0.0,0.0,0.0,0.0,0.0,0.0,0.0,0.0,0.0,0.0,1.4949,1.4602,1.3916,0.0,0.0,0.0,0.0,0.0,0.0,0.0,0.0,0.0,0.0,0.0,0.0,0.0,0.0,0.0,0.0,0.0,0.0,0.0,0.0,0.0,0.0,0.0,0.0,0.0,0.0,0.0,0.0,0.0,0.0,0.0,0.0,0.0,0.0,0.0,0.0,0.0,0.0,0.0,0.0,0.0,0.0,0.0,0.0,0.0,0.0,0.0,0.0,0.0,0.0,0.0,0.0,0.0,0.0,0.0,0.0,0.0,0.0,0.0,0.0,0.0,0.0,0.0,0.0,0.0,0.0,0.0,0.0,0.0,0.0,0.0,0.0,0.0,0.0,0.0,0.0,0.0,0.0,0.0,0.0,0.0,0.0,0.0,0.0,0.0,0.0,0.0,0.0,0.0,0.0,0.0,0.0,0.0,0.0,0.0,0.0,0.0,0.0,0.0,0.0,0.0,0.0,0.0,0.0,0.0,0.0,0.0,0.0,0.0,0.0,1.6296,1.7434,1.7561,0.0,1.6261,0.0,0.0,0.0,0.0,0.0,0.0,0.0,0.0,0.0,0.0,0.0,0.0,0.0,0.0,0.0,0.0,0.0,0.0,0.0,0.0,0.0,0.0,0.0,0.0,0.0,0.0,0.0,0.0,0.0,0.0,0.0,0.0,0.0,0.0,0.0,0.0,0.0,0.0,0.0,0.0,0.0,0.0,0.0,0.0,0.0,0.0,0.0,0.0,0.0,0.0,0.0,0.0,0.0,0.0,0.0,0.0,0.0,0.0,0.0,0.0,0.0,0.0,0.0,0.0,0.0,0.0,0.0,0.0,0.0,0.0,0.0,0.0,0.0,0.0,0.0,0.0,0.0,0.0,0.0,0.0,0.0,0.0,0.0,0.0,0.0,0.0,0.0,0.0,0.0,0.0,0.0,0.0,0.0,0.0,0.0,0.0,0.0,0.0,0.0,0.0,0.0,0.0,0.0,0.0,0.0,0.0,0.0,0.0,0.0,0.0,1.688,1.7482,1.7481,1.7185,0.0,0.0,0.0,0.0,0.0,0.0,0.0,0.0,0.0,0.0,0.0,0.0,0.0,0.0,0.0,0.0,0.0,0.0,0.0,0.0,0.0,0.0,0.0,0.0,0.0,0.0,0.0,0.0,0.0,0.0,0.0,0.0,0.0,0.0,0.0,0.0,0.0,0.0,0.0,0.0,0.0,0.0,0.0,0.0,0.0,0.0,0.0,0.0,0.0,0.0,0.0,0.0,0.0,0.0,0.0,0.0,0.0,0.0,0.0,0.0,0.0,0.0,0.0,0.0,0.0,0.0,0.0,0.0,0.0,0.0,0.0,0.0,0.0,0.0,0.0,0.0,0.0,0.0,0.0,0.0,0.0,0.0,0.0,0.0,0.0,0.0,0.0,0.0,0.0,0.0,0.0,0.0,0.0,0.0,0.0,0.0,0.0,0.0,0.0,0.0,0.0,0.0,0.0,0.0,0.0,0.0,0.0,0.0,0.0,0.0,1.6943,1.7428,1.8089,1.8042,1.7487,1.6415,0.0,0.0,0.0,0.0,0.0,0.0,0.0,0.0,0.0,0.0,0.0,0.0,0.0,0.0,0.0,0.0,0.0,0.0,0.0,0.0,0.0,0.0,0.0,0.0,0.0,0.0,0.0,0.0,0.0,0.0,0.0,0.0,0.0,0.0,0.0,0.0,0.0,0.0,0.0,0.0,0.0,0.0,0.0,0.0,0.0,0.0,0.0,0.0,0.0,0.0,0.0,0.0,0.0,0.0,0.0,0.0,0.0,0.0,0.0,0.0,0.0,0.0,0.0,0.0,0.0,0.0,0.0,0.0,0.0,0.0,0.0,0.0,0.0,0.0,0.0,0.0,0.0,0.0,0.0,0.0,0.0,0.0,0.0,0.0,0.0,0.0,0.0,0.0,0.0,0.0,0.0,0.0,0.0,0.0,0.0,0.0,0.0,0.0,0.0,0.0,0.0,0.0,0.0,0.0,0.0,0.0,0.0,0.0,2.1213,1.8627,1.8121,2.0183,2.0127,1.8745,0.0,0.0,0.0,0.0,0.0,0.0,0.0,0.0,0.0,0.0,0.0,0.0,0.0,0.0,0.0,0.0,0.0,0.0,0.0,0.0,0.0,0.0,0.0,0.0,0.0,0.0,0.0,0.0,0.0,0.0,0.0,0.0,0.0,0.0,0.0,0.0,0.0,0.0,0.0,0.0,0.0,0.0,0.0,0.0,0.0,0.0,0.0,0.0,0.0,0.0,0.0,0.0,0.0,0.0,0.0,0.0,0.0,0.0,0.0,0.0,0.0,0.0,0.0,0.0,0.0,0.0,0.0,0.0,0.0,0.0,0.0,0.0,0.0,0.0,0.0,0.0,0.0,0.0,0.0,0.0,0.0,0.0,0.0,0.0,0.0,0.0,0.0,0.0,0.0,0.0,0.0,0.0,0.0,0.0,0.0,0.0,0.0,0.0,0.0,0.0,0.0,0.0,0.0,0.0,0.0,0.0,0.0,0.0,0.0,1.6379,1.686,1.8894,2.2332,1.9337,1.7659,0.0,0.0,0.0,0.0,0.0,0.0,0.0,0.0,0.0,0.0,0.0,0.0,0.0,0.0,0.0,0.0,0.0,0.0,0.0,0.0,0.0,0.0,0.0,0.0,0.0,0.0,0.0,0.0,0.0,0.0,0.0,0.0,0.0,0.0,0.0,0.0,0.0,0.0,0.0,0.0,0.0,0.0,0.0,0.0,0.0,0.0,0.0,0.0,0.0,0.0,0.0,0.0,0.0,0.0,0.0,0.0,0.0,0.0,0.0,0.0,0.0,0.0,0.0,0.0,0.0,0.0,0.0,0.0,0.0,0.0,0.0,0.0,0.0,0.0,0.0,0.0,0.0,0.0,0.0,0.0,0.0,0.0,0.0,0.0,0.0,0.0,0.0,0.0,0.0,0.0,0.0,0.0,0.0,0.0,0.0,0.0,0.0,0.0,0.0,0.0,0.0,0.0,0.0,0.0,0.0,0.0,0.0,0.0,0.0,1.562,0.0,2.0477,2.2604,1.9453,1.7338,0.0,0.0,0.0,0.0,0.0,0.0,0.0,0.0,0.0,0.0,0.0,0.0,0.0,0.0,0.0,0.0,0.0,0.0,0.0,0.0,0.0,0.0,0.0,0.0,0.0,0.0,0.0,0.0,0.0,0.0,0.0,0.0,0.0,0.0,0.0,0.0,0.0,0.0,0.0,0.0,0.0,0.0,0.0,0.0,0.0,0.0,0.0,0.0,0.0,0.0,0.0,0.0,0.0,0.0,0.0,0.0,0.0,0.0,0.0,0.0,0.0,0.0,0.0,0.0,0.0,0.0,0.0,0.0,0.0,0.0,0.0,0.0,0.0,0.0,0.0,0.0,0.0,0.0,0.0,0.0,0.0,0.0,0.0,0.0,0.0,0.0,0.0,0.0,0.0,0.0,0.0,0.0,0.0,0.0,0.0,0.0,0.0,0.0,0.0,0.0,0.0,0.0,0.0,0.0,0.0,0.0,0.0,0.0,1.5531,2.0095,2.2457,2.2737,2.0966,2.0661,1.7859,0.0,0.0,0.0,0.0,0.0,0.0,0.0,0.0,0.0,0.0,0.0,0.0,0.0,0.0,0.0,0.0,0.0,0.0,0.0,0.0,0.0,0.0,0.0,0.0,0.0,0.0,0.0,0.0,0.0,0.0,0.0,0.0,0.0,0.0,0.0,0.0,0.0,0.0,0.0,0.0,0.0,0.0,0.0,0.0,0.0,0.0,0.0,0.0,0.0,0.0,0.0,0.0,0.0,0.0,0.0,0.0,0.0,0.0,0.0,0.0,0.0,0.0,0.0,0.0,0.0,0.0,0.0,0.0,0.0,0.0,0.0,0.0,0.0,0.0,0.0,0.0,0.0,0.0,0.0,0.0,0.0,0.0,0.0,0.0,0.0,0.0,0.0,0.0,0.0,0.0,0.0,0.0,0.0,0.0,0.0,0.0,0.0,0.0,0.0,0.0,0.0,0.0,0.0,0.0,0.0,0.0,0.0,0.0,0.0,1.8597,2.0492,2.2279,2.3683,1.9895,1.7905,0.0,0.0,0.0,0.0,0.0,0.0,0.0,0.0,0.0,0.0,0.0,0.0,0.0,0.0,0.0,0.0,0.0,0.0,0.0,0.0,0.0,0.0,0.0,0.0,0.0,0.0,0.0,0.0,0.0,0.0,0.0,0.0,0.0,0.0,0.0,0.0,0.0,0.0,0.0,0.0,0.0,0.0,0.0,0.0,0.0,0.0,0.0,0.0,0.0,0.0,0.0,0.0,0.0,0.0,0.0,0.0,0.0,0.0,0.0,0.0,0.0,0.0,0.0,0.0,0.0,0.0,0.0,0.0,0.0,0.0,0.0,0.0,0.0,0.0,0.0,0.0,0.0,0.0,0.0,0.0,0.0,0.0,0.0,0.0,0.0,0.0,0.0,0.0,0.0,0.0,0.0,0.0,0.0,0.0,0.0,0.0,0.0,0.0,0.0,0.0,0.0,0.0,0.0,0.0,0.0,0.0,0.0,0.0,0.0,2.0712,2.2444,2.3844,2.48,2.1038,1.8997,1.8845,0.0,0.0,0.0,0.0,0.0,0.0,0.0,0.0,0.0,0.0,0.0,0.0,0.0,0.0,0.0,0.0,0.0,0.0,0.0,0.0,0.0,0.0,0.0,0.0,0.0,0.0,0.0,0.0,0.0,0.0,0.0,0.0,0.0,0.0,0.0,0.0,0.0,0.0,0.0,0.0,0.0,0.0,0.0,0.0,0.0,0.0,0.0,0.0,0.0,0.0,0.0,0.0,0.0,0.0,0.0,0.0,0.0,0.0,0.0,0.0,0.0,0.0,0.0,0.0,0.0,0.0,0.0,0.0,0.0,0.0,0.0,0.0,0.0,0.0,0.0,0.0,0.0,0.0,0.0,0.0,0.0,0.0,0.0,0.0,0.0,0.0,0.0,0.0,0.0,0.0,0.0,0.0,0.0,0.0,0.0,0.0,0.0,0.0,0.0,0.0,0.0,0.0,0.0,0.0,0.0,0.0,0.0,0.0,2.5472,2.7526,2.7261,2.467,2.3914,2.1141,0.0,0.0,0.0,0.0,0.0,0.0,0.0,0.0,0.0,0.0,0.0,0.0,0.0,0.0,0.0,0.0,0.0,0.0,0.0,0.0,0.0,0.0,0.0,0.0,0.0,0.0,0.0,0.0,0.0,0.0,0.0,0.0,0.0,0.0,0.0,0.0,0.0,0.0,0.0,0.0,0.0,0.0,0.0,0.0,0.0,0.0,0.0,0.0,0.0,0.0,0.0,0.0,0.0,0.0,0.0,0.0,0.0,0.0,0.0,0.0,0.0,0.0,0.0,0.0,0.0,0.0,0.0,0.0,0.0,0.0,0.0,0.0,0.0,0.0,0.0,0.0,0.0,0.0,0.0,0.0,0.0,0.0,0.0,0.0,0.0,0.0,0.0,0.0,0.0,0.0,0.0,0.0,0.0,0.0,0.0,0.0,0.0,0.0,0.0,0.0,0.0,0.0,0.0,0.0,0.0,0.0,0.0,0.0,0.0,2.694,2.9457,3.0491,2.9918,2.6725,2.3904,0.0,0.0,0.0,0.0,0.0,0.0,0.0,0.0,0.0,0.0,0.0,0.0,0.0,0.0,0.0,0.0,0.0,0.0,0.0,0.0,0.0,0.0,0.0,0.0,0.0,0.0,0.0,0.0,0.0,0.0,0.0,0.0,0.0,0.0,0.0,0.0,0.0,0.0,0.0,0.0,0.0,0.0,0.0,0.0,0.0,0.0,0.0,0.0,0.0,0.0,0.0,0.0,0.0,0.0,0.0,0.0,0.0,0.0,0.0,0.0,0.0,0.0,0.0,0.0,0.0,0.0,0.0,0.0,0.0,0.0,0.0,0.0,0.0,0.0,0.0,0.0,0.0,0.0,0.0,0.0,0.0,0.0,0.0,0.0,0.0,0.0,0.0,0.0,0.0,0.0,0.0,0.0,0.0,0.0,0.0,0.0,0.0,0.0,0.0,0.0,0.0,0.0,0.0,0.0,0.0,0.0,0.0,0.0,2.5697,2.9065,3.1734,3.3279,3.3605,3.0019,2.654,0.0,0.0,0.0,0.0,0.0,0.0,0.0,0.0,0.0,0.0,0.0,0.0,0.0,0.0,0.0,0.0,0.0,0.0,0.0,0.0,0.0,0.0,0.0,0.0,0.0,0.0,0.0,0.0,0.0,0.0,0.0,0.0,0.0,0.0,0.0,0.0,0.0,0.0,0.0,0.0,0.0,0.0,0.0,0.0,0.0,0.0,0.0,0.0,0.0,0.0,0.0,0.0,0.0,0.0,0.0,0.0,0.0,0.0,0.0,0.0,0.0,0.0,0.0,0.0,0.0,0.0,0.0,0.0,0.0,0.0,0.0,0.0,0.0,0.0,0.0,0.0,0.0,0.0,0.0,0.0,0.0,0.0,0.0,0.0,0.0,0.0,0.0,0.0,0.0,0.0,0.0,0.0,0.0,0.0,0.0,0.0,0.0,0.0,0.0,0.0,0.0,0.0,0.0,0.0,0.0,0.0,0.0,0.0,2.8387,3.1414,3.3962,3.5402,3.569,3.3083,2.8954,0.0,0.0,0.0,0.0,0.0,0.0,0.0,0.0,0.0,0.0,0.0,0.0,0.0,0.0,0.0,0.0,0.0,0.0,0.0,0.0,0.0,0.0,0.0,0.0,0.0,0.0,0.0,0.0,0.0,0.0,0.0,0.0,0.0,0.0,0.0,0.0,0.0,0.0,0.0,0.0,0.0,0.0,0.0,0.0,0.0,0.0,0.0,0.0,0.0,0.0,0.0,0.0,0.0,0.0,0.0,0.0,0.0,0.0,0.0,0.0,0.0,0.0,0.0,0.0,0.0,0.0,0.0,0.0,0.0,0.0,0.0,0.0,0.0,0.0,0.0,0.0,0.0,0.0,0.0,0.0,0.0,0.0,0.0,0.0,0.0,0.0,0.0,0.0,0.0,0.0,0.0,0.0,0.0,0.0,0.0,0.0,0.0,0.0,0.0,0.0,0.0,0.0,0.0,0.0,0.0,0.0,0.0,0.0,2.9746,3.2992,3.4786,3.5826,3.6141,3.3188,2.9969,0.0,0.0,0.0,0.0,0.0,0.0,0.0,0.0,0.0,0.0,0.0,0.0,0.0,0.0,0.0,0.0,0.0,0.0,0.0,0.0,0.0,0.0,0.0,0.0,0.0,0.0,0.0,0.0,0.0,0.0,0.0,0.0,0.0,0.0,0.0,0.0,0.0,0.0,0.0,0.0,0.0,0.0,0.0,0.0,0.0,0.0,0.0,0.0,1.9378,0.0,0.0,0.0,0.0,0.0,0.0,0.0,0.0,0.0,0.0,0.0,0.0,0.0,0.0,0.0,0.0,0.0,0.0,0.0,0.0,0.0,0.0,0.0,0.0,0.0,0.0,0.0,0.0,0.0,0.0,0.0,0.0,0.0,0.0,0.0,0.0,0.0,0.0,0.0,0.0,0.0,0.0,0.0,0.0,0.0,0.0,0.0,0.0,0.0,0.0,0.0,0.0,0.0,0.0,0.0,0.0,0.0,0.0,0.0,3.1732,3.455,3.5922,3.6699,3.6783,3.4346,3.1412,0.0,0.0,0.0,0.0,0.0,0.0,0.0,0.0,0.0,0.0,0.0,0.0,0.0,0.0,0.0,0.0,0.0,0.0,0.0,0.0,0.0,0.0,0.0,0.0,0.0,0.0,0.0,0.0,0.0,0.0,0.0,0.0,0.0,0.0,0.0,0.0,0.0,0.0,0.0,0.0,0.0,0.0,0.0,0.0,0.0,0.0,0.0,0.0,0.0,0.0,0.0,0.0,0.0,0.0,0.0,0.0,0.0,0.0,0.0,0.0,0.0,0.0,0.0,0.0,0.0,0.0,0.0,0.0,0.0,0.0,0.0,0.0,0.0,0.0,0.0,0.0,0.0,0.0,0.0,0.0,0.0,0.0,0.0,0.0,0.0,0.0,0.0,0.0,0.0,0.0,0.0,0.0,0.0,0.0,0.0,0.0,0.0,0.0,0.0,0.0,0.0,0.0,0.0,0.0,0.0,0.0,0.0,3.0376,3.3529,3.6072,3.7111,3.7632,3.756,3.576,3.2951,2.9106,0.0,0.0,0.0,0.0,0.0,0.0,0.0,0.0,0.0,0.0,0.0,0.0,0.0,0.0,0.0,0.0,0.0,0.0,0.0,0.0,0.0,0.0,0.0,0.0,0.0,0.0,0.0,0.0,0.0,0.0,0.0,0.0,0.0,0.0,0.0,0.0,0.0,0.0,1.9324,2.0855,0.0,0.0,0.0,0.0,0.0,0.0,0.0,0.0,2.1596,0.0,0.0,0.0,0.0,0.0,0.0,0.0,0.0,0.0,0.0,0.0,0.0,0.0,0.0,0.0,0.0,0.0,0.0,0.0,0.0,0.0,0.0,0.0,0.0,0.0,0.0,0.0,0.0,0.0,0.0,0.0,0.0,0.0,0.0,0.0,0.0,0.0,0.0,0.0,0.0,0.0,0.0,0.0,0.0,0.0,0.0,0.0,0.0,0.0,0.0,0.0,0.0,0.0,0.0,0.0,0.0,3.1968,3.1931,3.3757,3.7687,3.7991,3.8098,3.8061,3.6467,3.4037,3.0654,0.0,0.0,0.0,0.0,0.0,0.0,0.0,0.0,0.0,0.0,0.0,0.0,0.0,0.0,0.0,0.0,0.0,0.0,0.0,0.0,0.0,0.0,0.0,0.0,0.0,0.0,0.0,0.0,0.0,0.0,0.0,0.0,0.0,0.0,0.0,0.0,0.0,0.0,0.0,2.4051,2.4463,0.0,0.0,0.0,0.0,0.0,0.0,0.0,0.0,2.1231,0.0,0.0,0.0,0.0,0.0,0.0,0.0,0.0,0.0,0.0,0.0,0.0,0.0,0.0,0.0,0.0,0.0,0.0,0.0,0.0,0.0,0.0,0.0,0.0,0.0,0.0,0.0,0.0,0.0,0.0,0.0,0.0,0.0,0.0,0.0,0.0,0.0,0.0,0.0,0.0,0.0,0.0,0.0,0.0,0.0,0.0,0.0,0.0,0.0,0.0,0.0,0.0,0.0,0.0,0.0,3.1256,3.3051,3.527,3.8074,3.8224,3.8241,3.8168,3.5476,3.2878,0.0,0.0,0.0,0.0,0.0,0.0,0.0,0.0,0.0,0.0,0.0,0.0,0.0,0.0,0.0,0.0,0.0,0.0,0.0,0.0,0.0,0.0,0.0,0.0,0.0,0.0,0.0,0.0,0.0,0.0,0.0,0.0,0.0,0.0,0.0,0.0,0.0,0.0,0.0,0.0,2.4895,2.5668,2.6479,0.0,0.0,0.0,0.0,0.0,0.0,2.3406,2.2459,0.0,0.0,0.0,0.0,0.0,0.0,0.0,0.0,0.0,0.0,0.0,0.0,0.0,0.0,0.0,0.0,0.0,0.0,0.0,0.0,0.0,0.0,0.0,0.0,0.0,0.0,0.0,0.0,0.0,0.0,0.0,0.0,0.0,0.0,0.0,0.0,0.0,0.0,0.0,0.0,0.0,0.0,0.0,0.0,0.0,0.0,0.0,0.0,0.0,0.0,0.0,0.0,0.0,0.0,0.0,3.0265,3.3997,3.6825,3.8612,3.8626,3.8586,3.8477,3.4971,3.2097,0.0,0.0,0.0,0.0,0.0,0.0,0.0,0.0,0.0,0.0,0.0,0.0,0.0,0.0,0.0,0.0,0.0,0.0,0.0,0.0,0.0,0.0,0.0,0.0,0.0,0.0,0.0,0.0,0.0,0.0,0.0,0.0,0.0,0.0,0.0,0.0,0.0,0.0,0.0,0.0,0.0,2.7268,2.7964,2.7413,0.0,0.0,0.0,0.0,2.5596,2.5629,0.0,0.0,0.0,0.0,0.0,0.0,0.0,0.0,0.0,0.0,0.0,0.0,0.0,0.0,0.0,0.0,0.0,0.0,0.0,0.0,0.0,0.0,0.0,0.0,0.0,0.0,0.0,0.0,0.0,0.0,0.0,0.0,0.0,0.0,0.0,0.0,0.0,0.0,0.0,0.0,0.0,0.0,0.0,0.0,0.0,0.0,0.0,0.0,0.0,0.0,0.0,0.0,0.0,0.0,0.0,0.0,3.1976,3.4659,3.746,4.0289,3.9806,3.9442,3.9405,3.6926,3.3835,0.0,0.0,0.0,0.0,0.0,0.0,0.0,0.0,0.0,0.0,0.0,0.0,0.0,0.0,0.0,0.0,0.0,0.0,0.0,0.0,0.0,0.0,0.0,0.0,0.0,0.0,0.0,0.0,0.0,0.0,0.0,0.0,0.0,0.0,0.0,0.0,0.0,0.0,0.0,0.0,0.0,3.0362,2.8615,2.8939,2.9359,0.0,0.0,2.8976,3.0317,3.0705,0.0,0.0,0.0,0.0,0.0,0.0,0.0,0.0,0.0,0.0,0.0,0.0,0.0,0.0,0.0,0.0,0.0,0.0,0.0,0.0,0.0,0.0,0.0,0.0,0.0,0.0,0.0,0.0,0.0,0.0,0.0,0.0,0.0,0.0,0.0,0.0,0.0,0.0,0.0,0.0,0.0,0.0,0.0,0.0,0.0,0.0,0.0,0.0,0.0,0.0,0.0,0.0,0.0,0.0,0.0,2.7696,3.2324,3.5769,3.8546,4.0679,4.0538,4.0198,3.9715,3.6448,3.3076,0.0,0.0,0.0,0.0,0.0,0.0,0.0,0.0,0.0,0.0,0.0,0.0,0.0,0.0,0.0,0.0,0.0,0.0,0.0,0.0,0.0,0.0,0.0,0.0,0.0,0.0,0.0,0.0,0.0,0.0,0.0,0.0,0.0,0.0,0.0,0.0,0.0,0.0,0.0,0.0,0.0,0.0,3.0848,3.2061,0.0,0.0,0.0,3.2593,3.3373,0.0,0.0,0.0,0.0,0.0,0.0,0.0,0.0,0.0,0.0,0.0,0.0,0.0,0.0,0.0,0.0,0.0,0.0,0.0,0.0,0.0,0.0,0.0,0.0,0.0,0.0,0.0,0.0,0.0,0.0,0.0,0.0,0.0,0.0,0.0,0.0,0.0,0.0,0.0,0.0,0.0,0.0,0.0,0.0,0.0,0.0,0.0,0.0,0.0,0.0,0.0,0.0,0.0,0.0,0.0,0.0,0.0,3.2743,3.7226,4.0154,4.1413,4.139,4.1049,4.0382,3.6677,0.0,0.0,0.0,0.0,0.0,0.0,0.0,0.0,0.0,0.0,0.0,0.0,0.0,0.0,0.0,0.0,0.0,0.0,0.0,0.0,0.0,0.0,0.0,0.0,0.0,0.0,0.0,1.47,0.0,0.0,0.0,0.0,0.0,0.0,0.0,0.0,0.0,0.0,0.0,0.0,0.0,0.0,3.2871,3.3535,3.5254,3.6267,0.0,0.0,3.6212,3.6272,3.5891,3.4248,0.0,0.0,0.0,0.0,0.0,0.0,0.0,0.0,0.0,0.0,0.0,0.0,0.0,0.0,0.0,0.0,0.0,0.0,0.0,0.0,0.0,0.0,0.0,0.0,0.0,0.0,0.0,0.0,0.0,0.0,0.0,0.0,0.0,0.0,0.0,0.0,0.0,0.0,0.0,0.0,0.0,0.0,0.0,0.0,0.0,0.0,0.0,0.0,0.0,0.0,0.0,0.0,0.0,0.0,0.0,3.3793,3.9195,4.2424,4.3269,4.2608,4.2204,4.2094,3.8982,3.5356,0.0,0.0,0.0,0.0,0.0,0.0,0.0,0.0,0.0,0.0,0.0,0.0,0.0,0.0,0.0,0.0,0.0,0.0,0.0,0.0,0.0,0.0,0.0,0.0,0.0,0.0,0.0,0.0,0.0,0.0,0.0,0.0,0.0,0.0,0.0,0.0,0.0,0.0,0.0,0.0,0.0,3.5239,3.6288,3.7923,3.8999,0.0,0.0,3.9632,3.9488,4.1133,3.9985,3.2821,0.0,0.0,0.0,0.0,0.0,0.0,0.0,0.0,0.0,0.0,0.0,0.0,0.0,0.0,0.0,0.0,0.0,0.0,0.0,0.0,0.0,0.0,0.0,0.0,0.0,0.0,0.0,0.0,0.0,0.0,0.0,0.0,0.0,0.0,0.0,0.0,0.0,0.0,0.0,0.0,0.0,0.0,0.0,0.0,0.0,0.0,0.0,0.0,0.0,0.0,0.0,0.0,0.0,3.1635,3.4564,3.9672,4.269,4.3469,4.3212,4.28,4.2314,4.0128,3.6868,0.0,0.0,0.0,0.0,0.0,0.0,0.0,0.0,0.0,0.0,0.0,0.0,0.0,0.0,0.0,0.0,0.0,0.0,0.0,0.0,0.0,0.0,0.0,0.0,0.0,0.0,0.0,0.0,2.2771,2.3524,2.3331,0.0,0.0,0.0,0.0,0.0,0.0,0.0,0.0,0.0,0.0,3.8258,3.9642,4.1679,0.0,0.0,4.2517,4.2699,4.263,4.1881,3.9987,3.6059,3.4156,0.0,0.0,0.0,0.0,0.0,0.0,0.0,0.0,0.0,0.0,0.0,0.0,0.0,0.0,0.0,0.0,0.0,0.0,0.0,0.0,0.0,0.0,0.0,0.0,0.0,0.0,0.0,0.0,0.0,0.0,0.0,0.0,0.0,0.0,0.0,0.0,0.0,0.0,0.0,0.0,0.0,0.0,0.0,0.0,0.0,0.0,0.0,0.0,0.0,0.0,0.0,0.0,3.2399,3.5371,4.0406,4.3387,4.4204,4.3975,4.3608,4.302,4.1222,3.8338,0.0,0.0,0.0,0.0,0.0,0.0,0.0,0.0,0.0,0.0,0.0,0.0,0.0,0.0,0.0,0.0,0.0,0.0,0.0,0.0,0.0,0.0,0.0,0.0,0.0,0.0,0.0,0.0,2.5194,2.5545,2.4448,0.0,0.0,0.0,0.0,0.0,0.0,0.0,0.0,0.0,0.0,4.12,4.2987,4.4714,4.5593,4.5011,4.4855,4.478,4.4766,4.3211,4.106,3.8418,0.0,0.0,0.0,0.0,0.0,0.0,0.0,0.0,0.0,0.0,0.0,0.0,0.0,0.0,0.0,0.0,0.0,0.0,0.0,0.0,0.0,0.0,0.0,0.0,0.0,0.0,0.0,0.0,0.0,0.0,2.6942,0.0,0.0,0.0,0.0,0.0,0.0,0.0,0.0,0.0,0.0,0.0,0.0,0.0,0.0,0.0,0.0,0.0,0.0,0.0,0.0,0.0,0.0,3.38,3.6347,4.1801,4.503,4.5773,4.5067,4.4663,4.459,4.2351,3.9892,3.7353,0.0,0.0,0.0,0.0,0.0,0.0,0.0,0.0,0.0,0.0,0.0,0.0,0.0,0.0,0.0,0.0,0.0,0.0,0.0,0.0,0.0,0.0,0.0,0.0,0.0,0.0,2.5661,2.5864,2.5387,0.0,0.0,0.0,0.0,0.0,0.0,0.0,0.0,0.0,0.0,4.1941,4.3915,4.6232,4.6665,4.6738,4.6584,4.6151,4.5761,4.5653,4.5792,4.4401,0.0,0.0,0.0,0.0,0.0,0.0,0.0,0.0,0.0,0.0,0.0,0.0,0.0,0.0,0.0,0.0,0.0,0.0,0.0,0.0,0.0,0.0,0.0,0.0,0.0,0.0,0.0,4.0614,3.7778,0.0,0.0,0.0,0.0,0.0,0.0,0.0,0.0,0.0,0.0,0.0,4.2702,4.4341,0.0,0.0,0.0,0.0,0.0,0.0,0.0,0.0,0.0,0.0,0.0,0.0,3.5415,3.9452,4.3452,4.5883,4.6645,4.5911,4.5516,4.548,4.3681,4.0837,3.6945,0.0,0.0,0.0,0.0,0.0,0.0,0.0,0.0,0.0,0.0,0.0,0.0,0.0,0.0,0.0,0.0,0.0,0.0,0.0,0.0,0.0,0.0,0.0,0.0,0.0,2.7414,0.0,0.0,0.0,0.0,0.0,0.0,0.0,0.0,0.0,0.0,0.0,3.9214,4.2033,4.4777,4.699,4.837,4.899,4.9279,0.0,0.0,0.0,0.0,0.0,0.0,0.0,0.0,0.0,0.0,0.0,0.0,0.0,0.0,4.3308,3.6834,3.4718,3.4216,3.5025,0.0,0.0,0.0,0.0,0.0,0.0,0.0,0.0,0.0,0.0,0.0,0.0,0.0,0.0,4.7207,0.0,4.4071,0.0,0.0,0.0,0.0,0.0,0.0,0.0,0.0,4.6891,4.8932,4.9472,5.1065,5.0703,0.0,4.7338,4.2954,0.0,0.0,0.0,0.0,0.0,0.0,0.0,0.0,3.7918,4.1874,4.5406,4.7572,4.8287,4.7609,4.7177,4.7177,4.5342,4.2492,3.8626,3.5929,3.3549,0.0,0.0,0.0,0.0,0.0,0.0,0.0,0.0,0.0,0.0,0.0,0.0,0.0,0.0,0.0,0.0,0.0,0.0,0.0,0.0,0.0,0.0,0.0,2.9596,0.0,0.0,0.0,0.0,0.0,0.0,0.0,0.0,0.0,3.6754,4.0647,4.4094,4.5514,4.8123,5.0136,5.0699,0.0,0.0,0.0,0.0,0.0,0.0,0.0,4.6966,4.8003,4.6744,4.583,4.6602,4.7452,4.8015,4.7981,0.0,0.0,4.264,4.0956,4.0652,4.1155,4.1,4.0884,4.1196,4.2346,4.3246,0.0,0.0,0.0,0.0,0.0,0.0,0.0,0.0,5.3053,5.2988,0.0,5.1074,0.0,0.0,0.0,0.0,0.0,4.8015,0.0,0.0,5.6773,5.9096,5.761,5.7546,5.6756,5.5307,5.5827,5.3273,4.7616,3.9263,0.0,0.0,0.0,0.0,0.0,0.0,4.1303,4.3873,4.7728,5.0078,5.0875,5.0115,4.9684,4.9574,4.7288,4.4901,4.2543,4.0899,3.861,3.5517,3.1665,0.0,0.0,0.0,0.0,0.0,0.0,0.0,0.0,0.0,0.0,0.0,0.0,0.0,0.0,0.0,0.0,0.0,0.0,0.0,0.0,3.1623,0.0,0.0,0.0,0.0,0.0,0.0,0.0,0.0,0.0,0.0,4.1646,4.5657,4.9175,5.0138,0.0,0.0,0.0,0.0,5.3118,5.3193,5.2459,5.166,5.0858,5.0717,5.025,4.8781,0.0,0.0,4.9055,4.9273,4.9378,4.7878,4.9263,5.0069,5.0296,4.94,4.9019,4.9115,4.8385,4.8462,4.9202,4.9572,5.0178,6.5942,0.0,0.0,0.0,0.0,6.0194,6.215,6.5526,6.4387,6.2866,6.1159,5.9526,0.0,0.0,0.0,0.0,0.0,0.0,5.5669,5.7192,5.969,6.0879,6.1001,6.099,6.0433,5.9441,5.8475,5.7076,5.5205,5.0462,4.4066,3.6362,0.0,0.0,0.0,0.0,4.5966,4.9417,5.1279,5.2553,5.3324,5.2601,5.161,5.0472,4.9197,4.7645,4.5801,4.4745,4.2964,4.0368,3.7601,0.0,0.0,0.0,0.0,0.0,0.0,0.0,0.0,0.0,0.0,0.0,0.0,0.0,0.0,0.0,0.0,0.0,0.0,0.0,3.1345,3.3553,3.4934,0.0,0.0,0.0,0.0,0.0,0.0,0.0,0.0,0.0,4.9941,5.0688,5.161,0.0,0.0,5.465,5.49,5.4862,5.5295,5.6467,5.6412,0.0,0.0,5.4876,5.4334,5.4982,5.5658,5.5873,5.518,5.4797,5.4619,5.4643,5.5363,5.5673,5.4895,5.2072,5.022,5.0667,5.0741,5.0708,5.1167,5.2356,5.3323,7.5057,6.9843,6.6165,6.5411,6.6711,6.6562,6.8382,7.1366,7.04,6.9472,6.858,6.6636,6.2773,5.7621,5.6506,0.0,0.0,0.0,6.0953,6.2365,6.3219,6.3713,6.385,6.3888,6.3256,6.2105,6.1058,6.0188,5.9455,5.6758,5.1873,4.4974,0.0,0.0,4.3836,4.6774,4.9664,5.238,5.3592,5.4399,5.4887,5.4399,5.3555,5.227,5.1767,5.0729,4.9104,4.826,4.7021,4.5232,4.2337,3.9084,0.0,0.0,0.0,0.0,0.0,0.0,0.0,0.0,0.0,0.0,0.0,2.6441,2.498,0.0,0.0,0.0,3.2161,3.471,3.6409,3.8729,0.0,0.0,0.0,0.0,0.0,0.0,0.0,4.8457,5.1944,5.4472,5.5426,5.5032,5.4829,5.5364,5.6471,5.7256,5.7131,0.0,5.7908,5.8726,5.8867,5.8802,5.8587,5.7714,5.734,5.8297,5.8409,5.84,5.8352,5.7931,5.7697,5.7809,5.7969,5.7833,5.6926,5.4422,5.2719,5.3234,5.3741,5.3925,5.3448,5.4785,5.5969,8.2192,8.1523,7.3967,7.0722,7.0648,7.1354,7.2134,7.2865,7.2828,7.3571,7.4686,7.2356,6.9942,6.7342,6.375,0.0,6.3182,6.5596,6.6599,6.6525,6.7231,6.7119,6.6302,6.6228,6.5336,6.3776,6.3674,6.2838,6.1359,5.9567,5.7895,5.6301,5.2551,5.0478,5.0198,5.1657,5.2868,5.3691,5.5097,5.5805,5.5805,5.5732,5.5317,5.462,5.4473,5.3628,5.2134,5.1316,5.0472,4.9537,4.5938,4.3094,4.1242,0.0,0.0,0.0,0.0,0.0,0.0,0.0,0.0,0.0,0.0,0.0,0.0,0.0,0.0,0.0,3.9804,0.0,4.3515,4.5608,0.0,0.0,0.0,4.4413,4.625,4.9666,5.2491,5.4074,0.0,0.0,5.8782,5.8818,5.8729,5.83,5.9635,6.0409,5.978,6.0282,6.0643,6.0349,6.0252,6.0095,5.97,5.945,5.9347,5.9384,5.944,5.9516,5.944,5.9421,5.9046,5.8427,5.8136,5.7987,5.7173,5.7052,5.6858,5.6374,5.6944,5.7181,5.6,5.6939,5.7893,8.3812,8.3604,8.1063,7.9242,7.8128,7.8276,7.8462,7.8625,7.803,7.7658,7.7287,7.5466,7.2914,7.0016,6.9694,6.9323,6.8976,7.0809,7.1342,7.071,7.0239,6.9311,6.7936,6.7305,6.6488,6.5522,6.5462,6.517,6.4547,6.3478,6.2314,6.1091,5.9537,5.7248,5.4337,5.5768,5.6969,5.7765,5.7556,5.7446,5.7409,5.6822,5.6418,5.6235,5.506,5.3922,5.292,5.2123,5.1069,4.9647,4.8022,4.5883,4.3029,3.8339,0.0,0.0,0.0,0.0,0.0,0.0,0.0,0.0,0.0,3.6112,3.1201,0.0,3.9452,0.0,4.341,4.6147,4.6864,4.7895,0.0,0.0,5.0772,5.1792,5.574,5.65,5.7333,5.8914,6.0846,6.2041,6.2041,6.2585,6.2938,6.2794,6.1828,6.1398,6.2068,6.2361,6.2483,6.2355,6.2353,6.2091,6.14,6.0986,6.0638,6.0332,6.0783,6.1196,6.1176,6.1176,6.1092,6.0885,6.0847,6.0743,6.0478,5.9991,5.9253,5.8585,5.7901,5.7324,5.7059,5.7609,5.8073,8.6375,8.6004,8.5573,8.4198,8.2303,8.1597,8.13,8.1226,8.0408,7.9776,7.9242,7.7608,7.549,7.3187,7.3608,7.3534,7.3136,7.367,7.3497,7.2717,7.1886,7.0611,6.9051,6.8568,6.7751,6.6636,6.6589,6.6246,6.5681,6.4808,6.418,6.3906,6.3099,6.1422,5.8914,5.8988,5.9318,5.9747,5.9281,5.9061,5.9061,5.8279,5.7691,5.7336,5.6124,5.4755,5.3251,5.2567,5.1276,4.9387,4.8281,4.6741,4.4571,4.1397,3.8266,0.0,0.0,0.0,0.0,0.0,0.0,0.0,0.0,0.0,0.0,0.0,4.437,4.5838,4.9248,5.1768,5.2777,5.4157,5.5703,5.7337,5.7347,5.842,6.1426,6.1679,6.2078,6.3295,6.3961,6.4265,6.4251,6.4323,6.4541,6.4867,6.3939,6.3318,6.3625,6.397,6.4168,6.3994,6.3945,6.3702,6.3061,6.2459,6.2094,6.2279,6.2795,6.332,6.3647,6.3893,6.3919,6.3533,6.3158,6.2772,6.2385,6.1616,6.0856,6.0407,5.9787,5.8857,5.7704,5.8352,5.9214,8.879,8.8248,8.7898,8.6635,8.474,8.3046,8.2303,8.2266,8.1486,8.1077,8.078,7.9182,7.7584,7.6172,7.6135,7.6061,7.5912,7.5243,7.4463,7.3683,7.2754,7.1527,7.0016,6.9794,6.8976,6.7627,6.7394,6.6827,6.5965,6.5164,6.5026,6.5411,6.4751,6.398,6.3086,6.1728,6.0786,6.026,6.0224,6.0297,6.037,5.96,5.8866,5.818,5.7068,5.5467,5.3385,5.2694,5.138,4.9224,4.8187,4.7293,4.6331,4.4484,4.2504,0.0,4.0293,0.0,0.0,0.0,0.0,0.0,0.0,0.0,0.0,4.8397,5.0095,5.2858,5.6014,5.8369,5.9541,6.1584,6.2828,6.2622,6.3342,6.414,6.4829,6.5612,6.6344,6.7069,6.6511,6.6062,6.6062,6.5446,6.5301,6.604,6.6127,6.583,6.5257,6.5467,6.5559,6.5163,6.4984,6.4532,6.4106,6.3652,6.3516,6.4056,6.4433,6.5158,6.5467,6.6052,6.6285,6.5561,6.496,6.4397,6.3683,6.282,6.2144,6.2106,6.1825,6.0801,5.8912,5.9524,6.082,8.8604,8.888,8.6895,8.6576,8.7192,8.4941,8.3923,8.3938,8.3789,8.2957,8.1634,7.9999,7.8736,7.7844,7.7844,7.7473,7.6841,7.6692,7.6172,7.528,7.3868,7.2679,7.1676,7.0363,6.9521,6.9199,6.8543,6.805,6.7676,6.7466,6.6994,6.6292,6.6109,6.5632,6.4848,0.0,0.0,0.0,5.9416,5.9747,6.0346,5.96,5.9111,5.8902,5.6308,0.0,5.3617,5.2791,5.1656,5.0271,5.1042,0.0,0.0,0.0,0.0,0.0,0.0,0.0,0.0,0.0,0.0,0.0,5.2858,5.1648,5.0411,5.5464,5.8841,5.8914,6.1777,6.3807,6.405,6.4948,6.5527,6.5546,6.6677,6.7555,6.7737,6.8262,6.877,6.8879,6.8666,6.8503,6.8395,6.8358,6.8286,6.8322,6.8503,6.8467,6.8214,6.7221,6.6308,6.5633,6.5023,6.4398,6.3897,6.4218,6.4127,6.3763,6.4253,6.4692,6.4514,6.517,6.5776,6.5588,6.5947,6.6247,6.6059,6.4895,6.3769,6.3806,6.2755,6.1647,6.1084,6.148,6.2048,8.9273,0.0,8.7527,8.6858,0.0,8.5521,8.474,8.4369,8.3975,8.3121,8.1931,8.0668,7.9628,7.8885,7.8476,7.8067,7.7658,7.7287,7.6878,7.6358,7.476,7.3571,7.2754,7.1527,7.0685,7.0276,6.9868,6.9335,6.8723,6.8711,6.8125,6.7076,6.7113,6.6476,6.5288,6.4481,6.3233,6.163,6.163,6.1458,6.1146,6.0652,5.9883,5.8737,0.0,0.0,0.0,0.0,0.0,0.0,0.0,0.0,0.0,0.0,0.0,4.9299,5.0233,5.0876,5.1052,5.3575,5.608,5.8289,6.0084,5.9841,5.6949,6.1557,6.4604,6.464,6.6463,6.7807,6.8142,6.8476,6.864,6.8643,6.9544,7.023,7.0215,7.0142,7.0243,7.0519,6.9854,6.9277,6.9313,6.9237,6.9207,6.9192,6.9192,6.9192,6.9119,6.854,6.7583,6.6388,6.5518,6.4793,6.4175,6.3989,6.4153,6.3821,6.4093,6.4572,6.5157,6.59,6.6587,6.716,6.7401,6.7411,6.7261,6.6022,6.4998,6.5271,6.4182,6.3243,6.344,6.2936,6.2517,8.9904,8.9198,8.827,8.7155,8.6004,8.5706,8.5149,8.4347,0.0,0.0,0.0,8.13,8.0482,7.9665,7.9033,7.8587,7.8253,7.777,7.7361,7.7027,7.554,7.4389,7.3571,7.2642,7.1812,7.1131,7.0982,7.041,6.9536,6.9523,6.9047,6.8205,6.8104,6.7393,6.5912,6.442,6.3943,6.4457,6.411,6.3398,6.2359,6.1881,6.0809,5.8969,5.8225,5.6649,5.4142,5.3486,5.236,5.0591,5.0414,5.0636,5.1198,5.2451,5.3803,5.5245,5.7605,5.885,5.8675,6.1196,6.2667,6.2419,6.5525,6.6424,6.405,6.6733,6.8825,6.9472,7.0403,7.1168,7.1713,7.1626,7.1582,7.1611,7.202,7.2312,7.2443,7.1938,7.1814,7.2164,7.1147,7.0081,7.0145,6.9909,6.9621,6.9626,6.9735,6.9626,6.9554,6.9337,6.8648,6.7474,6.6641,6.5808,6.5171,6.4533,6.4106,6.4553,6.4425,6.4846,6.6136,6.7046,6.7781,6.8548,6.8479,6.8302,6.8114,6.7025,6.6237,6.6886,6.5834,6.4933,6.5404,6.4388,6.3541,8.9384,8.9161,8.7638,8.7267,8.7638,8.6189,8.5149,8.4406,8.4257,8.3789,8.3009,8.2192,8.1337,8.0505,8.0394,7.9628,7.8364,7.8922,7.8439,7.7064,7.6098,7.5206,7.4351,7.2902,7.2122,7.1973,7.1242,7.0694,7.0386,7.0323,7.0139,6.9784,6.9743,6.9265,6.8371,6.7467,6.6733,6.6132,6.4175,6.3401,6.3824,6.263,6.1819,6.1408,5.8788,5.6979,5.6094,5.5329,5.4555,5.391,5.5596,5.6391,5.5908,5.718,5.8131,5.8426,5.9855,6.1282,6.2533,6.4742,6.6882,6.8781,7.0131,6.9993,6.8335,7.0367,7.1872,7.2055,7.3266,7.428,7.4338,7.3714,7.3516,7.411,7.378,7.3722,7.4352,7.4174,7.4062,7.4208,7.3377,7.2568,7.2278,7.1765,7.1252,7.1179,7.0951,7.1132,7.0987,7.0025,6.9228,6.8829,6.8199,6.7692,6.7184,6.6771,6.6062,6.5482,6.5655,6.5783,6.6124,6.6924,6.7772,6.8163,6.8817,6.908,6.9042,6.8291,6.7851,6.7926,6.7186,6.6548,6.6773,6.6339,6.6097,8.8657,8.8493,8.7304,8.7044,8.7304,8.6115,8.5149,8.4406,8.4406,8.3938,8.3158,8.234,8.1783,8.1374,8.0928,8.0074,7.8959,7.933,7.8885,7.7733,7.6915,7.6321,7.5875,7.4723,7.3943,7.3497,7.3075,7.234,7.1392,7.1305,7.0924,7.0285,7.0151,6.9889,6.9559,6.9206,6.8825,6.8421,6.6098,6.4717,6.4265,6.3953,6.3423,6.2689,6.1478,6.0716,6.0205,5.9365,5.8844,5.8718,5.9354,5.9738,5.9791,6.0497,6.1254,6.2066,6.3113,6.4177,6.5272,6.7077,6.8917,7.0791,7.129,7.1339,7.0967,7.3106,7.4258,7.3876,7.45,7.4903,7.4903,7.4588,7.4515,7.4867,7.4918,7.5139,7.5417,7.5079,7.4997,7.5275,7.4604,7.3846,7.3331,7.2813,7.2237,7.1817,7.1593,7.1784,7.2581,7.1458,7.0134,6.9373,6.8866,6.8488,6.8126,6.7728,6.7329,6.6967,6.6693,6.6861,6.7312,6.8111,6.8763,6.9746,7.0319,7.0506,7.0506,6.9917,6.9616,6.9842,6.8903,6.8377,6.8624,6.8642,6.8168,8.81,8.8025,8.7378,8.7081,8.7007,8.6226,8.5521,8.4926,8.474,8.431,8.3678,8.2712,8.2154,8.1931,8.1486,8.0631,7.9628,7.9888,7.9516,7.855,7.7733,7.7361,7.725,7.6321,7.5466,7.4909,7.4686,7.3877,7.2683,7.2373,7.177,7.0896,7.0546,7.0367,7.0367,7.0367,7.0367,7.0257,6.8715,6.7049,6.5482,6.575,6.5388,6.446,6.4548,6.4525,6.4107,6.3307,6.2854,6.2847,6.2624,6.2573,6.2871,6.3431,6.4286,6.5397,6.624,6.7068,6.7965,6.8931,7.0193,7.1641,7.1769,7.2096,7.2903,7.4697,7.5599,7.5065,7.5254,7.5491,7.5491,7.527,7.516,7.5197,7.5894,7.6313,7.6313,7.5946,7.6041,7.6665,7.584,7.476,7.4135,7.3477,7.2777,7.2008,7.1832,7.2339,7.31,7.2395,7.1241,7.017,6.959,6.93,6.8633,6.838,6.8271,6.8271,6.7898,6.8162,6.9031,6.9477,7.0078,7.1223,7.1558,7.1558,7.1595,7.1193,7.1006,7.122,7.0469,6.9981,7.0453,7.0405,6.9939,8.81,8.81,8.7973,8.7973,8.7877,8.7044,8.6598,8.6412,8.5818,8.5483,8.5075,8.3789,8.2712,8.2154,8.2675,8.1671,7.9776,8.1077,8.0891,7.9405,7.855,7.8216,7.8104,7.6618,7.5763,7.5652,7.5057,7.4606,7.4115,7.3458,7.2902,7.2429,7.1635,7.1233,7.1233,7.1233,7.1233,7.1233,7.1688,7.0887,6.8802,6.8119,6.7783,6.7634,6.6992,6.6634,6.6698,6.5835,6.5189,6.466,6.5759,6.5817,6.4905,6.645,6.762,6.7821,6.8537,6.9587,7.0843,7.0587,7.0973,7.2354,7.2524,7.2851,7.3584,7.4503,7.5081,7.5155,7.6219,7.6824,7.7032,7.6371,7.5946,7.6019,7.6702,7.7179,7.7252,7.7839,7.8552,7.9376,7.7252,7.5886,7.5492,7.4354,7.3094,7.2322,7.2512,7.273,7.2678,7.2547,7.2235,7.1401,7.0749,7.0315,7.0061,6.9518,6.9264,6.9186,6.9384,6.9778,7.0277,7.0758,7.1203,7.1909,7.1895,7.1971,7.1895,7.1595,7.1719,7.1971,7.1745,7.152,7.1595,7.1549,7.1289,8.81,8.81,8.81,8.81,8.8047,8.7712,8.7267,8.6747,8.5929,8.5335,8.4889,8.4666,8.4198,8.3418,8.3269,8.2377,8.1077,8.1709,8.1374,8.0259,7.9837,7.9739,7.9651,7.9056,7.8253,7.7324,7.6952,7.6257,7.5322,7.4795,7.4497,7.4287,7.3814,7.3537,7.345,7.3435,7.3435,7.3435,7.3766,7.3428,7.2473,7.0868,6.9989,7.0001,6.9684,7.0004,7.0786,7.0201,6.9857,6.9994,7.0193,7.0019,6.9398,7.0292,7.0823,7.0848,7.1097,7.1583,7.2161,7.1933,7.2036,7.2657,7.2714,7.2849,7.3134,7.3854,7.4489,7.4988,7.5551,7.6083,7.6515,7.6276,7.6276,7.6775,7.7561,7.8075,7.8075,7.8369,7.8772,7.8919,7.7781,7.6796,7.6442,7.4848,7.3614,7.3295,7.3333,7.3265,7.3796,7.3416,7.2756,7.2418,7.2029,7.1567,7.1132,7.0806,7.0553,7.0609,7.0943,7.136,7.1732,7.2231,7.267,7.3039,7.3048,7.3059,7.3258,7.3172,7.3172,7.3172,7.3172,7.3172,7.3172,7.277,7.2589,8.81,8.81,8.81,8.81,8.81,8.81,8.775,8.7155,8.6524,8.5818,8.5149,8.5446,8.5261,8.4703,8.4124,8.3195,8.2117,8.2229,8.1746,8.078,8.0705,8.0705,8.0705,8.0445,7.9874,7.9033,7.8476,7.7398,7.5959,7.5689,7.5551,7.5462,7.5291,7.5095,7.5014,7.5117,7.5234,7.5234,7.5417,7.5454,7.5014,7.3509,7.2555,7.2361,7.2306,7.2863,7.4019,7.3507,7.3325,7.3675,7.3385,7.3055,7.2647,7.305,7.3224,7.3064,7.3229,7.312,7.2762,7.2887,7.2908,7.2734,7.2692,7.2795,7.3004,7.3307,7.3927,7.4886,7.5029,7.5389,7.6313,7.6866,7.7231,7.7399,7.8259,7.8846,7.8626,7.8589,7.8699,7.8772,7.7986,7.7163,7.676,7.5217,7.4071,7.4309,7.4211,7.4092,7.5009,7.4321,7.3634,7.3363,7.3003,7.2327,7.1712,7.1675,7.1748,7.1651,7.1842,7.2375,7.2885,7.3285,7.3678,7.3674,7.4073,7.4148,7.396,7.4073,7.461,7.4749,7.4674,7.4486,7.4423,7.3822,7.3781,8.81,8.81,8.81,8.81,8.81,8.81,8.8084,8.7935,8.7898,8.7415,8.6524,8.5966,8.5595,8.5521,8.5483,8.422,8.2377,8.2823,8.2326,8.0965,8.0817,8.0742,8.0617,7.9911,7.9948,8.0371,7.9256,7.7733,7.6084,7.5837,7.5606,7.569,7.5621,7.5352,7.547,7.5941,7.6071,7.6145,7.6717,7.6812,7.6166,7.5946,7.5439,7.4829,7.4705,7.469,7.488,7.4852,7.4552,7.3869,7.4482,7.4212,7.3091,7.4115,7.456,7.3981,7.4462,7.4248,7.3135,7.3351,7.3452,7.2915,7.2837,7.2968,7.3451,7.3282,7.3641,7.4863,7.516,7.5745,7.7053,7.8256,7.872,7.7803,7.8846,7.9265,7.8772,7.8772,7.8972,7.9339,7.8479,7.7252,7.635,7.5417,7.491,7.5012,7.5376,7.554,7.5034,7.5056,7.4804,7.4049,7.3321,7.242,7.1784,7.182,7.1986,7.1874,7.2071,7.2812,7.3164,7.349,7.3887,7.4212,7.4336,7.4423,7.4411,7.4836,7.5511,7.5737,7.5549,7.5399,7.5361,7.4685,7.4744,8.81,8.81,8.81,8.81,8.81,8.81,8.81,8.8047,8.749,8.7118,8.6895,8.7044,8.6598,8.5632,8.6709,8.587,8.3715,8.3812,8.3366,8.2377,8.2303,8.2288,8.2251,8.2006,8.1671,8.1448,8.0928,8.0074,7.9056,7.8889,7.8818,7.8718,7.8654,7.8293,7.7784,7.7835,7.7672,7.7141,7.7383,7.7558,7.765,7.7708,7.7524,7.7231,7.624,7.5894,7.6445,7.6445,7.6301,7.6047,7.6301,7.6209,7.5778,7.6145,7.6125,7.5476,7.5618,7.555,7.4942,7.4182,7.3946,7.4205,7.3698,7.3355,7.328,7.3746,7.4426,7.4991,7.6029,7.6816,7.7289,7.8358,7.9213,7.9653,7.9727,7.989,7.9984,7.9727,7.9669,8.0204,7.9543,7.8259,7.657,7.5836,7.5689,7.5674,7.5886,7.5855,7.5715,7.5671,7.5333,7.4207,7.3692,7.3175,7.1832,7.1759,7.1816,7.1812,7.2033,7.2545,7.2986,7.3487,7.3901,7.4376,7.4535,7.4986,7.5136,7.5737,7.6413,7.6525,7.6338,7.6262,7.6225,7.5699,7.5931,8.81,8.81,8.81,8.81,8.81,8.81,8.81,8.801,8.749,8.7081,8.6969,8.7415,8.7007,8.6264,8.7155,8.6821,8.5186,8.4666,8.3827,8.286,8.2823,8.2823,8.2823,8.2823,8.2675,8.2377,8.2117,8.156,8.0817,8.0705,8.0634,8.0561,8.054,8.0008,7.9276,7.9291,7.8869,7.7968,7.8129,7.8517,7.8719,7.8877,7.8993,7.8772,7.7598,7.6995,7.7326,7.7326,7.7326,7.7326,7.7582,7.7839,7.8075,7.8096,7.7776,7.7098,7.7235,7.6968,7.6283,7.5661,7.5416,7.5391,7.4951,7.4413,7.4247,7.4706,7.5038,7.5576,7.6534,7.7434,7.7879,7.8723,7.9711,8.0388,7.989,7.9874,8.0755,8.0036,7.969,7.991,7.9617,7.8405,7.6974,7.657,7.6481,7.6481,7.6497,7.6481,7.6466,7.6338,7.601,7.4882,7.4738,7.429,7.3333,7.2964,7.206,7.1879,7.2539,7.2876,7.3291,7.3709,7.4138,7.4567,7.5023,7.5549,7.6112,7.6713,7.7013,7.7227,7.7164,7.7089,7.6938,7.6788,7.694,8.81,8.81,8.81,8.8174,8.8211,8.8121,8.8137,8.8158,8.8062,8.7564,8.7044,8.6932,8.7007,8.6858,8.7044,8.6821,8.6375,8.5223,8.3901,8.26,8.234,8.2303,8.234,8.2415,8.2675,8.3046,8.2452,8.1671,8.0965,8.0965,8.0951,8.0811,8.0843,8.0451,7.9399,8.0023,7.9512,7.8581,7.9252,7.9566,7.9041,7.9506,7.9832,7.9743,7.8993,7.8259,7.7472,7.7362,7.7326,7.7399,7.8112,7.8972,7.9486,7.9596,7.9328,7.8753,7.9247,7.8515,7.6949,7.763,7.7469,7.6763,7.6282,7.6403,7.6508,7.5996,7.5673,7.616,7.7056,7.7826,7.8618,7.9758,8.0534,7.9963,7.9522,7.969,8.0424,7.969,7.8662,7.8883,7.8883,7.8295,7.7582,7.7179,7.7142,7.7142,7.7142,7.7142,7.709,7.6997,7.7014,7.6705,7.601,7.5257,7.4743,7.4207,7.2974,7.2138,7.3076,7.3757,7.4222,7.4694,7.5035,7.5415,7.5812,7.6375,7.7314,7.7839,7.8065,7.8215,7.8065,7.7877,7.7802,7.7689,7.7577,8.81,8.81,8.81,8.8434,8.879,8.8344,8.8381,8.8843,8.8344,8.7951,8.7712,8.7712,8.7712,8.7675,8.7691,8.7378,8.6784,8.6226,8.5446,8.4518,8.3901,8.3641,8.3641,8.3641,8.3492,8.3306,8.3529,8.3232,8.2549,8.2415,8.24,8.2385,8.2356,8.1933,8.1139,8.1318,8.0814,7.9882,8.0082,8.0332,8.045,8.063,8.0698,8.0624,8.0388,7.9874,7.9029,7.7913,7.7326,7.7362,7.8133,7.8972,7.9633,7.9816,7.9668,7.9523,7.9636,7.9888,7.954,7.893,7.8739,7.8531,7.8176,7.7686,7.7563,7.7943,7.7754,7.738,7.8218,7.902,7.8869,7.951,8.0534,8.1358,8.0755,8.0571,8.1452,8.1305,8.0571,7.9633,7.9449,7.8809,7.7729,7.7326,7.7362,7.7326,7.7326,7.7326,7.7273,7.7243,7.6934,7.6494,7.6205,7.6214,7.5735,7.5432,7.4809,7.3969,7.438,7.4584,7.5105,7.5641,7.5982,7.6253,7.6651,7.7276,7.8215,7.8703,7.8816,7.8928,7.8703,7.8628,7.8666,7.8553,7.8365,8.81,8.8121,8.8434,8.8827,8.9273,8.9028,8.9289,8.9607,8.8864,8.8567,8.8493,8.8233,8.81,8.81,8.81,8.7787,8.7267,8.6969,8.6709,8.6338,8.5298,8.4852,8.4867,8.4852,8.4644,8.4257,8.4592,8.4592,8.4109,8.4087,8.396,8.3715,8.3641,8.3032,8.2192,8.2266,8.1873,8.0821,8.1081,8.1377,8.1354,8.1518,8.1592,8.1411,8.1158,8.0755,8.0167,7.8956,7.8206,7.8369,7.9029,7.9837,8.0587,8.0734,8.0697,8.0697,8.0697,8.0828,8.089,8.0346,7.9966,8.0101,7.9756,7.9283,7.8961,7.972,7.9536,7.9132,7.9892,8.0477,8.0151,8.0351,8.1269,8.248,8.1599,8.1452,8.2003,8.2186,8.1636,8.0608,8.0241,7.9396,7.828,7.7766,7.7619,7.7436,7.7326,7.7326,7.7326,7.7326,7.6922,7.6801,7.7024,7.6915,7.6653,7.6516,7.6518,7.6152,7.5931,7.5769,7.5774,7.648,7.6967,7.7065,7.7389,7.7802,7.8628,7.8891,7.9041,7.9116,7.9116,7.9041,7.8928,7.8966,7.8853,8.8248,8.8285,8.9013,8.9421,8.9607,9.0127,9.0424,9.0424,8.9719,8.931,8.9124,8.8567,8.8174,8.8137,8.81,8.8062,8.7951,8.7341,8.7341,8.7394,8.6576,8.5818,8.5669,8.5669,8.5521,8.5409,8.5558,8.5558,8.5298,8.5186,8.5149,8.4369,8.4124,8.3678,8.2675,8.2898,8.2474,8.1591,8.2268,8.2377,8.1714,8.2128,8.2302,8.2157,8.1553,8.1259,8.117,8.0661,8.0147,8.0073,8.0498,8.1158,8.2003,8.2239,8.2003,8.1966,8.215,8.1856,8.1525,8.1901,8.1905,8.1326,8.1276,8.1037,8.1054,8.1216,8.1305,8.1032,8.1765,8.226,8.215,8.226,8.2737,8.3197,8.237,8.1819,8.2076,8.2186,8.1819,8.1269,8.0959,8.0351,7.8772,7.8589,7.8133,7.7729,7.7509,7.7546,7.7546,7.7582,7.7399,7.7473,7.7692,7.7913,7.7718,7.8073,7.8029,7.7563,7.7437,7.7353,7.6993,7.7565,7.7939,7.8062,7.805,7.8477,7.8741,7.9004,7.9116,7.9116,7.9116,7.9116,7.9116,7.9116,7.9116,8.9533,8.9087,8.9867,9.0536,9.0945,9.0722,9.087,9.1242,9.0536,8.9867,8.9347,8.9087,8.862,8.8121,8.81,8.81,8.8025,8.7877,8.7824,8.7988,8.7728,8.7044,8.6598,8.6486,8.6189,8.5855,8.6264,8.6205,8.5558,8.5223,8.474,8.4384,8.4012,8.3752,8.37,8.3381,8.3366,8.3329,8.3076,8.2972,8.2599,8.2613,8.2705,8.255,8.2334,8.2439,8.2895,8.3206,8.27,8.1599,8.1158,8.1672,8.281,8.2517,8.2186,8.226,8.2737,8.2977,8.2941,8.3434,8.3508,8.2941,8.3107,8.3369,8.282,8.3295,8.3259,8.311,8.3478,8.3728,8.3361,8.3618,8.4278,8.4792,8.3654,8.2663,8.237,8.2186,8.2076,8.1819,8.0865,8.011,7.9596,7.8993,7.8589,7.8332,7.8185,7.8148,7.8075,7.8075,7.7965,7.7998,7.8205,7.869,7.9066,7.9491,7.9447,7.8919,7.8917,7.9215,7.8931,7.8988,7.9131,7.9137,7.8843,7.9071,7.9052,7.9079,7.9116,7.9116,7.9116,7.9116,7.9116,7.9116,7.9116,9.0239,8.9867,9.0685,9.123,9.161,9.1478,9.1684,9.1907,9.1276,9.0509,8.9851,8.9437,8.888,8.8121,8.81,8.81,8.81,8.81,8.81,8.81,8.8062,8.775,8.7415,8.7341,8.723,8.7192,8.7267,8.7304,8.7081,8.6353,8.5632,8.5075,8.4778,8.4644,8.4257,8.4012,8.3901,8.4146,8.3626,8.3121,8.2934,8.2867,8.2813,8.2727,8.2717,8.2987,8.3565,8.3966,8.37,8.279,8.2296,8.2443,8.3161,8.2627,8.2186,8.2223,8.2941,8.3381,8.3564,8.4168,8.4352,8.4095,8.4425,8.4352,8.4135,8.4609,8.4829,8.4592,8.5159,8.5106,8.4682,8.4866,8.5123,8.5086,8.4719,8.4058,8.3287,8.2643,8.226,8.1966,8.1415,8.0624,8.0351,7.958,7.9213,7.9029,7.8699,7.8626,7.8516,7.8552,7.8379,7.8137,7.8325,7.8749,7.9179,7.9581,8.0035,7.9664,7.9836,8.0281,8.0024,7.9886,7.974,7.9607,7.9543,7.9514,7.9434,7.929,7.9116,7.9116,7.9116,7.9129,7.9153,7.9189,7.9165,9.0652,9.0636,9.1469,9.1705,9.1741,9.2333,9.2535,9.2535,9.1922,9.1281,9.0578,8.9793,8.9087,8.8248,8.8195,8.81,8.81,8.81,8.81,8.8174,8.8248,8.8233,8.8233,8.8195,8.8567,8.8938,8.8567,8.8567,8.8545,8.8195,8.7155,8.6152,8.6338,8.5966,8.5112,8.4629,8.4518,8.4443,8.3864,8.3284,8.3106,8.3113,8.32,8.3167,8.3497,8.3588,8.3903,8.4138,8.4093,8.3691,8.3491,8.3381,8.3418,8.281,8.2553,8.2737,8.3434,8.3858,8.3895,8.4756,8.4976,8.4903,8.5049,8.4939,8.5233,8.582,8.6407,8.6334,8.6848,8.6775,8.6224,8.6077,8.582,8.549,8.5527,8.5343,8.4646,8.3361,8.2423,8.2296,8.226,8.1782,8.1085,8.0351,7.9743,7.9045,7.8809,7.8662,7.8589,7.8552,7.8148,7.7586,7.8004,7.8664,7.9091,7.9538,8.003,8.0229,8.0516,8.0716,8.0233,8.0034,7.9912,7.9854,7.98,7.9879,7.9921,7.9694,7.9388,7.94,7.9632,7.9436,7.9213,7.9333,7.938,9.1761,9.1142,9.2091,9.2374,9.2274,9.2405,9.2547,9.2684,9.2498,9.1989,9.1358,9.0573,8.9756,8.8991,8.8381,8.81,8.8068,8.8068,8.81,8.8174,8.8806,8.9013,8.905,8.9087,8.9533,8.9904,8.9421,8.9198,8.9177,8.8641,8.7617,8.6821,8.6932,8.6635,8.6301,8.5706,8.5335,8.5186,8.4555,8.3849,8.347,8.3826,8.4034,8.4085,8.5016,8.5282,8.5122,8.5914,8.6116,8.5247,8.4225,8.3931,8.4278,8.4132,8.3985,8.4205,8.4756,8.5233,8.5527,8.6371,8.6848,8.5967,8.7068,8.7822,8.6684,8.7711,8.8445,8.8629,8.8776,8.8445,8.7802,8.7692,8.7178,8.6554,8.6077,8.5783,8.5416,8.4609,8.3765,8.3214,8.2627,8.1929,8.1158,8.0388,7.9743,7.9082,7.8772,7.8626,7.8589,7.8589,7.806,7.7436,7.8418,7.926,7.9877,8.0519,8.1309,8.1356,8.1423,8.1222,8.0706,8.0227,8.0167,8.0127,8.0113,8.0168,8.0184,8.0117,7.9804,8.0001,8.0038,7.9793,7.9607,7.9626,7.9566,9.2237,9.1836,9.2328,9.2461,9.2268,9.225,9.234,9.2444,9.253,9.2222,9.1557,9.0822,9.0053,8.922,8.8414,8.7958,8.7942,8.7879,8.8069,8.8419,8.8986,8.9553,9.0291,9.043,9.0685,9.0907,9.0239,9.0053,9.009,8.957,8.8864,8.8084,8.8307,8.8121,8.749,8.6932,8.6576,8.6078,8.5372,8.4703,8.4518,8.4703,8.4978,8.5149,8.606,8.6344,8.6,8.634,8.6434,8.5936,8.543,8.5253,8.5399,8.5049,8.4976,8.5673,8.5637,8.6314,8.6958,8.7619,8.7949,8.7509,8.8776,8.8702,8.8409,8.8996,8.929,8.9473,8.9657,8.973,8.9344,8.8426,8.8023,8.7582,8.6848,8.6261,8.5783,8.5086,8.4499,8.4005,8.3654,8.303,8.2186,8.0975,8.0351,7.9947,7.8846,7.8626,7.8589,7.8516,7.806,7.7978,7.9061,7.9967,8.0689,8.1649,8.2956,8.2874,8.2521,8.2034,8.1394,8.0889,8.045,8.0411,8.0313,8.0251,8.0258,8.0205,8.0233,8.0092,8.007,8.0027,7.9963,7.9843,7.9745,9.2505,9.2507,9.2653,9.2565,9.2277,9.2277,9.2221,9.2145,9.234,9.2178,9.1589,9.0864,9.0111,8.9358,8.8265,8.7815,8.7713,8.7649,8.7895,8.8376,8.9132,8.9922,9.086,9.1458,9.1799,9.1799,9.1056,9.1056,9.1242,9.1019,9.009,8.9681,9.0053,8.957,8.8678,8.8084,8.7638,8.6969,8.6226,8.5595,8.5521,8.5632,8.5818,8.6264,8.6917,8.7158,8.6852,8.6782,8.6615,8.6545,8.7002,8.7321,8.7213,8.6371,8.582,8.7308,8.6921,8.7252,8.8059,8.8573,8.8886,8.9436,8.9767,8.9693,8.962,8.9767,8.9987,9.0097,9.0391,9.0665,9.0519,8.9601,8.8647,8.8133,8.7545,8.6885,8.6114,8.5343,8.5086,8.4572,8.4425,8.4095,8.2957,8.1782,8.1305,8.0681,7.9543,7.8772,7.8772,7.8736,7.8516,7.8589,7.9651,8.0707,8.1462,8.2348,8.372,8.3743,8.3381,8.2875,8.2187,8.1834,8.1366,8.0659,8.0497,8.06,8.073,8.0908,8.0777,8.0357,8.0379,8.0646,8.0452,8.0092,8.013,9.3068,9.3051,9.3841,9.3676,9.3015,9.2923,9.2573,9.2183,9.2285,9.2439,9.2276,9.1086,9.0312,8.9748,8.844,8.775,8.753,8.7632,8.778,8.8293,8.9255,9.0411,9.0943,9.2056,9.2637,9.2542,9.1948,9.165,9.1725,9.1539,9.113,9.0536,9.0573,9.0313,8.9793,8.8938,8.836,8.7973,8.7192,8.6524,8.6189,8.6486,8.6932,8.749,8.8233,8.8303,8.7768,8.7614,8.7792,8.831,8.8444,8.9101,8.9553,8.8972,8.8755,8.8702,8.8629,8.8629,8.9143,8.9784,8.9767,8.9877,9.0519,9.0886,9.0739,9.0904,9.1033,9.1216,9.1289,9.1326,9.0665,9.0188,8.9491,8.8683,8.8096,8.7692,8.7068,8.6591,8.604,8.5343,8.527,8.4956,8.3618,8.2443,8.1672,8.0901,7.989,7.9522,7.9633,7.9633,7.9559,7.9816,8.0304,8.131,8.2235,8.3148,8.411,8.4071,8.383,8.3725,8.3181,8.2884,8.233,8.1557,8.1318,8.1509,8.1613,8.1726,8.164,8.1446,8.143,8.1451,8.1191,8.0959,8.1095,9.2096,9.2519,9.3419,9.3548,9.3161,9.3125,9.2666,9.204,9.2145,9.2375,9.2049,9.1004,9.0276,8.9819,8.8322,8.7472,8.7449,8.8208,8.8429,8.8831,8.9907,9.0946,9.1253,9.2438,9.2794,9.286,9.2542,9.2356,9.2356,9.2393,9.2059,9.191,9.1799,9.1576,9.113,9.0462,8.9681,8.9273,8.8493,8.7898,8.7527,8.7935,8.8195,8.8344,8.9198,8.9374,8.8865,8.8975,8.9206,8.9568,8.9875,9.0381,9.0795,9.1003,9.0604,9.0077,8.9711,8.9657,8.995,9.0427,9.0519,9.0776,9.1436,9.1583,9.1436,9.1546,9.1803,9.1803,9.1803,9.1657,9.1289,9.0886,9.0225,8.9638,8.9087,8.8629,8.8225,8.7858,8.7105,8.6297,8.6297,8.5673,8.4132,8.303,8.2039,8.1085,8.022,8.0257,8.0514,8.0697,8.0807,8.1307,8.1786,8.2712,8.3627,8.443,8.4958,8.4801,8.4556,8.4403,8.4021,8.3649,8.3037,8.2302,8.2302,8.2569,8.2588,8.2731,8.2617,8.2569,8.2731,8.2712,8.213,8.1881,8.2034,9.1913,9.2831,9.3529,9.3822,9.3786,9.3639,9.3125,9.2427,9.2388,9.2475,9.234,9.1043,9.0261,8.9727,8.8528,8.7426,8.7399,8.8757,8.9215,8.9471,9.0328,9.135,9.1932,9.2545,9.2805,9.2905,9.3248,9.3136,9.2914,9.2876,9.2951,9.2691,9.2802,9.2579,9.1948,9.1279,9.113,9.0722,8.9979,8.957,8.9533,8.9644,8.9384,8.8768,8.9979,9.035,8.9687,8.9903,9.0284,9.0589,9.0967,9.133,9.1592,9.2092,9.1899,9.0881,9.0186,9.0389,9.0683,9.0886,9.1253,9.184,9.1803,9.195,9.2281,9.2281,9.206,9.1877,9.1803,9.1803,9.162,9.1216,9.0812,9.0427,8.995,8.951,8.9069,8.8647,8.8096,8.7619,8.7509,8.6371,8.4719,8.3911,8.2994,8.2113,8.1232,8.1525,8.1782,8.2113,8.2382,8.2875,8.3503,8.4433,8.5234,8.5914,8.6248,8.6168,8.58,8.555,8.4938,8.4327,8.3754,8.341,8.3563,8.3792,8.3792,8.3524,8.3295,8.3333,8.3878,8.3725,8.2808,8.2655,8.2875,9.474,9.6098,9.6171,9.6282,9.6135,9.5474,9.474,9.397,9.3345,9.3196,9.3029,9.1641,9.0514,8.9693,8.8767,8.8168,8.839,8.9106,8.962,8.9766,9.0532,9.1097,9.1332,9.2234,9.263,9.2896,9.357,9.3582,9.3211,9.3025,9.2988,9.2914,9.2468,9.2133,9.2579,9.1725,9.1019,9.1316,9.0759,9.035,9.0387,9.0907,9.0759,9.0536,9.0945,9.1167,9.0499,9.0636,9.0933,9.149,9.1585,9.1948,9.2424,9.2576,9.2104,9.1599,9.1462,9.1798,9.1707,9.1654,9.1913,9.2482,9.2317,9.2703,9.3051,9.3125,9.2648,9.184,9.184,9.1803,9.184,9.1693,9.1289,9.0941,9.0574,9.0097,8.9657,8.9381,8.8867,8.8573,8.8316,8.6811,8.5159,8.4572,8.3948,8.3104,8.2517,8.2847,8.3214,8.3618,8.3691,8.4134,8.4532,8.5417,8.5811,8.6644,8.712,8.7201,8.6773,8.638,8.5817,8.5244,8.5129,8.49,8.4938,8.4556,8.4098,8.3868,8.3754,8.3945,8.4327,8.3916,8.3152,8.3305,8.3677,9.496,9.6061,9.6502,9.6979,9.7236,9.6502,9.5731,9.4869,9.3713,9.3235,9.2958,9.156,9.0347,8.9634,8.9435,8.9307,8.9253,9.0134,9.0427,9.028,9.0902,9.1433,9.1739,9.2225,9.2565,9.2829,9.3148,9.3285,9.3136,9.3397,9.3508,9.2951,9.2691,9.2616,9.2988,9.2282,9.2208,9.2133,9.1613,9.0982,9.0833,9.1205,9.1353,9.061,9.1762,9.1836,9.1502,9.1725,9.2022,9.2431,9.2431,9.2563,9.2794,9.2835,9.2616,9.2401,9.2325,9.2114,9.1678,9.1996,9.2552,9.3014,9.2904,9.2996,9.3529,9.3731,9.318,9.1913,9.2281,9.2317,9.195,9.1803,9.162,9.1363,9.1143,9.1033,9.0592,9.0041,8.9674,8.9417,8.9014,8.7528,8.6481,8.6444,8.56,8.4095,8.4095,8.4792,8.5086,8.5416,8.5343,8.5176,8.5604,8.6125,8.6329,8.6757,8.7452,8.7536,8.7055,8.6724,8.6533,8.6189,8.5855,8.5588,8.5358,8.49,8.4441,8.4441,8.4632,8.4671,8.4747,8.448,8.4212,8.3916,8.4212,9.5107,9.6409,9.6832,9.7566,9.8374,9.7419,9.6685,9.5951,9.4446,9.3676,9.3014,9.1582,9.0262,8.9913,9.0225,9.0152,8.9803,9.1179,9.1326,9.1289,9.1454,9.1821,9.1982,9.225,9.2496,9.267,9.3297,9.3269,9.3322,9.3582,9.3731,9.3062,9.3248,9.3136,9.3025,9.2876,9.2839,9.2802,9.2319,9.1799,9.1465,9.1762,9.1688,9.1725,9.2171,9.2691,9.2245,9.2505,9.2914,9.2914,9.2914,9.2914,9.2971,9.2955,9.2918,9.281,9.2768,9.2647,9.2343,9.2461,9.2893,9.3488,9.4097,9.4356,9.3786,9.4228,9.4227,9.2831,9.2776,9.2721,9.2299,9.1987,9.173,9.1693,9.1693,9.1767,9.1711,9.1087,9.05,9.0078,8.9601,8.8812,8.8169,8.8463,8.7472,8.5453,8.5527,8.6464,8.6701,8.6738,8.6444,8.6075,8.6787,8.7131,8.7065,8.7306,8.7829,8.7824,8.7378,8.7182,8.7068,8.6543,8.597,8.5779,8.5855,8.6046,8.6046,8.5779,8.5511,8.5358,8.532,8.5664,8.555,8.5167,8.4785,9.6098,9.8795,9.808,9.8704,9.9989,9.8447,9.7787,9.7493,9.5932,9.474,9.3713,9.184,9.0665,9.0592,9.0647,9.0683,9.0592,9.14,9.1657,9.1711,9.1785,9.1895,9.2003,9.2162,9.2409,9.2624,9.3196,9.3363,9.3359,9.3805,9.3619,9.3136,9.3434,9.3434,9.3211,9.2988,9.2988,9.2988,9.2765,9.2765,9.2579,9.2728,9.2691,9.2728,9.2839,9.2951,9.293,9.2951,9.2988,9.2988,9.2988,9.2988,9.2988,9.2988,9.2988,9.3157,9.3009,9.3165,9.3469,9.3114,9.3331,9.4608,9.5643,9.592,9.4869,9.5477,9.5312,9.4338,9.3914,9.3529,9.2978,9.2409,9.2169,9.2169,9.2206,9.2077,9.2059,9.2023,9.1417,9.0812,9.0152,8.949,8.9253,8.9417,8.8426,8.6444,8.6334,8.7234,8.7198,8.7178,8.6978,8.6973,8.7905,8.8209,8.8003,8.8237,8.8516,8.8237,8.7756,8.7763,8.7804,8.7116,8.6467,8.6734,8.7001,8.7345,8.7422,8.681,8.6314,8.5922,8.5922,8.6265,8.6619,8.6428,8.5932,9.6171,9.9035,9.8778,9.9548,10.0927,9.9292,9.8631,9.8264,9.6409,9.4777,9.3492,9.2024,9.1326,9.1344,9.1452,9.1471,9.1473,9.2298,9.2225,9.217,9.2244,9.2244,9.2169,9.2074,9.2305,9.2518,9.3054,9.3313,9.3136,9.3731,9.3582,9.3359,9.3397,9.3248,9.3062,9.2988,9.2988,9.2988,9.2988,9.2988,9.2988,9.2988,9.2988,9.2988,9.2988,9.2988,9.2988,9.2988,9.2988,9.2988,9.2988,9.2988,9.3025,9.3025,9.3285,9.3545,9.3359,9.3805,9.4585,9.4174,9.4237,9.5487,9.6581,9.6823,9.5824,9.638,9.5974,9.5311,9.4961,9.4686,9.4151,9.3452,9.3009,9.2918,9.2717,9.2498,9.2443,9.2535,9.2168,9.1506,9.0956,9.0404,9.026,9.0225,8.8904,8.7509,8.7692,8.7802,8.7711,8.7543,8.7304,8.7291,8.8055,8.8574,8.842,8.8734,8.9113,8.8579,8.8051,8.8114,8.8148,8.7995,8.7536,8.7842,8.7995,8.8033,8.788,8.7498,8.7154,8.6925,8.68,8.6877,8.7192,8.746,8.681,9.6392,9.8978,9.9088,10.0026,10.1184,9.9769,9.9088,9.8721,9.6832,9.496,9.3382,9.2354,9.1803,9.1858,9.1912,9.1965,9.1967,9.2407,9.2352,9.2316,9.2316,9.2335,9.2096,9.2056,9.2285,9.2461,9.2667,9.2905,9.3025,9.3582,9.3434,9.3136,9.2988,9.3025,9.3025,9.2988,9.2988,9.2988,9.2988,9.2988,9.2988,9.2988,9.2988,9.2988,9.2988,9.2988,9.2988,9.2988,9.2988,9.2988,9.2988,9.2988,9.3062,9.3248,9.3657,9.3842,9.4102,9.4362,9.5143,9.5423,9.5352,9.6253,9.7055,9.7132,9.6985,9.7152,9.6818,9.61,9.6082,9.5916,9.5196,9.4221,9.3797,9.367,9.3302,9.3082,9.3192,9.3248,9.2751,9.2217,9.1667,9.11,9.0698,9.0554,9.0023,8.8848,8.8592,8.8482,8.8115,8.7909,8.7588,8.7612,8.7899,8.8303,8.8624,8.8872,8.8985,8.8489,8.8124,8.8221,8.8262,8.8186,8.8606,8.9065,8.9065,8.8759,8.8606,8.8568,8.8301,8.7995,8.788,8.7727,8.7422,8.7536,8.6925,9.6886,9.8978,9.9125,10.0062,10.1257,9.9769,9.9088,9.8851,9.7126,9.5547,9.4006,9.2537,9.1803,9.1822,9.1876,9.193,9.2039,9.224,9.2203,9.2167,9.2334,9.2114,9.2131,9.2293,9.2672,9.257,9.2997,9.3313,9.3099,9.3359,9.3211,9.3062,9.2988,9.2988,9.2988,9.2988,9.2988,9.2988,9.2988,9.2988,9.2988,9.2988,9.2988,9.2988,9.2988,9.2988,9.2988,9.2988,9.2988,9.2988,9.2988,9.2988,9.3025,9.3694,9.4102,9.4251,9.4883,9.5588,9.6406,9.648,9.6611,9.6743,9.7473,9.7639,9.7765,9.7802,9.7732,9.6961,9.6833,9.6428,9.5619,9.4809,9.4549,9.4179,9.3792,9.3479,9.3551,9.3737,9.3222,9.2557,9.2159,9.176,9.1192,9.079,9.0792,9.0261,8.9748,8.9253,8.872,8.8191,8.7804,8.8064,8.818,8.8189,8.8558,8.8839,8.8825,8.8377,8.8186,8.8301,8.8453,8.8492,8.9093,9.002,8.9971,8.9485,8.9638,8.9791,8.9409,8.8988,8.8759,8.853,8.811,8.7689,8.7269,9.7419,9.9125,9.9659,10.0503,10.122,9.9805,9.9088,9.8631,9.6428,9.4777,9.4042,9.2537,9.1803,9.184,9.1912,9.1966,9.2004,9.2755,9.2755,9.2004,9.2389,9.2721,9.2721,9.2791,9.3301,9.3885,9.4222,9.4019,9.3842,9.3731,9.3359,9.3136,9.2988,9.2988,9.2988,9.2988,9.2988,9.2988,9.2988,9.2988,9.2988,9.2988,9.2988,9.2988,9.2988,9.2988,9.2988,9.2988,9.2988,9.2988,9.2988,9.2988,9.3136,9.3768,9.4474,9.4808,9.5403,9.5774,9.6554,9.6963,9.7446,9.7557,9.7669,9.7892,9.7892,9.7892,9.7857,9.7822,9.749,9.6975,9.6325,9.5492,9.5027,9.4325,9.3883,9.3496,9.3496,9.378,9.3618,9.273,9.218,9.1654,9.1087,9.1074,9.1097,9.075,9.0126,8.9728,8.9215,8.8515,8.8006,8.8435,8.864,8.8442,8.8507,8.8879,8.904,8.8744,8.8532,8.8415,8.8568,8.8894,8.9506,9.0406,9.0336,9.0239,9.0242,9.0263,9.0183,8.9944,8.9717,8.9276,8.8759,8.8415,8.8148,9.808,9.9548,10.0062,10.076,10.122,10.0062,9.9255,9.8227,9.5621,9.4299,9.3932,9.2574,9.1803,9.184,9.1912,9.202,9.1949,9.2498,9.2827,9.2058,9.2517,9.2646,9.2738,9.3049,9.3356,9.4218,9.4597,9.449,9.4585,9.4325,9.3731,9.3174,9.2988,9.2988,9.2988,9.2988,9.2988,9.2988,9.2988,9.2988,9.2988,9.2988,9.2988,9.2988,9.2988,9.2988,9.2988,9.2988,9.2988,9.2988,9.2988,9.2988,9.3248,9.3991,9.4771,9.5291,9.6108,9.648,9.7149,9.7446,9.778,9.7817,9.7892,9.7892,9.7892,9.7892,9.7892,9.7892,9.7892,9.7372,9.6611,9.5848,9.5163,9.4498,9.4052,9.3685,9.3297,9.3546,9.3122,9.2306,9.1663,9.1229,9.1051,9.1353,9.1452,9.0977,9.0445,9.0068,8.9651,8.8877,8.8431,8.8933,8.9119,8.896,8.8893,8.9047,8.913,8.9082,8.9052,8.9032,8.9281,8.9732,9.0248,9.06,9.0523,9.0495,9.063,9.0641,9.0564,9.0641,9.0699,9.0199,8.9506,8.896,8.856,9.8814,10.0172,10.0319,10.076,10.122,10.0429,9.9292,9.7733,9.5364,9.4299,9.4189,9.2537,9.1803,9.1803,9.1822,9.1912,9.2038,9.2202,9.2254,9.2305,9.2454,9.2383,9.2457,9.2619,9.3372,9.3681,9.4133,9.4821,9.5217,9.4548,9.3768,9.3248,9.3099,9.3025,9.2988,9.2988,9.2988,9.2988,9.2988,9.2988,9.2988,9.2988,9.2988,9.2988,9.2988,9.2988,9.2988,9.2988,9.2988,9.2988,9.2988,9.2988,9.3471,9.4548,9.5105,9.5923,9.7112,9.7483,9.7743,9.7855,9.7892,9.7892,9.7892,9.7892,9.7892,9.7892,9.7892,9.7892,9.7855,9.7223,9.6554,9.5923,9.5254,9.4717,9.4234,9.3751,9.3157,9.2769,9.2175,9.1511,9.0856,9.0531,9.0609,9.0913,9.1472,9.099,9.0533,9.0287,8.9813,8.9045,8.8887,8.9648,8.9702,8.947,8.9474,8.9667,8.9774,8.9908,9.0081,9.0148,9.0349,9.0368,9.054,9.0673,9.0701,9.0816,9.1114,9.1106,9.0905,9.1058,9.1259,9.0461,8.9567,8.9004,8.8555,9.8484,9.9548,10.065,10.098,10.054,9.9805,9.8851,9.764,9.5383,9.4299,9.4189,9.2537,9.1803,9.1803,9.1822,9.193,9.2038,9.2127,9.227,9.2322,9.234,9.2585,9.2807,9.3078,9.3685,9.4251,9.4721,9.4909,9.5126,9.4585,9.4177,9.3879,9.3211,9.3062,9.2988,9.2988,9.2988,9.2988,9.2988,9.2988,9.2988,9.2988,9.2988,9.2988,9.2988,9.2988,9.2988,9.2988,9.2988,9.2988,9.2988,9.2988,9.3099,9.4511,9.5663,9.7112,9.7706,9.7892,9.7892,9.7892,9.7892,9.7892,9.7892,9.7892,9.7892,9.7892,9.7892,9.7892,9.7855,9.7334,9.6517,9.5774,9.4994,9.4325,9.3879,9.3397,9.2802,9.2319,9.1725,9.1263,9.0571,9.02,9.0295,9.0889,9.1301,9.0868,9.0502,9.0259,8.986,8.9053,8.9079,8.9846,8.9881,8.9474,9.0207,9.0551,9.0666,9.0752,9.0839,9.0886,9.0887,9.0839,9.0743,9.0819,9.0973,9.1356,9.1816,9.1663,9.1366,9.1395,9.1471,9.0559,8.9734,8.9361,8.8911,9.808,9.9181,10.0136,10.0283,9.9695,9.8631,9.7823,9.7052,9.518,9.4153,9.3675,9.2391,9.1803,9.1822,9.1894,9.2002,9.2091,9.2198,9.2357,9.2479,9.2355,9.2614,9.3,9.3257,9.3622,9.4281,9.4756,9.4855,9.5035,9.4622,9.4102,9.3582,9.3136,9.3062,9.2988,9.2988,9.2988,9.2988,9.2988,9.2988,9.2988,9.2988,9.2988,9.3025,9.3025,9.2988,9.3025,9.3025,9.2988,9.2988,9.2988,9.3211,9.3508,9.4771,9.5848,9.7,9.726,9.7297,9.7334,9.7743,9.7817,9.7892,9.7892,9.7892,9.7892,9.7892,9.7892,9.7892,9.778,9.7446,9.6443,9.5514,9.4585,9.3694,9.3285,9.2876,9.2431,9.2022,9.1576,9.113,9.0631,9.0111,9.026,9.0907,9.0982,9.0281,8.9819,8.9548,8.9283,8.8838,8.9045,8.9681,8.9616,8.9391,9.0367,9.1356,9.1479,9.145,9.1353,9.1373,9.1336,9.1155,9.0953,9.1116,9.1365,9.1788,9.2296,9.2046,9.1796,9.1912,9.1884,9.1212,9.0618,9.0263,8.9736,9.7532,9.8871,9.8924,9.8961,9.8778,9.7346,9.6575,9.6355,9.4777,9.3822,9.3051,9.2207,9.1822,9.1894,9.2002,9.2127,9.2233,9.2355,9.253,9.2684,9.2616,9.2747,9.2764,9.2795,9.3225,9.3593,9.3974,9.4353,9.4903,9.4697,9.414,9.3136,9.3174,9.3174,9.3025,9.2988,9.2988,9.2988,9.2988,9.2988,9.2988,9.2988,9.3025,9.3136,9.3099,9.3062,9.3099,9.3062,9.2988,9.2988,9.3099,9.3397,9.4288,9.492,9.5811,9.6257,9.6591,9.6703,9.6889,9.7297,9.7706,9.7817,9.7892,9.7892,9.7892,9.7892,9.7892,9.7892,9.7817,9.7409,9.6554,9.57,9.4808,9.3954,9.3397,9.2951,9.2542,9.2022,9.1465,9.0982,9.0499,9.0016,8.983,9.0387,9.0573,8.9756,8.957,8.9368,8.8684,8.8414,8.8906,8.9447,8.9237,8.9463,9.1225,9.2084,9.2272,9.2231,9.1914,9.1636,9.1505,9.1324,9.1114,9.1324,9.1573,9.2195,9.2597,9.2349,9.2301,9.2579,9.2407,9.1946,9.1478,9.0934,9.0551,9.6676,9.7483,9.733,9.7603,9.7933,9.6484,9.5401,9.4813,9.3822,9.3272,9.2978,9.2262,9.1894,9.202,9.2074,9.2233,9.2513,9.2582,9.2734,9.2785,9.2805,9.2771,9.2738,9.2754,9.2886,9.292,9.3246,9.3718,9.4309,9.4585,9.4622,9.3917,9.3731,9.3471,9.3025,9.2988,9.2988,9.2988,9.2988,9.2988,9.2988,9.3099,9.3174,9.3397,9.3471,9.3359,9.3359,9.3248,9.3099,9.2988,9.2988,9.3731,9.5031,9.5291,9.5811,9.6331,9.6108,9.622,9.648,9.6926,9.7372,9.778,9.7892,9.7892,9.7892,9.7892,9.7892,9.7892,9.7743,9.7297,9.6777,9.596,9.5143,9.4362,9.3545,9.3136,9.2691,9.2022,9.139,9.0945,9.0462,9.0127,8.9867,8.983,8.983,8.9979,9.0164,8.983,8.8493,8.7982,8.8564,8.8972,8.8784,8.9414,9.1312,9.2334,9.2328,9.2364,9.2124,9.1894,9.1633,9.1867,9.1994,9.1666,9.1769,9.2441,9.2826,9.2672,9.2701,9.2903,9.271,9.2145,9.1607,9.1044,9.0931,9.5312,9.5902,9.6101,9.6649,9.6906,9.5273,9.4355,9.4079,9.3051,9.2501,9.2501,9.2042,9.1912,9.2109,9.218,9.2392,9.2684,9.2768,9.2888,9.2922,9.2905,9.2872,9.2855,9.2838,9.2855,9.2888,9.2938,9.3322,9.3768,9.3879,9.3879,9.3731,9.3657,9.3508,9.2988,9.2988,9.2988,9.2988,9.2988,9.2988,9.2988,9.3062,9.3136,9.3397,9.3397,9.3359,9.3322,9.3248,9.3359,9.3768,9.4251,9.492,9.5811,9.596,9.596,9.6034,9.5997,9.5997,9.6257,9.6703,9.726,9.7706,9.7892,9.7892,9.7892,9.7892,9.7892,9.7892,9.7892,9.752,9.726,9.6591,9.5774,9.4957,9.4177,9.3545,9.2876,9.2133,9.2022,9.2096,9.1539,9.1019,9.0833,9.087,9.0759,9.009,9.0313,9.0053,8.879,8.8177,8.8612,8.8882,8.8985,8.9292,9.0673,9.1587,9.2,9.2095,9.221,9.1787,9.1518,9.2441,9.2864,9.2095,9.1941,9.271,9.2988,9.2787,9.2672,9.271,9.2556,9.2249,9.171,9.1201,9.1089,9.413,9.4724,9.5202,9.5842,9.6098,9.3969,9.3382,9.3749,9.2501,9.184,9.1895,9.1876,9.1966,9.2145,9.2375,9.2547,9.2717,9.2888,9.2971,9.2988,9.2971,9.2955,9.2955,9.2971,9.2955,9.2955,9.2988,9.2988,9.3174,9.3434,9.3582,9.3136,9.3062,9.3099,9.3025,9.2988,9.2988,9.2988,9.2988,9.2988,9.2988,9.3025,9.3136,9.3136,9.3062,9.3062,9.3099,9.3174,9.3508,9.4362,9.5365,9.6034,9.6331,9.6406,9.6146,9.6071,9.5997,9.596,9.6108,9.6852,9.7409,9.7817,9.7892,9.7892,9.7892,9.7892,9.7892,9.7892,9.7892,9.7817,9.752,9.7074,9.6257,9.5328,9.4548,9.3768,9.2988,9.2356,9.2579,9.2839,9.2393,9.1799,9.1613,9.1688,9.1205,9.0536,9.009,8.9719,8.9432,8.9433,8.96,8.9819,8.9944,9.035,9.0704,9.105,9.1672,9.171,9.1748,9.1441,9.147,9.2518,9.2787,9.1902,9.2018,9.2864,9.3018,9.2826,9.2749,9.2595,9.2479,9.2249,9.1595,9.1201,9.1201,9.4584,9.5643,9.5056,9.5147,9.529,9.3088,9.2537,9.3088,9.2281,9.1803,9.1858,9.2002,9.2145,9.2375,9.2565,9.2717,9.2888,9.2988,9.2988,9.2988,9.2988,9.2988,9.2988,9.2988,9.2988,9.2988,9.2988,9.2988,9.3025,9.3508,9.3582,9.3062,9.3694,9.3545,9.3025,9.2988,9.2988,9.2988,9.2988,9.2988,9.2988,9.3136,9.3471,9.3434,9.3359,9.3545,9.3619,9.3285,9.3582,9.44,9.57,9.648,9.674,9.674,9.6554,9.6294,9.622,9.6183,9.648,9.6889,9.7409,9.7855,9.7892,9.7892,9.7892,9.7892,9.7892,9.7892,9.7892,9.7892,9.7632,9.7149,9.6406,9.5254,9.4325,9.3619,9.2914,9.2765,9.2876,9.2876,9.2691,9.2133,9.1688,9.1502,9.113,9.0573,9.0313,9.0016,9.0016,9.0305,9.0513,9.0665,9.0802,9.0912,9.104,9.1029,9.1393,9.1402,9.1441,9.1402,9.1787,9.2749,9.2749,9.1979,9.2249,9.3056,9.3018,9.2479,9.2595,9.2441,9.2518,9.2249,9.1595,9.1201,9.1201]}]]